     2              OBSERVATION DATA    GPS                 RINEX VERSION / TYPE
teqc 1997Jun30 19970702                                     PGM / RUN BY / DATE
                                                            COMMENT
BIT 2 OF LLI FLAGS DATA COLLECTED UNDER A-S CONDITION       COMMENT
BIT 2 OF LLI FLAGS DATA COLLECTED UNDER A-S CONDITION       COMMENT
Original Marker Name: HMCP                                  COMMENT
Campaign Name: HMC San Gabriel Valley 1993-1996             COMMENT
4-Character Station Name: HMCP                              COMMENT
6-Character Antenna Code: DMRCHT                            COMMENT
Vertical Measurement Point: BPA                             COMMENT
Vertical Offset to Rinex Ref. Point: 0.0000                 COMMENT
Radial Measurement Point: RRP                               COMMENT
Radial Offset to Rinex Ref. Point: 0.0000                   COMMENT
Antenna Height from Field Measurement: 0.0000 m             COMMENT
Additional Antenna Identification Info.:                    COMMENT
Turborogue and Ashtech Choke Ring                           COMMENT
Fixed antenna mounting on roof of Parsons                   COMMENT
building, HMC.                                              COMMENT
Original XYZ: -2458625.4791 -4680524.9184 3556533.3266      COMMENT
New XYZ position is based on association with SCEC monument COMMENT
E1D0R2C7+0011. Position of that monument is believed to be  COMMENT
valid to within 1 m horizontally; vertical accuracy         COMMENT
should be no worse than 3-times this value.                 COMMENT
                                                            COMMENT
Revised Rinex header created by UCSD GPS archive for        COMMENT
GSAC on 13-Apr-1999 (1999:103) 20:42:54 GMT                 COMMENT
For assistance contact dagnew@ucsd.edu or hjohnson@ucsd.edu COMMENT
                                                            COMMENT
HARVEY MUDD COLLEGE PHYSICS                                 MARKER NAME
MGB HARVEY MUDD COLLEGE                                     OBSERVER / AGENCY
T-262/263 TURBOROGUE SNR-8000 95.03.08                      REC # / TYPE / VERS
260/329 DORNE-MARGOL. TYPE T                                ANT # / TYPE
 -2458598.0000 -4680494.0000  3556451.0000                  APPROX POSITION XYZ
        0.0000        0.0000        0.0000                  ANTENNA: DELTA H/E/N
     1     1     0                                          WAVELENGTH FACT L1/2
     5    L1    L2    C1    P2    P1                        # / TYPES OF OBSERV
     0                                                      INTERVAL
  1996     5     7     2     1    0.000000                  TIME OF FIRST OBS
  1996     5     7    19    15   30.000000                  TIME OF LAST OBS
     0                                                      # OF SATELLITES
                                                            END OF HEADER
 96  5  7  2  1  0.0000000  0  7G21G23G28G17G26G 6G16
        -0.38854         0.73954  24796175.2444   24796181.7614
        -0.35254         0.33254  21518293.1294   21518294.4214
        -0.39714        -0.06414  25145282.285    25145280.993
        -0.58854        -0.32754  21016062.5104   21016063.2224
        -0.48154        -0.26154  22296487.1504   22296487.4334
        -0.39154         0.57454  20402064.6834   20402064.6954
        -0.30554         0.86154  23813345.7974   23813346.4104
 96  5  7  2  1 30.0000000  0  8G21G23G28G17G26G22G 6G16
    -95792.50344    -74642.17644  24777947.6174   24777950.8364
    -61415.36944    -47855.49244  21506606.2764   21506607.3144
   -103621.651 4    -80743.908 4  25125564.532    25125561.777
    -28382.04044    -22115.73644  21010661.7264   21010662.1664
    -33755.76144    -26303.05344  22290063.6064   22290063.4864
        -0.40454         0.55254  23547499.2154   23547500.8834
     30428.10444     23711.07544  20407855.2174   20407855.1104
     99866.75144     77819.34144  23832349.8744   23832351.9944
 96  5  7  2  2  0.0000000  0  8G21G23G28G17G26G22G 6G16
   -192146.80244   -149723.18044  24759611.6784
   -123166.39444    -95973.13944  21494855.6194   21494856.6704
   -207964.016 4   -162049.489 4  25105708.497    25105716.715
    -57290.23944    -44641.59044  21005160.6854   21005161.3134
    -67699.58044    -52752.76544  22283604.2494   22283604.8914
    -30286.82744    -23599.24644  23541735.1084   23541736.2504
     60652.84644     47262.81044  20413606.6294   20413606.5474
    199150.22844    155183.04044  23851242.9674   23851245.3814
 96  5  7  2  2 30.0000000  0  8G21G23G28G17G26G22G 6G16
   -288456.02144   -224769.11244  24741285.6824   24741284.1984
   -184631.86344   -143868.28144  21483159.0144   21483160.1824
   -312410.857 4   -243436.604 4  25085830.118    25085831.428
    -86088.79044    -67082.01844  20999680.5314   20999681.1804
   -101218.10144    -78871.07244  22277225.8864   22277225.9274
    -60169.88744    -46884.75544  23536048.0854   23536052.8404
     91277.67844     71126.30144  20419434.3184   20419434.4304
    298457.39344    232565.23044  23870140.6754   23870141.6484
 96  5  7  2  3  0.0000000  0  7G21G23G17G26G22G 6G16
   -384618.86744                  24722986.0244
   -245705.58744   -191458.16644  21471537.2314   21471538.3074
   -114661.66744    -89346.60044  20994243.3114   20994244.2854
   -134210.17644   -104579.16144  22270947.8554   22270948.1674
    -89539.84044    -69770.46844  23530459.3394   23530460.5194
    122381.85144     95363.30444  20425353.4294   20425353.5054
    397863.65244    310024.61044  23889057.0204   23889058.5554
 96  5  7  2  3 30.0000000  0  7G21G23G17G26G22G 6G16
   -480591.14644   -374484.26644  24704722.5894   24704722.1874
   -306325.95844   -238694.79044  21460001.5424   21460002.4494
   -142978.41044   -111411.59144  20988854.6534   20988855.2204
   -166625.52044   -129837.84144  22264778.9984   22264779.1494
   -118333.74944                  23524980.0594
    153996.02244    119997.71044  20431369.2104   20431369.4034
    497419.94744    387600.91244  23908001.6554   23908002.3274
 96  5  7  2  4  0.0000000  0  7G21G23G17G26G22G 6G16
   -576408.49144   -449146.86944  24686488.3584   24686492.9094
   -366497.31344   -285581.53244  21448551.1834   21448552.1014
   -171050.29244   -133285.77544  20983512.7554   20983513.5014
   -198476.30444   -154656.59744  22258718.0264   22258718.2584
   -146548.90544   -114194.91844  23519611.3574   23519612.0054
    186109.18944    145020.94644  20437480.2334   20437480.3124
    597112.89144    465283.71044  23926973.6144   23926976.8024
 96  5  7  2  4 30.0000000  0  7G23G21G17G26G22G 6G16
   -426244.72044   -332137.92144  21437181.6314   21437182.8214
   -672091.36344   -523704.72844  24668280.5884   24668282.1454
   -198881.46744   -154972.40144  20978216.8274   20978217.4364
   -229773.62944   -179044.08944  22252762.1944   22252762.4554
   -174203.83844   -135743.29344  23514348.8654   23514350.1584
    218714.73744    170427.85544  20443685.0134   20443685.0044
    696923.36544    543058.06144  23945966.7714   23945966.5534
 96  5  7  2  5  0.0000000  0  7G23G21G17G26G22G 6G16
   -485565.83644   -378362.13844  21425893.1174   21425893.9924
   -767625.98744   -598147.05544  24650101.1174   24650104.3164
   -226507.16444   -176498.91644  20972959.6254   20972960.2024
   -260524.71544   -203005.95444  22246910.7254   22246910.6664
   -201307.19844   -156862.88744  23509191.2784   23509193.3274
    251825.13644    196228.15744  20449985.5154   20449985.6134
    796848.92844    620922.13144  23964981.0324   23964981.5584
 96  5  7  2  5 30.0000000  0  7G23G21G17G26G22G 6G16
   -544471.93144   -424262.96044  21414683.4504   21414684.3794
   -863022.93644   -672482.09644  24631948.6934   24631952.0414
   -253954.03644   -197886.07944  20967736.7314   20967737.4944
   -290763.88444   -226568.92044  22241156.2244   22241156.6694
   -227883.00644   -177571.32844  23504134.0644   23504135.0654
    285447.68444    222427.53244  20456383.8404   20456383.7674
    896886.65244    698873.55444  23984018.2594   23984020.7274
 96  5  7  2  6  0.0000000  0  7G23G21G17G26G22G 6G16
   -602959.28644   -469837.49444  21403553.6894   21403554.6714
   -958278.00344   -746706.59544  24613821.3934   24613826.6894
   -281208.08444   -219122.99144  20962550.6284   20962551.1984
   -320490.71944   -249732.65644  22235499.1034   22235499.1874
   -253940.46444   -197875.86044  23499175.9444   23499177.6514
    319593.91244    249034.96944  20462881.3964   20462881.5444
    997030.16944    776907.42644  24003075.0624   24003078.5874
 96  5  7  2  6 30.0000000  0  7G23G21G26G17G22G 6G16
   -661035.51344   -515091.66844  21392502.1084   21392503.0184
  -1053381.69044   -820813.13544  24595721.6144   24595729.8054
   -349714.23944   -272504.20344  22229938.2424   22229938.0194
   -308281.59744   -240219.22944  20957398.7434   20957399.1334
   -279507.10444   -217797.94244  23494310.0734   23494310.6194
    354260.06444    276047.54144  20469478.1974   20469477.9094
   1097269.06644    855015.61744  24022150.1014   24022150.6924
 96  5  7  2  7  0.0000000  0  7G23G21G17G26G22G 6G16
   -718715.14844   -560036.80744  21381525.9164   21381527.1884
  -1148338.49544   -894805.22144  24577649.5134   24577659.4424
   -335188.78044   -261185.85744  20952278.2844   20952278.9104
   -378450.64344   -294896.19544  22224470.4644   22224470.1854
   -304593.95744   -237346.14444  23489535.4624   23489537.9564
    389425.76444    303449.36744  20476170.1294   20476170.1744
   1197584.55544    933183.50044  24041239.6964   24041238.8984
 96  5  7  2  7 30.0000000  0  8G23G21G28G17G26G22G 6G16
   -775960.68444   -604643.69344  21370632.6524   21370633.8154
  -1243094.16744   -968640.57244  24559617.2064   24559628.1274
        -0.49914        -0.87514  24887183.614    24887185.683
   -361860.45044   -281968.96844  20947202.9074   20947203.4144
   -406632.51444   -316856.06844  22219106.7264   22219107.2924
   -329144.16344   -256476.17644  23484864.0624   23484866.7994
    425128.29744    331269.51044  20482964.1814   20482964.1164
   1298020.94844   1011445.58544  24060352.0534   24060353.7524
 96  5  7  2  8  0.0000000  0  7G23G21G17G26G22G 6G16
   -832830.42844   -648957.74544  21359810.6604   21359811.7124
  -1337700.27944  -1042359.42944  24541614.6504   24541622.2624
   -388339.27144   -302601.81644  20942164.1644   20942164.7094
   -434279.39944   -338399.08544  22213846.1424   22213846.7074
   -353202.26644   -275222.73844  23480286.1734   23480287.8914
    461297.68044    359453.42944  20489846.8034   20489846.9194
   1398519.66844   1089756.25344  24079476.4884   24079476.9724
 96  5  7  2  8 30.0000000  0  8G23G21G28G17G26G22G 6G16
   -889308.26144   -692966.42144  21349063.4864   21349064.5624
  -1432136.77144  -1115946.09144  24523643.4834   24523651.6744
        -0.53114        -0.71914  24847461.687    24847484.756
   -414607.57544   -323070.61844  20937165.4624   20937166.1284
   -461373.28244   -359511.17944  22208690.3644   22208690.1284
   -376726.78944   -293553.52844  23475809.7244   23475810.6164
    497952.21844    388015.39244  20496822.1704   20496822.1044
   1499111.71944   1168139.63044  24098619.0754   24098619.9954
 96  5  7  2  9  0.0000000  0  8G21G23G28G17G26G22G 6G16
  -1526413.25244  -1189408.08244  24505704.8054   24505710.5204
   -945397.73444   -736672.47444  21338389.8404   21338391.0704
   -104352.492 4    -81313.797 4  24827605.819    24827615.236
   -440664.61644   -343374.80144  20932206.7154   20932207.5514
   -487922.60844   -380198.95144  22203638.2444   22203638.4944
   -399707.74844   -311460.77844  23471437.1654   23471438.0754
    535081.10544    416946.97744  20503887.4824   20503887.6074
   1599795.83544   1246594.78744  24117778.0394   24117777.7474
 96  5  7  2  9 30.0000000  0  8G23G21G28G17G26G22G 6G16
  -1001102.92944   -780079.09644  21327789.5154   21327790.4964
  -1620557.19944  -1262766.84644  24487790.2414   24487793.4154
   -208706.900 4   -162628.886 4  24807746.592    24807754.791
   -466527.60044   -363527.76844  20927285.4674   20927286.1384
   -513946.55544   -400477.34544  22198685.9624   22198686.4704
   -422164.85844   -328959.85744  23467163.7474   23467163.9094
    572669.68644    446236.76044  20511040.4184   20511040.6074
   1700543.05144   1325099.06344  24136949.0334   24136952.1724
 96  5  7  2 10  0.0000000  0  8G23G21G28G17G26G22G 6G16
  -1056420.09344   -823183.35344  21317262.9814   21317264.1494
  -1714587.81644  -1336037.31344  24469898.0474   24469901.0574
   -313070.806 4   -243951.290 4  24787887.922    24787891.444
   -492216.07544   -383544.76144  20922397.0464   20922397.5644
   -539475.26944   -420369.77344  22193827.8254   22193828.1744
   -444109.32644   -346059.42844  23462987.7774   23462989.5154
    610712.39944    475880.41644  20518279.7414   20518279.7834
   1801354.66944   1403653.55744  24156133.6964   24156133.3184
 96  5  7  2 10 30.0000000  0  8G23G21G28G17G26G22G 6G16
  -1111337.16944   -865975.85544  21306812.5534   21306813.2854
  -1808482.85044  -1409202.11144  24452031.3304   24452032.8044
   -417430.978 4   -325270.845 4  24768030.201    24768031.679
   -517722.23544   -403419.69044  20917543.3824   20917543.9684
   -564515.09444   -439881.31644  22189062.5294   22189063.0344
   -465532.25344   -362752.64844  23458911.0354   23458911.3364
    649231.07544    505894.95244  20525609.6194   20525609.5274
   1902247.38044   1482271.19744  24175332.4384   24175333.3444
 96  5  7  2 11  0.0000000  0  8G23G21G28G17G26G22G 6G16
  -1165848.48344   -908452.17744  21296439.3794   21296440.0034
  -1902235.30944  -1482255.81744  24434191.5754   24434193.9514
   -521785.619 4   -406586.003 4  24748173.293    24748172.897
   -543037.71744   -423146.03544  20912726.1364   20912726.6954
   -589044.82144   -458995.37944  22184394.4764   22184394.7174
   -486449.29644   -379051.64844  23454930.5454   23454930.4994
    688226.93944    536281.32044  20533030.1124   20533030.0444
   2003205.05844   1560939.48544  24194543.9034   24194546.3054
 96  5  7  2 11 30.0000000  0  8G23G21G28G17G26G22G 6G16
  -1219950.34644   -950609.45144  21286144.3704   21286145.0004
  -1995847.77944  -1555200.46444  24416377.5924   24416378.4014
   -626133.331 4   -487895.820 4  24728315.545    24728315.587
   -568172.94244   -442731.92144  20907943.0364   20907943.6484
   -613048.23844   -477699.33244  22179827.1854   22179827.2784
   -506860.01144   -394956.14344  23451046.3234   23451046.9664
    727706.55744    567044.63944  20540543.0224   20540542.9324
   2104225.37444   1639656.58544  24213766.8204   24213768.7474
 96  5  7  2 12  0.0000000  0  8G23G21G28G17G26G22G 6G16
  -1273639.65744   -992445.25744  21275927.4584   21275928.0774
  -2089304.51144  -1628023.75144  24398593.1654   24398592.5894
   -730458.110 4   -569187.787 4  24708461.015    24708462.945
   -593116.63644   -462168.56144  20903196.4334   20903196.7464
   -636504.04544   -495976.56544  22175363.9484   22175363.8764
   -526745.34444   -410451.22144  23447262.5714   23447263.2254
    767689.95444    598200.51844  20548151.3594   20548151.3654
   2205334.66544   1718442.98444  24233007.3234   24233010.2664
 96  5  7  2 12 30.0000000  0  8G23G21G28G17G26G22G 6G16
  -1326929.85744  -1033970.07144  21265786.5554   21265787.1184
  -2182610.28044  -1700729.39944  24380836.7404   24380837.9194
   -834774.040 4   -650472.981 4  24688608.798    24688609.595
   -617868.84344   -481455.99344  20898486.3124   20898486.2534
   -659401.87844   -513819.01044  22171006.5854   22171006.2314
   -546114.24644   -425543.88444  23443576.4164   23443577.6494
    808171.39844    629744.48344  20555854.8034   20555854.8704
   2306510.42844   1797281.19844  24252261.0764   24252262.8504
 96  5  7  2 13  0.0000000  0  8G23G21G28G17G26G22G 6G16
  -1379815.02644  -1075179.27044  21255722.6664   21255723.2584
  -2275788.24544  -1773335.46644  24363104.9944   24363106.1284
   -939086.933 4   -731755.723 4  24668757.337    24668757.024
   -642439.92944   -500602.28844  20893810.4644   20893810.7974
   -681733.05844   -531219.91544  22166757.1354   22166757.4774
   -564975.62044   -440241.06444  23439987.2624   23439989.4264
    849147.52944    661673.92044  20563652.3124   20563652.3874
   2407746.54344   1876166.44544  24271525.6884   24271525.8854
 96  5  7  2 13 30.0000000  0  7G23G21G26G17G22G 6G16
  -1432274.32844  -1116056.62744  21245740.2734   21245740.8674
  -2368806.60444  -1845817.20644  24345402.6004   24345405.7714
   -703487.41544   -548171.34244  22162617.3714   22162616.9464
   -666822.36044   -519601.57944  20889170.6054   20889171.1184
   -583304.51144   -454523.33544  23436498.7324   23436499.4574
    890639.29744    694005.15244  20571547.9854   20571548.0864
   2509069.33844   1955119.24244  24290807.1364   24290810.2824
 96  5  7  2 14  0.0000000  0  7G23G21G17G26G22G 6G16
  -1484336.41044  -1156624.45944  21235832.7914   21235833.5214
  -2461660.85644  -1918170.98944  24327732.9994   24327735.9844
   -691028.96444   -538463.87044  20884564.2634   20884564.8554
   -724687.52244   -564690.88244  22158582.2924   22158582.0334
   -601134.60244   -468416.93444  23433106.5594   23433107.7744
    932625.29544    726721.49344  20579537.7134   20579537.9584
   2610455.65044   2034121.53944  24310100.0774   24310103.5714
 96  5  7  2 14 30.0000000  0  8G23G21G28G17G26G22G 6G16
  -1536011.48344  -1196890.72444  21225999.6984   21226000.4144
  -2554348.27544  -1990394.83244  24310094.7104   24310099.3404
         0.37114         0.02614  24609225.412    24609223.385
   -715065.04844   -557193.28844  20879990.3424   20879990.9484
   -745345.35344   -580787.86944  22154651.6884   22154652.0474
   -618490.05144   -481940.68644  23429804.2924   23429807.2774
    975082.83944    759805.27844  20587617.3274   20587617.2824
   2711883.19244   2113155.96444  24329400.8734   24329404.7114
 96  5  7  2 15  0.0000000  0  8G23G21G28G17G26G22G 6G16
  -1587269.42744  -1236831.95744  21216245.6094   21216246.1944
  -2646832.17944  -2062460.08744  24292494.9844   24292501.1404
   -104230.472 4    -81218.845 4  24589390.104    24589391.004
   -738898.38244   -575764.71744  20875454.7474   20875455.7884
   -765432.46544   -596440.13444  22150829.4844   22150829.3174
   -635342.86644   -495072.77444  23426597.1644   23426598.9494
   1018034.72244    793274.25744  20595790.6924   20595790.6384
   2813381.57144   2192245.57644  24348714.0904   24348717.1954
 96  5  7  2 15 30.0000000  0  8G23G21G28G17G26G22G 6G16
  -1638146.75444  -1276476.60344  21206563.7394   21206564.5784
  -2739116.86144  -2134370.07944  24274933.9304   24274939.2164
   -208436.205 4   -162418.024 4  24569560.664    24569561.787
   -762544.18644   -594190.01444  20870955.1684   20870955.7874
   -784980.01944   -611671.97844  22147109.6534   22147109.7134
   -651706.96144   -507824.05444  23423483.5404   23423484.4634
   1061453.25044    827106.86044  20604052.9124   20604052.7554
   2914908.93144   2271357.78444  24368035.5824   24368036.2204
 96  5  7  2 16  0.0000000  0  8G23G21G28G17G26G22G 6G16
  -1688655.22244  -1315833.82544  21196952.4064   21196953.2374
  -2831223.46044  -2206141.34544  24257407.4474   24257412.1254
   -312619.207 4   -243599.485 4  24549734.996    24549735.211
   -785991.03744   -612460.28344  20866493.5794   20866494.2454
   -803991.57844   -626486.16144  22143491.9754   22143491.5514
   -667581.90544   -520194.16344  23420462.0744   23420463.2284
   1105324.29744    861292.07144  20612401.3804   20612401.3514
   3016457.24244   2350486.31244  24387358.8124   24387361.9024
 96  5  7  2 16 30.0000000  0  8G23G21G28G17G26G22G 6G16
  -1738797.17644  -1354905.45544  21187410.6004   21187411.6144
  -2923196.92744  -2277808.88244  24239905.6754   24239908.8584
   -416797.639 4   -324777.487 4  24529910.847    24529911.901
   -809259.50944   -630591.56144  20862065.6974   20862066.1214
   -822485.47944   -640896.97444  22139972.5624   22139972.9204
   -682956.47044   -532174.38644  23417536.7244   23417536.3294
   1149624.66544    895811.81744  20620831.4464   20620831.4564
   3118004.62444   2429614.13044  24406683.4664   24406686.5784
 96  5  7  2 17  0.0000000  0  8G23G26G21G28G17G22G 6G16
  -1788551.46644  -1393675.00844  21177942.6944   21177943.4654
   -840451.43944   -654896.40444  22136553.5404   22136553.5494
  -3015037.52744  -2349372.85444  24222429.1104   24222431.3274
   -520960.182 4   -405943.082 4  24510090.718    24510091.261
   -832356.29844   -648589.05144  20857670.4364   20857671.4144
   -697798.86544   -543739.90544  23414711.9684   23414713.7094
   1194375.89544    930682.88744  20629347.4344   20629347.8384
   3219562.84644   2508750.42144  24426009.6274   24426010.8094
 96  5  7  2 17 30.0000000  0  8G23G21G28G17G26G22G 6G16
  -1837902.20144  -1432130.10844  21168551.5334   21168552.5184
  -3106730.86144  -2420822.10444  24204981.5974   24204984.9384
   -625092.319 4   -487084.964 4  24490275.329    24490275.247
   -855282.72144   -666453.79344  20853307.7494   20853308.5004
   -857873.89244   -668472.31644  22133238.2574   22133238.6804
   -712078.32744   -554866.79344  23411995.3484   23411997.3584
   1239612.13144    965931.87944  20637955.5114   20637955.6134
   3321153.63144   2587912.06544  24445342.3904   24445344.9884
 96  5  7  2 18  0.0000000  0  8G23G26G21G28G17G22G 6G16
  -1886839.63144  -1470263.14444  21159239.0264   21159240.0144
   -874751.77244   -681623.89644  22130026.7414   22130026.6844
  -3198283.58744  -2492161.80744  24187559.2994   24187562.4894
   -729185.716 4   -568196.630 4  24470466.731    24470467.790
   -878026.48444   -684176.20744  20848979.7994   20848980.6234
   -725780.96644   -565544.19544  23409388.1344   23409388.7644
   1285352.72444   1001573.88044  20646659.6544   20646659.7664
   3422798.10844   2667115.50844  24464683.5924   24464684.1734
 96  5  7  2 18 30.0000000  0  8G23G26G21G28G17G22G 6G16
  -1935372.02744  -1508080.58144  21150003.5474   21150004.4614
   -891101.74044   -694364.10744  22126915.6624   22126916.0924
  -3289694.30544  -2563390.83344  24170164.0504   24170167.2274
   -833244.879 4   -649281.717 4  24450665.486    24450665.696
   -900601.48644   -701767.11744  20844683.6444   20844684.4954
   -738918.20144   -575781.02844  23406888.2644   23406888.7914
   1331605.47244   1037614.96244  20655461.4184   20655461.5114
   3524483.29844   2746350.70544  24484033.8014   24484037.1064
 96  5  7  2 19  0.0000000  0  8G23G26G21G28G17G22G 6G16
  -1983529.40144  -1545605.78644  21140839.4794   21140840.4204
   -906921.78544   -706691.39744  22123904.7584   22123905.5154
  -3380958.14844  -2634505.40544  24152797.6574   24152799.0974
   -937274.786 4   -730343.954 4  24430869.871    24430867.834
   -923007.47644   -719226.32744  20840419.6874   20840420.7454
   -751521.36044   -585601.70244  23404490.6124   23404490.2894
   1378367.44544   1074052.84644  20664359.5334   20664359.8914
   3626207.42344   2825616.20744  24503390.5494   24503394.1324
 96  5  7  2 19 30.0000000  0  8G23G26G21G28G17G22G 6G16
  -2031305.98744  -1582834.27744  21131747.9684   21131749.0604
   -922181.73544   -718582.24044  22121001.1884   22121000.7334
  -3472059.42044  -2705493.30944  24135460.7424   24135464.3744
  -1041252.351 4   -811365.423 4  24411082.939    24411081.380
   -945194.93444   -736515.24644  20836197.7424   20836198.4724
   -763588.92744   -595005.03644  23402193.7384   23402195.5314
   1425644.23544   1110891.88644  20673356.1724   20673356.5194
   3727994.73144   2904930.98944  24522761.0104   24522764.4604
 96  5  7  2 20  0.0000000  0  8G23G26G21G28G17G22G 6G16
  -2078677.88944  -1619747.43044  21122733.3364   21122734.3884
   -936864.41444   -730023.27544  22118206.7694   22118206.6654
  -3562987.17844  -2776346.01644  24118156.9074   24118161.1364
  -1145161.370 4   -892333.477 4  24391309.766    24391308.551
   -967134.06944   -753610.66444  20832023.0804   20832023.4134
   -775130.97744   -603998.85644  23399996.8804   23399998.2254
   1473414.26644   1148115.26944  20682446.5834   20682446.9654
   3829855.37144   2984302.91344  24542144.8414   24542149.3634
 96  5  7  2 20 30.0000000  0  8G23G26G21G28G17G22G 6G16
  -2125642.59244  -1656343.28244  21113796.2744   21113797.2324
   -950951.70244   -741000.36244  22115526.4334   22115525.9644
  -3653746.09844  -2847067.13544  24100885.6684   24100890.2604
  -1249012.043 4   -973256.082 4  24371547.463    24371546.742
   -988846.48344   -770529.42444  20827891.5494   20827891.8264
   -786184.80444   -612612.26044  23397894.3014   23397894.5934
   1521641.82344   1185695.16444  20691623.9204   20691624.1974
   3931775.56544   3063721.20344  24561539.6054   24561542.7974
 96  5  7  2 21  0.0000000  0  8G23G26G21G28G17G22G 6G16
  -2172198.11744  -1692620.29844  21104936.9944   21104937.8874
   -964441.44544   -751511.82044  22112959.3124   22112959.2894
  -3744357.89944  -2917673.60444  24083640.5894   24083644.2004
  -1352819.017 4  -1054144.581 4  24351793.672    24351792.019
  -1010345.63244   -787281.99844  20823800.2764   20823800.7694
   -796772.59844   -620862.52844  23395878.4084   23395879.9314
   1570308.75844   1223617.43744  20700885.1324   20700885.4214
   4033743.81044   3143176.93144  24580942.8834   24580947.0794
 96  5  7  2 21 30.0000000  0  8G23G26G21G28G17G22G 6G16
  -2218299.51544  -1728543.44644  21096164.3054   21096164.8964
   -977329.51044   -761554.43644  22110506.6224   22110507.0384
  -3834792.08544  -2988141.68744  24066432.3724   24066435.8974
  -1456561.527 4  -1134982.851 4  24332051.922    24332050.491
  -1031619.25644   -803858.83844  20819752.1164   20819752.5584
   -806873.01744   -628733.01444  23393956.0334   23393958.4234
   1619429.88144   1261893.61944  20710232.8154   20710233.1384
   4135776.43644   3222682.88544  24600358.8274   24600360.3344
 96  5  7  2 22  0.0000000  0  8G23G26G21G28G17G22G 6G16
  -2263941.67144  -1764108.74444  21087478.7504   21087479.2974
   -989637.06944   -771144.72144  22108164.6474   22108165.0954
  -3925038.35944  -3058463.32444  24049258.8974   24049261.7964
  -1560252.354 4  -1215780.874 4  24312318.964    24312319.285
  -1052700.36044   -820285.66544  20815740.4694   20815741.0384
   -816491.73544   -636228.13444  23392125.9344   23392128.5734
   1669014.26144   1300530.78144  20719667.8124   20719667.9344
   4237843.31044   3302215.57144  24619781.3004   24619783.2874
 96  5  7  2 22 30.0000000  0  8G23G26G21G28G17G22G 6G16
  -2309125.93244  -1799317.24044  21078880.4104   21078880.9474
  -1001362.93044   -780281.75144  22105932.7254   22105932.8114
  -4015084.85844  -3128629.29644  24032124.6664   24032127.8244
  -1663881.647 4  -1296530.958 4  24292598.653    24292599.496
  -1073588.90244   -836562.44244  20811765.3504   20811765.9144
   -825609.74844   -643333.11044  23390390.4494   23390392.3244
   1719108.59144   1339565.30544  20729200.5254   20729201.0094
   4339938.47044   3381770.23744  24639210.5764   24639212.9074
 96  5  7  2 23  0.0000000  0  8G23G26G21G28G17G22G 6G16
  -2353869.98344  -1834182.71644  21070365.7114   21070366.3694
  -1012546.52244   -788996.21544  22103805.0834   22103804.7634
  -4104930.04044  -3198638.43844  24015027.9574   24015030.4654
  -1767453.846 4  -1377236.512 4  24272889.002    24272891.036
  -1094302.29044   -852702.72944  20807823.9764   20807824.4184
   -834228.79544   -650049.28044  23388751.1004   23388752.2474
   1769718.91244   1379001.89944  20738831.5184   20738831.6734
   4442041.75444   3461331.16644  24658640.8774   24658644.0644
 96  5  7  2 23 30.0000000  0  8G23G26G21G28G17G22G 6G16
  -2398190.98944  -1868718.54544  21061932.0494   21061932.7894
  -1023207.25544   -797303.25944  22101776.1424   22101776.3744
  -4194573.99244  -3268490.77644  23997969.2434   23997971.5404
  -1870976.583 4  -1457903.591 4  24253189.132    24253190.732
  -1114861.78444   -868723.09644  20803911.6484   20803911.9744
   -842354.04044   -656380.66844  23387204.9784   23387206.6374
   1820823.75044   1418823.83444  20748556.5264   20748556.5734
   4544135.62544   3540884.77244  24678069.5534
 96  5  7  2 24  0.0000000  0  8G23G26G21G28G17G22G 6G16
  -2442093.30444  -1902928.12444  21053577.6094   21053578.3034
  -1033327.66844   -805189.27144  22099850.7564   22099850.6004
  -4284024.37944  -3338192.25444  23980946.7394   23980949.9364
  -1974441.636 4  -1538525.699 4  24233502.056    24233501.876
  -1135258.73744   -884616.81044  20800030.1324   20800030.5084
   -849975.01044   -662319.09244  23385755.2224   23385756.2604
   1872427.49444   1459034.52644  20758376.4504   20758376.5364
   4646224.50244   3620434.55344  24697495.8974   24697498.3664
 96  5  7  2 24 30.0000000  0  8G23G21G28G17G26G22G 6G16
  -2485590.37744  -1936821.92944  21045300.2514   21045301.2104
  -4373287.93944  -3407748.17144  23963960.5304   23963964.5134
  -2077843.819 4  -1619098.756 4  24213825.268    24213823.871
  -1155482.67444   -900375.70544  20796181.5234   20796181.9564
  -1042901.47844   -812649.36444  22098029.0014   22098029.3864
   -857086.00344   -667860.15444  23384401.5454   23384402.5154
   1924507.31344   1499616.18444  20768287.0554   20768287.1894
   4748319.95244   3699989.38844  24716924.0454   24716924.0134
 96  5  7  2 25  0.0000000  0  8G23G26G21G28G17G22G 6G16
  -2528679.16044  -1970397.58744  21037100.7314   21037101.5424
  -1051917.26444   -819674.63244  22096312.4534   22096312.8634
  -4462360.32044  -3477155.07644  23947010.2944   23947014.6734
  -2181180.130 4  -1699620.568 4  24194160.393    24194159.118
  -1175521.47544   -915990.34444  20792368.0104   20792368.5574
   -863673.47344   -672993.26844  23383146.9324   23383148.3214
   1977039.64944   1540550.44944  20778283.3134   20778283.8224
   4850430.29944   3779555.88144  24736355.3464   24736355.7394
 96  5  7  2 25 30.0000000  0  8G23G26G21G28G17G22G 6G16
  -2571361.14344  -2003656.25844  21028978.4804   21028979.1404
  -1060351.14744   -826246.46644  22094707.6724   22094708.0914
  -4551243.31444  -3546414.46244  23930097.6564   23930100.7354
  -2284446.958 4  -1780088.193 4  24174510.301    24174508.550
  -1195347.90344   -931439.50144  20788595.2434   20788595.7924
   -869707.02044   -677694.74544  23381998.8334   23382001.5394
   2030022.21544   1581835.54744  20788365.6794   20788365.9004
   4952559.13344   3859136.76744  24755787.8764   24755789.4864
 96  5  7  2 26  0.0000000  0  8G23G26G21G28G17G22G 6G16
  -2613666.45944  -2036621.42244  21020928.0904   21020928.8084
  -1068211.76544   -832371.59444  22093212.3674   22093211.8994
  -4639954.36244  -3615539.86444  23913217.0894   23913218.9624
  -2387657.452 4  -1860511.925 4  24154869.526    24154868.228
  -1214966.46644   -946726.68444  20784862.0354   20784862.6474
   -875195.61044   -681971.58244  23380954.7294   23380955.4844
   2083451.43244   1623468.68644  20798532.8084   20798533.2484
   5054687.53244   3938717.31944  24775220.5834   24775223.4524
 96  5  7  2 26 30.0000000  0  8G23G26G21G28G17G22G 6G16
  -2655589.60644  -2069288.79244  21012950.2204   21012950.8464
  -1075489.69644   -838042.69944  22091827.0264   22091827.0774
  -4728483.60544  -3684523.58444  23896370.6084   23896372.2574
  -2490797.826 4  -1940881.001 4  24135243.317    24135241.763
  -1234372.43244   -961848.20044  20781169.2544   20781169.5934
   -880135.11944   -685820.58644  23380015.0204   23380016.1974
   2137346.59744   1665464.89844  20808788.9744   20808789.2904
   5156822.39944   4018302.83444  24794656.6484   24794659.4574
 96  5  7  2 27  0.0000000  0  8G23G26G21G28G17G22G 6G16
  -2697119.75444  -2101649.92844  21005047.2204   21005047.9984
  -1082176.83244   -843253.43844  22090554.7364   22090554.7994
  -4816828.03844  -3753363.31244  23879559.2544   23879561.0894
  -2593857.626 4  -2021187.302 4  24115631.475    24115630.870
  -1253564.81344   -976803.29244  20777517.2514   20777517.6594
   -884529.74944   -689244.98544  23379179.1614   23379180.1304
   2191728.57044   1707840.44344  20819137.4814   20819137.8544
   5258971.21344   4097899.32644  24814095.3314
 96  5  7  2 27 30.0000000  0  8G23G26G21G28G17G22G 6G16
  -2738272.12944  -2133716.69744  20997216.2774   20997217.2314
  -1088294.22844   -848020.22244  22089389.7814   22089389.2374
  -4905005.54944  -3822072.99544  23862778.6244   23862781.8224
  -2696846.555 4  -2101438.408 4  24096032.723    24096032.324
  -1272566.73344   -991609.97644  20773901.1024   20773901.6354
   -888420.63844   -692276.85544  23378438.2464   23378440.9894
   2246588.88944   1750588.72144  20829577.1314   20829577.3934
   5361126.90944   4177501.21944  24833535.3224   24833535.1284
 96  5  7  2 28  0.0000000  0  8G23G26G21G28G17G22G 6G16
  -2779038.44644  -2165482.64044  20989458.7624   20989459.3594
  -1093842.01844   -852343.15144  22088335.0494   22088334.5444
  -4993011.17944  -3890648.70844  23846031.7364   23846033.6814
  -2799752.957 4  -2181625.194 4  24076449.549    24076449.956
  -1291384.39144  -1006273.07244  20770320.1734   20770320.5614
   -891829.17844   -694932.88344  23377789.4374   23377791.4094
   2301943.30044   1793722.01044  20840110.7134   20840111.1984
   5463298.07244   4257115.00444  24852978.7424
 96  5  7  2 28 30.0000000  0  8G26G21G23G28G17G22G 6G16
  -1098830.61844   -856230.35244  22087385.3784   22087385.1294
  -5080838.50344  -3959085.50544  23829319.6614   23829321.5754
  -2819390.61544  -2196925.87344  20981780.1394   20981780.7164
  -2902569.749 4  -2261742.146 4  24056884.385    24056884.618
  -1310006.23144  -1020783.58744  20766776.6894   20766777.0344
   -894761.52444   -697217.84944  23377231.9204   23377232.4104
   2357787.41144   1837236.88244  20850737.1624   20850737.1154
   5565476.35744   4336734.38744  24872423.5664
 96  5  7  2 29  0.0000000  0  8G26G21G23G28G17G22G 6G16
  -1103262.17044   -859683.48244  22086541.9784   22086541.5734
  -5168481.35844  -4027378.55144  23812640.8414   23812643.1344
  -2859326.59744  -2228044.80644  20974180.5154   20974181.1104
  -3005298.232 4  -2341790.261 4  24037336.032    24037335.902
  -1328428.80644  -1035138.83744  20763271.1184   20763271.4144
   -897210.52044   -699126.19344  23376766.0474   23376765.5664
   2414105.41144   1881121.02044  20861454.4094   20861454.5214
   5667650.86644   4416350.96744  24891864.8394
 96  5  7  2 29 30.0000000  0  8G26G21G23G28G17G22G 6G16
  -1107133.66944   -862700.21744  22085805.3504   22085805.4754
  -5255935.79344  -4095524.80044  23795997.0954   23796000.7684
  -2898840.10344  -2258834.53844  20966661.4164   20966661.9784
  -3107939.179 4  -2421770.155 4  24017803.588    24017803.531
  -1346651.34844  -1049338.21644  20759803.4434   20759803.8534
   -899160.87844   -700645.96344  23376395.2274   23376395.8644
   2470893.98244   1925371.83344  20872260.9994   20872261.1194
   5769816.58944                  24911307.9324
 96  5  7  2 30  0.0000000  0  8G26G21G23G28G17G22G 6G16
  -1110435.13344   -865272.76744  22085176.8584   22085177.0524
  -5343191.45344  -4163516.12444  23779391.4744   23779398.1644
  -2937922.07444  -2289288.00644  20959224.4774   20959224.9144
  -3210491.565 4  -2501681.069 4  23998288.621    23998288.120
  -1364679.00144  -1063385.73344  20756372.5854   20756373.0084
   -900585.02944   -701755.71044  23376124.0024   23376124.0114
   2528150.03044   1969986.91644  20883156.3584   20883156.0724
   5871960.06544                  24930744.5864
 96  5  7  2 30 30.0000000  0  8G26G21G23G28G17G22G 6G16
  -1113147.21844   -867386.06844  22084660.9034   22084660.3224
  -5430230.76044  -4231338.86544  23762827.9804   23762833.8834
  -2976556.96344  -2319393.10044  20951872.2824   20951873.0414
  -3312942.427 4  -2581512.897 4  23978792.109    23978791.762
  -1382506.95244  -1077277.64044  20752979.9764   20752980.3984
   -901467.23244   -702443.15644  23375956.7804   23375956.4994
   2585864.51244   2014959.21544  20894139.2084   20894139.3754
   5974100.81644   4655143.12144  24950181.5274
 96  5  7  2 31  0.0000000  0  8G26G21G23G28G17G22G 6G16
  -1115240.54244   -869017.21344  22084262.2994   22084262.6254
  -5517040.49944  -4298982.76444  23746309.9204   23746313.1424
  -3014764.31644  -2349165.04244  20944601.7304   20944602.2964
  -3415287.330 4  -2661262.161 4  23959317.161    23959316.467
  -1400154.45944  -1091028.94144  20749621.6224   20749622.0624
   -901800.35244   -702702.74744  23375893.0924   23375893.6114
   2644046.43644   2060295.75944  20905210.9434   20905211.0194
   6076274.95944   4734759.34444  24969624.9284
 96  5  7  2 31 30.0000000  0  7G26G21G28G22G23G17G 6
  -1116733.03544   -870180.17944  22083978.7724   22083978.3194
  -5603636.97244  -4366460.47544  23729832.5404   23729834.4394
  -3517544.269 4  -2740942.857 4  23939858.647    23939858.087
   -901621.62844   -702563.49244  23375926.6524   23375927.5304
  -3052560.99744  -2378616.98644  20937409.0834   20937409.7034
  -1417641.07544  -1104654.87444  20746294.0444   20746294.5684
   2702672.56944   2105978.43744  20916367.0004   20916366.9074
 96  5  7  2 32  0.0000000  0  7G26G21G23G28G17G22G 6
  -1117623.78444   -870874.24644  22083808.9244   22083808.9414
  -5690019.66744  -4433771.59444  23713394.0014   23713397.1344
  -3089954.82444  -2407755.01644  20930293.4084   20930293.9334
  -3619708.417 4  -2820551.236 4  23920417.552    23920416.927
  -1434959.14844  -1118149.47244  20742998.7364   20742999.2754
   -900953.47244   -702042.88244  23376053.9004   23376054.1984
   2761728.92544   2151996.35644  20927605.1714   20927605.1864
 96  5  7  2 32 30.0000000  0  8G26G21G23G28G17G22G 6G20
  -1117921.42344   -871106.15644  22083752.2704   22083751.7884
  -5776202.10744  -4500926.68444  23696993.7584   23696996.4424
  -3126959.45144  -2436589.77244  20923251.7084   20923252.2384
  -3721784.545 4  -2900091.061 4  23900993.508    23900992.665
  -1452103.47744  -1131508.68944  20739736.3454   20739736.7824
   -899819.15344   -701159.02944  23376269.2264   23376269.5174
   2821209.90644   2198345.15144  20938923.8384   20938924.0674
        -0.88954                  25252053.1094
 96  5  7  2 33  0.0000000  0  8G26G21G23G28G17G22G 6G20
  -1117649.31744   -870894.10444  22083804.0564   22083803.7664
  -5862208.85844  -4567944.87144  23680627.6044   23680629.3214
  -3163585.29444  -2465129.37244  20916282.0604   20916282.5574
  -3823784.963 4  -2979571.888 4  23881582.926    23881582.602
  -1469069.17644  -1144728.72344  20736507.7484   20736507.9834
   -898231.00244   -699921.52244  23376571.5864   23376573.7224
   2881113.85044   2245023.52844  20950323.1124   20950323.3174
     97928.86744                  25270689.2394
 96  5  7  2 33 30.0000000  0  8G26G21G23G28G17G22G 6G20
  -1116818.19844   -870246.46344  22083962.4454   22083962.1474
  -5948052.94744  -4634836.30944  23664292.9064   23664293.4724
  -3199818.92744  -2493363.35144  20909387.0374   20909387.5094
  -3925701.513 4  -3058987.380 4  23862189.332    23862188.611
  -1485828.38844  -1157787.85144  20733318.5394   20733318.8974
   -896181.10044   -698324.21344  23376962.1274   23376964.1414
   2941440.42644   2292031.22944  20961803.0334   20961803.2074
    195681.17244                  25289291.5874
 96  5  7  2 34  0.0000000  0  7G26G21G28G22G23G17G 6
  -1115435.23044   -869168.80844  22084225.4204   22084224.9104
  -6033732.07844  -4701599.22144  23647989.5674   23647989.1274
  -4027528.821 4  -3138333.309 4  23842812.285    23842811.478
   -893649.65244   -696351.68944  23377443.3854   23377445.6204
  -3235664.31744  -2521294.80444  20902565.9474   20902566.4394
  -1502389.15744  -1170692.34944  20730167.2434   20730167.8164
   3002210.46644   2339384.48044  20973367.1624   20973367.4884
 96  5  7  2 34 30.0000000  0  7G 6G26G21G23G28G17G22
   3063462.06244   2387112.97344  20985023.1134   20985023.2744
  -1113489.63544   -867652.74644  22084595.6954   22084595.4604
  -6119222.29244  -4768214.92844  23631721.2074   23631720.8294
  -3271102.15044  -2548908.68144  20895822.2724   20895822.7794
  -4129250.369 4  -3217596.830 4  23823455.005    23823454.068
  -1518740.63644  -1183433.76744  20727055.4134   20727055.9674
   -890603.53644   -693978.12644  23378023.5254   23378024.7534
 96  5  7  2 35  0.0000000  0  8G 6G26G21G23G28G17G22G16
   3125216.72444   2435233.46944  20996774.5984   20996774.9644
  -1110972.48344   -865691.30744  22085074.9234   22085074.3254
  -6204501.20644  -4834665.95744  23615493.0224   23615494.1324
  -3306125.41944  -2576199.51944  20889157.3014   20889157.9184
  -4230847.862 4  -3296763.714 4  23804121.101    23804120.876
  -1534871.39644  -1196003.19544  20723985.8224   20723986.5654
   -887022.06944   -691187.39644  23378705.4904   23378706.8604
        -1.11954                  25125063.3374
 96  5  7  2 35 30.0000000  0  8G 6G26G21G23G28G17G22G16
   3187456.51544   2483731.98544  21008618.3134   21008618.7834
  -1107891.89644   -863290.84244  22085660.6294   22085660.7904
  -6289560.04044  -4900945.51444  23599305.9074   23599306.5534
  -3340748.79944  -2603178.75844  20882568.8524   20882569.4414
  -4332326.850 4  -3375838.221 4  23784810.167    23784809.766
  -1550803.02944  -1208417.46144  20720954.1774   20720954.6164
   -882912.82344   -687985.40044  23379486.6154   23379487.1154
    101911.88644                  25144456.3404
 96  5  7  2 36  0.0000000  0  7G 6G26G21G28G22G23G17
   3250178.85644   2532606.51044  21020553.9834   21020554.5394
  -1104251.76444   -860454.36244  22086353.4964   22086353.8254
  -6374386.43244  -4967043.91944  23583163.2034   23583166.4044
  -4433690.214 4  -3454822.657 4  23765521.364    23765520.473
   -878278.89944   -684374.58044  23380368.2344   23380369.1484
  -3374967.07444  -2629842.33144  20876057.0784   20876057.7064
  -1566551.19644  -1220688.76644  20717957.5404   20717957.8814
 96  5  7  2 36 30.0000000  0  7G 6G26G21G28G22G23G17
   3313371.69344   2581847.66144  21032579.3304   21032579.6674
  -1100044.65244   -857176.08144  22087154.1774   22087153.6974
  -6458987.62344  -5032966.86444  23567063.9954   23567066.2374
  -4534934.172 4  -3533714.028 4  23746255.205    23746254.900
   -873131.31044   -680363.51044  23381347.7924   23381350.4824
  -3408776.26344  -2656187.13844  20869623.7174   20869624.1254
  -1582108.81944  -1232811.59344  20714996.8504   20714997.2684
 96  5  7  2 37  0.0000000  0  7G26G21G28G22G23G17G 6
  -1095269.88144   -853455.46644  22088062.8664   22088062.5194
  -6543357.72544  -5098709.72444  23551007.9234   23551010.2404
  -4636047.676 4  -3612503.770 4  23727013.939    23727014.076
   -867478.69644   -675958.90844  23382422.8754   23382427.2794
  -3442166.22744  -2682205.27444  20863269.7184   20863270.1024
  -1597468.99644  -1244780.56844  20712074.3534   20712074.4164
   3377018.69244   2631442.70344  21044690.8654   21044691.1634
 96  5  7  2 37 30.0000000  0  7G26G 6G21G28G22G23G17
  -1089926.84044   -849292.04344  22089079.8844   22089079.4414
   3441107.14544   2681381.73544  21056886.5914   21056886.9204
  -6627510.82944  -5164283.51244  23534995.0264   23534996.6344
  -4737038.344 4  -3691197.785 4  23707796.069    23707796.160
   -861332.93644   -671170.04544  23383593.1384   23383596.8654
  -3475130.80144  -2707891.93744  20856996.5024   20856997.0284
  -1612644.70644  -1256605.80344  20709186.3734   20709186.6214
 96  5  7  2 38  0.0000000  0  7G26G 6G21G28G22G23G17
  -1084023.07444   -844691.68844  22090202.8704   22090202.4534
   3505633.82844   2731662.24344  21069165.2094   21069165.6014
  -6711473.79244  -5229709.13044  23519017.8604   23519019.2224
  -4837915.674 4  -3769803.471 4  23688600.608    23688600.214
   -854711.97144   -666010.87444  23384853.0704   23384856.5464
  -3507684.67244  -2733258.56744  20850801.5954   20850802.2504
  -1627644.12544  -1268293.66544  20706331.9604   20706332.4894
 96  5  7  2 38 30.0000000  0  7G26G 6G21G28G22G23G17
  -1077537.07044   -839637.64344  22091436.7954   22091436.6174
   3570605.34344   2782289.37244  21081529.0454   21081529.4664
  -6795240.08444  -5294981.49044  23503076.8504   23503079.3344
  -4938663.619 4  -3848308.334 4  23669428.787    23669428.929
   -847605.85844   -660473.68644  23386205.3124   23386208.0794
  -3539830.07844  -2758306.91944  20844684.8194   20844685.4244
  -1642442.56244  -1279824.92344  20703516.0144   20703516.5044
 96  5  7  2 39  0.0000000  0  7G26G 6G21G28G22G23G17
  -1070443.58744   -834110.23744  22092787.4684   22092786.6924
   3636032.02844   2833271.18044  21093979.3874   21093979.8564
  -6878810.72044  -5360101.37844  23487173.8064   23487177.0924
  -5039275.114 4  -3926706.870 4  23650283.652    23650282.754
   -839999.41644   -654546.62344  23387652.9744   23387656.1994
  -3571557.10944  -2783029.26144  20838647.4084   20838647.7654
  -1657020.27544  -1291184.18644  20700742.0004   20700742.4734
 96  5  7  2 39 30.0000000  0  7G26G 6G21G28G22G23G17
  -1062722.92844   -828094.12544  22094255.8554   22094255.4824
   3701934.26144   2884623.54744  21106520.3144   21106520.6934
  -6962197.36244  -5425077.91444  23471305.7264   23471308.9564
  -5139742.009 4  -4004992.737 4  23631165.649    23631164.156
   -831872.36244   -648213.89944  23389199.4434   23389201.7394
  -3602864.80844  -2807424.85444  20832689.6904   20832690.1284
  -1671371.75544  -1302367.16244  20698011.0594   20698011.3554
 96  5  7  2 40  0.0000000  0  7G26G 6G21G28G22G23G17
  -1054398.21244   -821607.32544  22095840.2144   22095839.5974
   3768291.38644   2936330.37844  21119147.9654   21119148.1364
  -7045412.67744  -5489920.93744  23455470.3474   23455473.5344
  -5240075.138 4  -4083174.389 4  23612072.030    23612070.928
   -823244.27744   -641490.75244  23390841.3534   23390844.6354
  -3633774.69244  -2831510.46044  20826807.7744   20826808.1544
  -1685511.85244  -1313385.42544  20695320.2754   20695320.6924
 96  5  7  2 40 30.0000000  0  7G26G 6G21G28G22G23G17
  -1045448.54544   -814633.55344  22097543.6484   22097543.5934
   3835106.66244   2988394.21244  21131862.2864   21131862.8144
  -7128434.70144  -5554613.34344  23439671.9904   23439675.4214
  -5340259.830 4  -4161240.385 4  23593007.083    23593006.742
   -814100.84044   -634366.01544  23392580.9494   23392583.5654
  -3664263.65644  -2855268.07844  20821005.8304   20821006.3944
  -1699436.50844  -1324235.81444  20692670.2574   20692670.5794
 96  5  7  2 41  0.0000000  0  7G26G21G28G22G23G17G 6
  -1035889.24844   -807184.73644  22099362.5864   22099362.7314
  -7211266.65444  -5619157.64844  23423910.2524   23423913.4264
  -5440295.841 4  -4239190.517 4  23573970.382    23573970.071
   -804462.64644   -626855.43244  23394415.6124   23394416.9334
  -3694322.20444  -2878690.30344  20815285.9834   20815286.2894
  -1713166.97044  -1334934.88244  20690057.5494   20690057.9914
   3902389.36744   3040822.27444  21144665.6144   21144665.6364
 96  5  7  2 41 30.0000000  0  7G26G21G28G22G 6G23G17
  -1025752.64644   -799286.06444  22101291.4834   22101291.0494
  -7293877.30044  -5683529.52644  23408189.5944   23408190.3064
  -5540181.822 4  -4317023.731 4  23554962.678    23554962.862
   -794333.39744   -618962.84944  23396342.9104   23396342.5104
   3970130.02144   3093607.17544  21157555.9564   21157556.4104
  -3723965.68844  -2901789.10544  20809645.0924   20809645.5734
  -1726723.77644  -1345498.62844  20687477.7934   20687478.3314
 96  5  7  2 42  0.0000000  0  7G26G21G28G22G23G17G 6
  -1015057.37144   -790952.08744  22103326.2934   22103325.9794
  -7376251.30144  -5747716.97244  23392512.7754   23392516.3194
  -5639931.119 4  -4394750.443 4  23535980.780    23535981.726
   -783740.45944   -610708.78444  23398358.5304   23398360.8874
  -3753207.48944  -2924574.90844  20804080.1484   20804080.5724
  -1740109.29544  -1355928.90744  20684930.4704   20684930.8634
   4038303.73044   3146729.53044  21170529.6374   21170529.7304
 96  5  7  2 42 30.0000000  0  7G26G21G28G22G 6G23G17
  -1003789.71244   -782172.07844  22105470.7894   22105470.6494
  -7458375.79144  -5811710.01244  23376885.9434   23376888.9754
  -5739537.975 4  -4472366.178 4  23517026.084    23517026.967
   -772682.38344   -602092.12744  23400462.8554   23400465.2284
   4106919.28444   3200196.17144  21183586.7304   21183586.8544
  -3782049.94844  -2947049.53644  20798591.6364   20798592.2614
  -1753301.60644  -1366208.63344  20682420.1084   20682420.5714
 96  5  7  2 43  0.0000000  0  7G26G21G28G22G 6G23G17
   -991985.67944   -772974.11244  22107716.7084   22107716.3844
  -7540264.76444  -5875519.53544  23361303.7764   23361305.2284
  -5839021.373 4  -4549885.678 4  23498095.921    23498095.279
   -761185.31644   -593133.39344  23402651.1984   23402654.4004
   4175955.38944   3253990.51444  21196723.6844   21196724.0034
  -3810526.63144  -2969239.14644  20793172.8304   20793173.0864
  -1766305.45644  -1376341.50644  20679945.5654   20679945.9924
 96  5  7  2 43 30.0000000  0  7G26G21G28G22G 6G23G17
   -979599.02844   -763322.17344  22110074.5024   22110074.3704
  -7621881.69844  -5939117.08244  23345772.9524   23345773.4204
  -5938346.347 4  -4627281.739 4  23479195.706    23479194.827
   -749204.19444   -583797.50344  23404931.5074   23404933.7894
   4245416.27044   3308115.85444  21209941.5524   21209942.0144
  -3838616.61844  -2991127.43044  20787827.5334   20787828.0794
  -1779075.31844  -1386292.05044  20677515.7944   20677516.1254
 96  5  7  2 44  0.0000000  0  7G26G21G28G22G 6G23G17
   -966615.42044   -753205.06944  22112544.7004   22112544.2604
  -7703257.74844  -6002526.93844  23330287.4924   23330287.9734
  -6037513.423 4  -4704554.769 4  23460324.516    23460324.166
   -736753.40644   -574095.61644  23407300.8374   23407303.7034
   4315300.95744   3362571.43344  21223240.2994   21223240.9074
  -3866311.21244  -3012707.61444  20782557.3084   20782557.7334
  -1791606.16844  -1396056.35044  20675131.1364   20675131.5474
 96  5  7  2 44 30.0000000  0  7G26G21G28G22G 6G23G17
   -953051.37644   -742635.67244  22115125.7234   22115125.3844
  -7784428.28244  -6065776.65044  23314840.2504   23314842.2234
  -6136529.204 4  -4781709.909 4  23441482.084    23441481.303
   -723838.52444   -564032.11244  23409759.1894   23409760.2604
   4385597.42144   3417347.87544  21236617.1034   21236617.4394
  -3893619.97844  -3033987.15944  20777360.5664   20777361.0704
  -1803927.37244  -1405657.28544  20672786.4364   20672786.9024
 96  5  7  2 45  0.0000000  0  7G21G28G26G22G 6G23G17
  -7865406.88144  -6128876.80944  23299429.9474   23299431.2884
  -6235395.265 4  -4858748.375 4  23422667.957    23422668.459
   -938920.55844   -731624.64744  22117814.9614   22117815.3934
   -710458.61444   -553606.24544  23412304.3934   23412305.7414
   4456293.20444   3472435.47344  21250070.1134   21250070.6504
  -3920537.40444  -3054961.76244  20772238.2494   20772238.6094
  -1816065.61744  -1415115.64944  20670476.7904   20670477.0804
 96  5  7  2 45 30.0000000  0  7G26G21G28G22G 6G23G17
   -924216.88744   -720167.22844  22120613.0164   22120612.7604
  -7946199.59044  -6191832.10544  23284056.1434   23284058.3664
  -6334108.003 4  -4935667.354 4  23403883.856    23403884.537
   -696604.28544   -542810.69244  23414941.0324   23414944.2144
   4527393.71144   3527838.44444  21263600.3274   21263600.4734
  -3947051.66644  -3075622.21344  20767192.9844   20767193.2854
  -1828028.29544  -1424437.21644  20668200.3764   20668200.7204
 96  5  7  2 46  0.0000000  0  7G21G28G26G22G 6G23G17
  -8026777.35944  -6254619.91744  23268723.3074   23268725.6384
  -6432646.741 4  -5012450.749 4  23385132.388    23385132.715
   -908932.02144   -708256.93944  22123521.5924   22123521.2154
   -682257.33444   -531631.28844  23417670.6084   23417673.3524
   4598936.42144   3583585.98944  21277214.6504   21277214.8984
  -3973130.32444  -3095943.23644  20762230.3214   20762230.6614
  -1839804.38444  -1433613.38644  20665959.2474   20665959.6924
 96  5  7  2 46 30.0000000  0  7G21G28G26G22G 6G23G17
  -8107116.50844  -6317221.79844  23253435.1304   23253435.9374
  -6530999.775 4  -5089089.432 4  23366416.059    23366416.735
   -893056.02144   -695886.01444  22126542.6404   22126541.7084
   -667401.87444   -520055.62944  23420496.9444   23420500.0604
   4670927.06044   3639682.57244  21290913.7744   21290914.2144
  -3998758.28844  -3115913.06844  20757353.4214   20757353.9524
  -1851381.85144  -1442634.78444  20663756.1574   20663756.2504
 96  5  7  2 47  0.0000000  0  7G21G28G26G22G 6G23G17
  -8187206.36544  -6379629.43544  23238194.0894   23238194.6304
  -6629173.225 4  -5165588.207 4  23347734.347    23347734.702
   -876590.51744   -683055.74644  22129675.9884   22129675.5174
   -652044.25744   -508088.67244  23423420.0004   23423422.6964
   4743357.22144   3696121.63944  21304696.5714   21304696.3994
  -4023946.12144  -3135539.94344  20752560.4104   20752560.5654
  -1862757.30944  -1451498.77744  20661591.5374   20661591.9614
 96  5  7  2 47 30.0000000  0  7G21G28G26G22G 6G23G17
  -8267061.20944  -6441853.94944  23222997.8714   23223000.9474
  -6727182.444 4  -5241959.001 4  23329084.916    23329083.698
   -859546.42744   -669774.62944  22132919.4664   22132919.0254
   -636204.86344   -495746.32044  23426434.1484   23426437.5414
   4816204.71244   3752885.90544  21318559.5154   21318559.9334
  -4048718.00444  -3154842.69344  20747846.4324   20747846.9764
  -1873941.98144  -1460214.10344  20659463.1394   20659463.4774
 96  5  7  2 48  0.0000000  0  7G21G28G26G22G 6G23G17
  -8346677.80444  -6503892.78144  23207846.8054   23207849.4984
  -6825014.558 4  -5318191.785 4  23310467.919    23310466.505
   -841911.00344   -656032.73644  22136275.2884   22136275.6184
   -619883.17244   -483028.13244  23429540.0644   23429543.2314
   4889476.94244   3809981.13244  21332502.6124   21332503.0524
  -4073071.85244  -3173819.70744  20743211.9804   20743212.4194
  -1884912.97544  -1468762.92744  20657375.4964   20657375.7624
 96  5  7  2 48 30.0000000  0  7G21G28G26G22G 6G23G17
  -8426046.86544  -6565738.76444  23192743.9174   23192745.4164
  -6922645.249 4  -5394267.636 4  23291888.855    23291888.550
   -823657.23344   -641809.01644  22139748.7774   22139748.4424
   -603054.61244   -469915.00244  23432742.9804   23432744.5124
   4963189.42244   3867419.40944  21346529.4724   21346530.1044
  -4097002.95744  -3192467.30344  20738657.9414   20738658.3314
  -1895637.71644  -1477119.86844  20655334.4924   20655334.6514
 96  5  7  2 49  0.0000000  0  7G21G28G26G22G 6G23G17
  -8505195.78844  -6627413.20644  23177682.8274   23177684.5514
  -7020092.850 4  -5470200.833 4  23273345.150    23273344.602
   -804819.84544   -627130.50844  22143333.8754   22143333.2554
   -585745.05144   -456427.05744  23436036.4604   23436040.0284
   5037327.89444   3925189.62944  21360637.9214   21360637.8614
  -4120544.98044  -3210811.71944  20734177.8294   20734178.3224
  -1906138.24744  -1485302.09944  20653336.4144   20653336.7604
 96  5  7  2 49 30.0000000  0  7G21G28G26G22G 6G23G17
  -8584145.84544  -6688932.68844  23162658.3354   23162660.7274
  -7117368.400 4  -5545999.932 4  23254834.265    23254833.980
   -785415.06644   -612009.89944  22147026.2954   22147026.1304
   -567970.44044   -442576.73144  23439418.5434   23439420.4434
   5111892.03044   3983291.53144  21374826.6604   21374827.2764
  -4143712.07744  -3228863.98944  20729769.3934   20729769.9064
  -1916430.29244  -1493321.87344  20651377.7234   20651378.0944
 96  5  7  2 50  0.0000000  0  7G21G28G26G22G 6G23G17
  -8662878.40444  -6750282.68144  23147676.3654   23147678.5704
  -7214455.170 4  -5621651.940 4  23236359.142    23236359.536
   -765438.71944   -596443.90044  22150827.4614   22150827.5724
   -549713.04344   -428350.19944  23442893.1764   23442894.9034
   5186903.09744   4041741.69944  21389101.0214   21389101.6424
  -4166491.37744  -3246614.07944  20725434.8504   20725435.1144
  -1926506.12544  -1501173.17044  20649460.6934   20649460.7254
 96  5  7  2 50 30.0000000  0  7G21G28G26G22G 6G23G17
  -8741368.96844  -6811444.11244  23132739.9694   23132742.2904
  -7311341.726 4  -5697147.935 4  23217921.817    23217922.159
   -744889.61844   -580431.60644  22154737.4914   22154737.8044
   -530966.38644   -413742.44244  23446460.9384   23446461.4664
   5262370.45544   4100547.41444  21403462.1684   21403462.4884
  -4188880.00544  -3264059.74844  20721174.1744   20721174.5514
  -1936367.40744  -1508857.29244  20647584.2104   20647584.1924
 96  5  7  2 51  0.0000000  0  7G21G28G26G22G 6G23G17
  -8819631.54244  -6872427.88944  23117846.7334   23117848.8944
  -7408044.479 4  -5772500.708 4  23199519.582    23199519.833
   -723791.04944   -563991.15944  22158752.9564   22158752.5694
   -511765.30944   -398780.59444  23450114.8144   23450116.1424
   5338272.91244   4159692.17044  21417905.6064   21417905.9824
  -4210886.63544  -3281207.75944  20716986.5494   20716986.9164
  -1946040.96544  -1516395.12944  20645743.0334   20645743.4824
 96  5  7  2 51 30.0000000  0  7G21G28G26G22G23G17G 6
  -8897657.47544  -6933227.26544  23102999.0024   23103001.9234
  -7504560.422 4  -5847707.932 4  23181153.653    23181153.461
   -702131.80344   -547113.81044  22162874.1064   22162873.6404
   -492112.75344   -383466.93744  23453855.3814   23453856.5434
  -4232508.56044  -3298055.99744  20712872.0904   20712872.2434
  -1955526.00144  -1523786.06544  20643938.2894   20643938.5574
   5414590.71744   4219160.57244  21432428.4434   21432428.9034
 96  5  7  2 52  0.0000000  0  7G21G28G26G23G17G22G 6
  -8975444.87544  -6993840.77944  23088196.4654   23088198.7314
  -7600888.862 4  -5922769.017 4  23162824.184    23162822.941
   -679912.60144   -529800.14644  22167102.1914   22167102.2324
  -4253745.47044  -3314604.22544  20708831.0064   20708831.3104
  -1964816.49144  -1531025.40944  20642170.2894   20642170.4254
   -472032.04144   -367819.65244  23457676.5684   23457678.1394
   5491300.21544   4278934.18844  21447025.8674   21447026.2154
 96  5  7  2 52 30.0000000  0  7G21G28G26G22G23G17G 6
  -9052992.49244  -7054267.44944  23073440.1554   23073441.5524
  -7697015.858 4  -5997673.145 4  23144531.525    23144530.362
   -657111.79844   -512033.27844  22171441.3394   22171440.9854
   -451523.16644   -351838.71644  23461578.2394   23461580.3964
  -4274580.36544  -3330839.19544  20704866.0854   20704866.3064
  -1973890.63344  -1538096.16744  20640443.2834   20640443.6164
   5568404.87944   4339015.72144  21461698.6984   21461699.0384
 96  5  7  2 53  0.0000000  0  7G21G28G23G17G26G22G 6
  -9130315.21744  -7114518.88044  23058725.8524   23058727.6194
  -7792941.609 4  -6072420.469 4  23126276.535    23126276.438
  -4295003.61944  -3346753.41044  20700979.7114   20700980.1354
  -1982757.69144  -1545005.56144  20638756.0654   20638756.3684
   -633721.29244   -493806.89944  22175892.1134   22175892.0724
   -430588.60644   -335526.10644  23465562.2844   23465563.0994
   5645899.14044   4399400.83744  21476445.0114   21476445.5264
 96  5  7  2 53 30.0000000  0  7G21G28G26G23G17G22G 6
  -9207403.75844  -7174587.82244  23044056.3204   23044057.3744
  -7888658.147 4  -6147004.774 4  23108062.643    23108062.724
   -609728.70244   -475111.36444  22180457.8914   22180456.9994
  -4315015.69944  -3362347.22444  20697171.5204   20697171.8784
  -1991413.45844  -1551750.31344  20637109.1334   20637109.2574
   -409210.80344   -318868.12544  23469630.4314   23469632.8524
   5723791.16044   4460095.89344  21491267.1794   21491267.5534
 96  5  7  2 54  0.0000000  0  7G21G28G26G23G17G22G 6
  -9284263.86144  -7234478.76344  23029429.8424   23029431.6474
  -7984167.359 4  -6221427.505 4  23089887.944    23089887.757
   -585141.55344   -455952.53744  22185136.7174   22185136.3074
  -4334624.08344  -3377626.46844  20693439.9914   20693440.4244
  -1999869.16044  -1558339.17244  20635499.9914   20635500.0404
   -387389.37244   -301864.43544  23473782.0024   23473784.6744
   5802093.97944   4521111.05444  21506167.7214   21506168.2554
 96  5  7  2 54 30.0000000  0  7G21G28G26G22G23G17G 6
  -9360887.53944  -7294185.47444  23014848.7924   23014850.2604
  -8079466.700 4  -6295686.674 4  23071752.492    23071753.018
   -559962.68244   -436332.61644  22189928.3374   22189927.3224
   -365105.18444   -284500.15844  23478023.3714   23478024.8514
  -4353832.02144  -3392593.67844  20689784.8834   20689785.1434
  -2008140.19144  -1564784.12744  20633925.8324   20633926.1194
   5880810.84044   4582448.84144  21521147.2384   21521147.7674
 96  5  7  2 55  0.0000000  0  7G21G28G26G23G17G22G 6
  -9437255.24944  -7353692.74244  23000317.1634   23000318.2484
  -8174550.705 4  -6369778.089 4  23053658.081    23053659.120
   -534203.93944   -416260.86044  22194829.5314   22194829.3414
  -4372645.53144  -3407253.53944  20686205.0524   20686205.2534
  -2016229.97144  -1571087.84444  20632386.6104   20632386.9884
   -342349.04244   -266768.11744  23482354.3554   23482355.8844
   5959946.05544   4644112.61644  21536206.2204   21536206.6824
 96  5  7  2 55 30.0000000  0  7G21G28G26G22G23G17G 6
  -9513382.12144  -7413012.33444  22985830.5004   22985831.9694
  -8269442.166 4  -6443719.470 4  23035601.159    23035601.455
   -507901.69044   -395765.59544  22199834.9054   22199834.2524
   -319142.95844   -248685.47144  23486770.0984   23486770.1404
  -4391094.34644  -3421629.22844  20682694.2294   20682694.4654
  -2024147.60644  -1577257.42644  20630879.8104   20630880.1964
   6039466.93644   4706076.91144  21551338.6154   21551338.5524
 96  5  7  2 56  0.0000000  0  7G21G28G26G23G17G22G 6
  -9589284.58044  -7472157.04844  22971385.8964   22971387.5824
  -8364145.004 4  -6517513.834 4  23017580.587    23017579.737
   -481071.24244   -374858.74244  22204940.7724   22204940.5014
  -4409183.44944  -3435724.62244  20679251.9514   20679252.3354
  -2031889.07044  -1583289.72844  20629406.7804   20629407.0864
   -295497.17544   -230260.19544  23491270.1144   23491270.4724
   6119360.04344   4768331.25744  21566541.3334   21566542.1264
 96  5  7  2 56 30.0000000  0  7G21G28G26G23G17G22G 6
  -9664950.23944  -7531117.26744  22956987.8864   22956989.9004
  -8458634.063 4  -6591141.631 4  22999599.671    22999599.528
   -453688.46544   -353521.50744  22210151.5094   22210151.2014
  -4426887.46144  -3449519.94944  20675882.9324   20675883.2544
  -2039415.11344  -1589154.16744  20627974.5844   20627974.7824
   -271390.63744   -211475.90144  23495857.3774   23495857.9954
   6199641.54244   4830888.24244  21581818.7384   21581818.9524
 96  5  7  2 57  0.0000000  0  7G21G28G26G23G17G22G 6
  -9740386.19244  -7589898.48044  22942632.9934   22942634.9264
  -8552901.773 4  -6664596.967 4  22981660.619    22981661.190
   -425751.52644   -331752.45644  22215467.5644   22215467.2684
  -4444195.53744  -3463006.75244  20672589.1924   20672589.4324
  -2046705.21744  -1594834.75744  20626587.0554   20626587.5924
   -246820.30044   -192330.22744  23500532.5224   23500532.1364
   6280325.80044   4893759.07144  21597172.3274   21597172.8834
 96  5  7  2 57 30.0000000  0  7G21G28G26G23G17G22G 6
  -9815611.20544  -7648515.31844  22928317.5464   22928320.6254
  -8646951.676 4  -6737882.572 4  22963763.777    22963764.051
   -397250.38244   -309543.75344  22220891.3324   22220891.0154
  -4461117.03444  -3476192.32344  20669369.2254   20669369.5744
  -2053756.11044  -1600328.95144  20625245.1074   20625245.8144
   -221806.98144   -172839.34744  23505292.1054   23505293.3494
   6361403.26144   4956936.29244  21612601.2084   21612601.5414
 96  5  7  2 58  0.0000000  0  7G21G28G26G23G17G22G 6
  -9890631.71144  -7706972.81744  22914041.6694   22914043.3514
  -8740781.895 4  -6810996.983 4  22945908.941    22945908.902
   -368183.80644   -286894.45844  22226422.1244   22226421.8654
  -4477648.16144  -3489073.70844  20666223.4454   20666223.9594
  -2060578.91944  -1605645.42144  20623946.9894   20623947.5194
   -196359.73444   -153010.35744  23510134.9344   23510136.1024
   6442871.28644   5020417.85144  21628103.9614   21628104.4894
 96  5  7  2 58 30.0000000  0  7G21G28G26G23G17G22G 6
  -9965417.40844  -7765247.35344  22899811.0034   22899812.9194
  -8834374.942 4  -6883926.596 4  22928098.132    22928098.363
   -338536.70544   -263792.81744  22232063.8984   22232063.3674
  -4493770.78444  -3501636.77844  20663155.3584   20663155.7424
  -2067161.61344  -1610774.78744  20622694.6644   20622694.9724
   -170470.59844   -132837.04444  23515060.7894   23515062.4194
   6524742.75644   5084213.77644  21643683.3954   21643683.9704
 96  5  7  2 59  0.0000000  0  7G21G28G26G23G17G22G 6
 -10039948.57444  -7823323.54944  22885627.3834   22885629.4024
  -8927719.327 4  -6956662.445 4  22910335.038    22910335.305
   -308300.65744   -240232.24944  22237817.5494   22237817.0424
  -4509482.15244  -3513879.38844  20660165.6314   20660166.0124
  -2073505.08544  -1615717.74244  20621487.3584   20621487.7254
   -144140.52244   -112320.13644  23520070.7584   23520073.5824
   6607021.15644   5148326.79844  21659340.6314   21659340.6324
 96  5  7  2 59 30.0000000  0  7G21G28G26G23G17G22G 6
 -10114233.15244  -7881207.59544  22871491.4964   22871493.0744
  -9020820.659 4  -7029208.923 4  22892618.249    22892618.760
   -277480.21944   -216216.31444  22243682.1014   22243681.6734
  -4524799.48044  -3525814.95344  20657250.7764   20657251.1324
  -2079620.02644  -1620482.62444  20620323.4474   20620323.9434
   -117383.39144    -91470.43944  23525162.6504   23525164.5624
   6689683.36644   5212738.88744  21675070.9034   21675071.3834
 96  5  7  3  0  0.0000000  0  7G21G28G23G17G26G22G 6
 -10188259.56944  -7938890.47944  22857404.8304   22857406.6774
  -9113666.668 4  -7101556.436 4  22874950.397    22874950.472
  -4539710.98044  -3537434.29144  20654413.2114   20654413.5434
  -2085506.23144  -1625069.26944  20619203.5614   20619203.9884
   -246084.13144   -191751.81244  22249657.2434   22249656.9124
    -90176.25044    -70270.11144  23530340.7544   23530341.1484
   6772736.24144   5277455.39444  21690875.2564   21690875.7644
 96  5  7  3  0 30.0000000  0  7G21G28G23G17G26G22G 6
 -10262034.38744  -7996377.31244  22843366.7114   22843367.8604
  -9206256.450 4  -7173704.287 4  22857331.587    22857331.326
  -4554240.25844  -3548755.79044  20651648.4594   20651648.6064
  -2091169.62144  -1629482.29244  20618125.8924   20618126.2414
   -214111.99044   -166838.45744  22255741.2574   22255740.8324
    -62520.04044    -48719.84744  23535603.2504   23535604.2814
   6856185.79144   5342480.99444  21706755.2134   21706755.6864
 96  5  7  3  1  0.0000000  0  7G21G28G23G17G26G22G 6
 -10335566.53444  -8053675.05644  22829373.7734   22829375.1784
  -9298590.090 4  -7245652.551 4  22839761.102    22839760.865
  -4568397.31444  -3559787.25044  20648954.5344   20648954.7194
  -2096628.66144  -1633736.08744  20617086.9934   20617087.3364
   -181565.91444   -141477.87744  22261934.1674   22261933.7864
    -34419.44244    -26823.30144  23540951.1164   23540951.7714
   6940034.42244   5407817.57044  21722710.8234   21722711.1594
 96  5  7  3  1 30.0000000  0  7G21G28G23G17G26G22G 6
 -10408860.07344  -8110786.86344  22815426.1804   22815427.4534
  -9390664.619 4  -7317398.923 4  22822239.564    22822239.690
  -4582172.74444  -3570521.34444  20646332.9484   20646333.0714
  -2101886.46244  -1637833.07044  20616086.4654   20616086.5874
   -148459.13344   -115680.36744  22268234.3014   22268233.9514
     -5872.85644     -4579.23544  23546383.6794   23546385.3554
   7024274.09344   5473458.85244  21738741.4294   21738742.0744
 96  5  7  3  2  0.0000000  0  7G21G28G23G17G26G22G 6
 -10481943.87344  -8167735.25244  22801518.4284   22801519.9714
  -9482510.465 4  -7388967.109 4  22804761.821    22804762.310
  -4595594.98644  -3580980.22044  20643778.8064   20643779.0924
  -2106981.14244  -1641802.94744  20615116.9764   20615117.3664
   -114827.76444    -89474.10244  22274634.2184   22274633.5294
     23076.68544     17978.78844  23551892.3324   23551894.6954
   7108876.31144   5539382.63444  21754840.1064   21754841.2114
 96  5  7  3  2 30.0000000  0  7G21G28G23G17G26G22G 6
 -10554812.56644  -8224516.00744  22787652.8574   22787653.7324
  -9574128.927 4  -7460358.105 4  22787327.632    22787327.725
  -4608656.65944  -3591158.13744  20641293.3214   20641293.5654
  -2111908.37344  -1645642.34544  20614179.8804   20614180.2124
    -80665.26244    -62853.96444  22281135.0524   22281135.1694
     52403.57244     40830.87144  23557473.0164   23557475.4144
   7193839.02244   5605587.32444  21771008.6154   21771008.7624
 96  5  7  3  3  0.0000000  0  7G21G28G23G17G26G22G 6
 -10627420.56244  -8281093.62944  22773835.6984   22773836.8804
  -9665485.096 4  -7531544.719 4  22769942.985    22769943.373
  -4621305.93144  -3601014.69744  20638886.3454   20638886.3524
  -2116623.02344  -1649316.09644  20613282.4244   20613282.6394
    -45951.70244    -35804.42444  22287740.9354   22287740.0494
     82138.81644     64001.14944  23563131.2084   23563133.9504
   7279179.49044   5672086.36544  21787248.3514   21787248.9044
 96  5  7  3  3 30.0000000  0  7G21G28G23G17G26G22G 6
 -10699783.49944  -8337480.29944  22760064.8504   22760066.6254
  -9756588.541 4  -7602534.416 4  22752606.526    22752606.827
  -4633553.39444  -3610558.16044  20636555.5034   20636555.8394
  -2121109.30244  -1652811.89644  20612428.6164   20612428.9164
    -10691.74144     -8329.12144  22294450.6404   22294449.9824
    112282.55344     87489.75644  23568867.1064   23568869.4014
   7364879.54444   5738865.61444  21803556.1904   21803556.6754
 96  5  7  3  4  0.0000000  0  7G21G23G28G17G26G22G 6
 -10771867.22744  -8393649.40544  22746347.9894   22746350.3784
  -4645386.48644  -3619778.74044  20634303.9074   20634304.0634
  -9847418.440 4  -7673310.953 4  22735322.417    22735322.122
  -2125342.29944  -1656110.33144  20611623.1304   20611623.5444
     25150.40744     19599.83144  22301270.9754   22301271.0774
    142857.72144    111314.52344  23574686.3884   23574688.2084
   7450972.17644   5805950.75144  21819939.6264   21819940.0094
 96  5  7  3  4 30.0000000  0  7G21G23G28G17G26G22G 6
 -10843682.87544  -8449609.61344  22732682.0244   22732684.2714
  -4656830.47244  -3628696.12244  20632125.9184   20632126.2284
  -9937991.667 4  -7743887.484 4  22718086.997    22718086.871
  -2129337.06144  -1659223.13044  20610862.7504   20610862.9364
     61552.07244     47964.76544  22308198.2454   22308197.6674
    173865.98444    135476.74544  23580586.8954   23580589.0214
   7537431.63744   5873321.73844  21836392.3924   21836392.9404
 96  5  7  3  5  0.0000000  0  7G21G28G23G17G26G22G 6
 -10915229.26544  -8505360.00844  22719067.1814   22719068.8134
 -10028297.281 4  -7814255.498 4  22700902.415    22700902.094
  -4667891.27444  -3637314.92144  20630021.3294   20630021.6894
  -2133084.48044  -1662143.19444  20610149.6074   20610150.0004
     98520.49544     76771.33744  22315233.2984   22315232.9554
    205341.34444    160002.96444  23586576.6724   23586578.4624
   7624257.11644   5940977.93144  21852913.6354   21852913.9364
 96  5  7  3  5 30.0000000  0  7G21G23G28G17G26G22G 6
 -10986500.54944  -8560896.03744  22705504.6404   22705506.7354
  -4678577.12044  -3645641.54344  20627987.8034   20627987.9524
 -10118324.447 4  -7884406.538 4  22683770.790    22683770.977
  -2136581.85344  -1664868.41744  20609484.2474   20609484.7164
    136079.86044    106038.38944  22322380.2694   22322379.6684
    237285.75344    184894.69144  23592655.6764   23592657.3234
   7711459.13944   6008927.54744  21869508.0774   21869508.0854
 96  5  7  3  6  0.0000000  0  7G21G23G28G17G26G22G 6
 -11057495.37744  -8616216.64344  22691995.0804   22691996.0244
  -4688895.25844  -3653681.63944  20626024.2044   20626024.5114
 -10208078.462 4  -7954344.740 4  22666691.502    22666691.446
  -2139857.37244  -1667420.76744  20608860.5524   20608861.1164
    174208.18344    135748.77544  22329635.8834   22329635.4714
    269665.60444    210125.70044  23598816.1644   23598817.0564
   7799025.55144   6077161.09444  21886171.8384   21886172.3804
 96  5  7  3  6 30.0000000  0  7G21G23G28G17G26G22G 6
 -11128236.80944  -8671339.82044  22678533.0384   22678533.9394
  -4698853.34444  -3661441.17344  20624129.3914   20624129.5934
 -10297563.082 4  -8024073.003 4  22649663.026    22649662.363
  -2142915.29244  -1669803.55644  20608278.9674   20608279.4294
    212891.49944    165891.62444  22336997.2774   22336996.1674
    302468.15744    235686.08944  23605058.9824   23605061.2314
   7886932.99544   6145660.37044  21902899.2474   21902900.0424
 96  5  7  3  7  0.0000000  0  7G21G23G28G17G26G22G 6
 -11198731.46944  -8726270.68344  22665118.2004   22665120.4004
  -4708444.96844  -3668915.15644  20622303.9954   20622304.3044
 -10386775.624 4  -8093589.255 4  22632685.923    22632685.412
  -2145756.23844  -1672017.27844  20607738.1464   20607738.4944
    252131.39444    196468.16444  22344464.0344   22344463.3104
    335665.45944    261554.06444  23611375.8234   23611378.7654
   7975185.38844   6214428.44944  21919693.6604   21919694.0374
 96  5  7  3  7 30.0000000  0  7G21G23G28G17G26G22G 6
 -11268977.70444  -8781007.96844  22651751.1814   22651752.9384
  -4717663.49444  -3676098.41844  20620549.8814   20620550.1064
 -10475713.218 4  -8162891.270 4  22615761.165    22615761.485
  -2148381.33144  -1674062.80244  20607238.5524   20607239.0984
    291926.30344    227477.19544  22352037.1364   22352037.4434
    369230.84244    287708.84044  23617762.9074   23617765.2124
   8063792.00744   6283472.53744  21936554.9444   21936555.6594
 96  5  7  3  8  0.0000000  0  7G21G23G28G17G26G22G 6
 -11338989.22344  -8835562.35844  22638428.5224   22638429.9544
  -4726495.80244  -3682980.72344  20618869.0024   20618869.3174
 -10564378.528 4  -8231981.105 4  22598888.705    22598889.041
  -2150798.75444  -1675946.50644  20606778.8034   20606779.2874
    332251.18144    258899.19044  22359710.5034   22359709.7354
    403161.11844    314147.99144  23624220.2324   23624220.6354
   8152749.55144   6352790.08144  21953483.4914   21953483.9054
 96  5  7  3  8 30.0000000  0  7G21G23G28G17G26G22G 6
 -11408771.01344  -8889937.74444  22625149.4414   22625150.7064
  -4734950.00744  -3689568.40644  20617260.2964   20617260.7114
 -10652768.391 4  -8300856.299 4  22582069.024    22582069.608
  -2153007.03544  -1677667.24544  20606358.6004   20606358.8854
    373108.70844    290736.22144  22367484.6534   22367484.7204
    437466.01244    340879.01644  23630748.0734   23630750.4244
   8242057.73344   6422380.83944  21970477.8404   21970478.8074
 96  5  7  3  9  0.0000000  0  7G21G23G28G17G26G22G 6
 -11478294.98744  -8944112.22944  22611919.3754   22611920.3484
  -4743012.24344  -3695850.65744  20615726.1934   20615726.3264
 -10740860.905 4  -8369499.791 4  22565305.629    22565305.895
  -2154994.21044  -1679215.68944  20605980.4074   20605980.8354
    414504.11444    322992.39244  22375362.5644   22375361.8534
    472157.88044    367911.59244  23637350.0854   23637352.4564
   8331744.90144   6492266.91344  21987544.3074   21987545.2444
 96  5  7  3  9 30.0000000  0  7G21G23G28G17G26G22G 6
 -11547546.66044  -8998074.54444  22598740.9134   22598742.1734
  -4750681.90344  -3701827.00544  20614266.6114   20614266.9364
 -10828641.782 4  -8437900.447 4  22548601.700    22548601.769
  -2156753.05844  -1680586.22044  20605645.8214   20605646.2314
    456443.28444    355672.27044  22383342.7474   22383342.3094
    507257.36344    395261.79244  23644029.0024   23644030.7634
   8421815.88244   6562452.06744  22004685.0464   22004685.7934
 96  5  7  3 10  0.0000000  0  7G21G23G28G17G26G22G 6
 -11616551.16544  -9051844.24144  22585609.8414   22585611.2124
  -4757994.77144  -3707525.33444  20612875.0174   20612875.0244
 -10916131.829 4  -8506074.492 4  22531952.753    22531952.603
  -2158313.03444  -1681801.78444  20605348.7374   20605349.1644
    498899.02444    388754.66044  22391422.4034   22391421.4064
    542749.92644    422918.28744  23650782.7144   23650784.3204
   8512231.15044   6632905.49744  22021889.8074   22021890.7974
 96  5  7  3 10 30.0000000  0  7G21G23G28G17G26G22G 6
 -11685294.54344  -9105410.47444  22572528.3044   22572529.3734
  -4764946.57144  -3712942.30444  20611552.0744   20611552.2824
 -11003311.729 4  -8574006.847 4  22515362.728    22515362.715
  -2159646.05544  -1682840.50444  20605095.4574   20605095.6034
    541894.30444    422257.47444  22399604.4274   22399603.2014
    578655.80044    450896.86044  23657615.7594   23657617.4414
   8603003.03044   6703636.80144  22039163.3864   22039164.3334
 96  5  7  3 11  0.0000000  0  7G21G23G28G17G26G22G 6
 -11753799.37844  -9158790.83144  22559492.7664   22559493.5074
  -4771552.65944  -3718089.89544  20610295.0524   20610295.3934
 -11090198.858 4  -8641711.078 4  22498828.559    22498828.603
  -2160749.58444  -1683700.39344  20604885.3394   20604885.6884
    585410.49544    456166.19944  22407884.8954   22407884.3534
    614960.55944    479186.23144  23664524.5594   23664527.6164
   8694112.95044   6774631.52644  22056501.4994   22056502.4304
 96  5  7  3 11 30.0000000  0  7G21G23G28G17G26G22G 6
 -11822069.10944  -9211987.98544  22546500.9894   22546501.5254
  -4777800.57644  -3722958.39044  20609106.0124   20609106.3994
 -11176785.194 4  -8709180.935 4  22482351.567    22482351.855
  -2161611.23644  -1684371.80844  20604721.3404   20604721.5414
    629474.47044    490501.76544  22416270.0424   22416269.8544
    651671.80244    507792.35244  23671510.1564   23671512.0564
   8785558.76344   6845887.96244  22073902.8554   22073903.4214
 96  5  7  3 12  0.0000000  0  7G21G23G28G17G26G22G 6
 -11890094.18044  -9264994.49744  22533556.4284   22533556.8834
  -4783673.98444  -3727535.05844  20607988.3474   20607988.7604
 -11263059.761 4  -8776407.845 4  22465934.123    22465934.483
  -2162211.89644  -1684839.85544  20604606.9854   20604607.2094
    674099.59244    525274.58044  22424761.5804   22424761.2694
    688800.77544    536723.97744  23678576.5504   23678577.9944
   8877357.28244   6917419.25644  22091371.7854   22091372.1304
 96  5  7  3 12 30.0000000  0  7G21G23G28G17G26G22G 6
 -11957882.66144  -9317816.65644  22520656.5684   22520657.4194
  -4789185.66144  -3731829.86044  20606939.3544   20606939.6264
 -11349038.924 4  -8843404.567 4  22449573.065    22449573.375
  -2162568.34644  -1685117.60144  20604539.0084   20604539.4104
    719266.27144    560469.39744  22433357.1274   22433356.8014
    726327.18044    565965.29844  23685717.6214   23685717.9404
   8969504.78844   6989222.47544  22108906.1904   22108907.0514
 96  5  7  3 13  0.0000000  0  7G21G23G28G17G26G22G 6
 -12025420.05344  -9370443.16144  22507804.2454   22507805.8674
  -4794333.94444  -3735841.49244  20605959.7824   20605959.8714
 -11434718.693 4  -8910167.996 4  22433268.794    22433268.878
  -2162690.54244  -1685212.81844  20604515.8704   20604516.2694
    764973.71244    596085.58944  22442054.7454   22442054.9214
    764230.53344    595500.35444  23692929.1184   23692931.2284
   9062006.47544   7061301.68844  22126509.1824   22126510.0764
 96  5  7  3 13 30.0000000  0  7G21G23G28G17G26G22G 6
 -12092718.64044  -9422883.58544  22494997.6134   22494998.5894
  -4799142.66544  -3739588.54144  20605044.6184   20605045.0554
 -11520113.786 4  -8976709.605 4  22417018.426    22417018.788
  -2162616.50044  -1685155.11944  20604529.8434   20604530.2174
    811192.14044    632099.94844  22450849.7224   22450849.5144
    802484.53744    625308.62844  23700208.8274   23700211.9694
   9154838.13144   7133638.02144  22144174.4364   22144174.8274
 96  5  7  3 14  0.0000000  0  7G21G23G28G17G26G22G 6
 -12159766.94444  -9475128.97744  22482239.1284   22482240.1744
  -4803618.80644  -3743076.43144  20604192.7724   20604192.9394
 -11605215.447 4  -9043022.569 4  22400824.617    22400824.226
  -2162341.12944  -1684940.53644  20604582.1944   20604582.5394
    857906.18344    668500.49844  22459739.4314   22459738.2414
    841094.91144    655394.59844  23707556.6024   23707557.9914
   9247999.44444   7206231.22244  22161902.3524   22161902.8744
 96  5  7  3 14 30.0000000  0  7G21G23G28G17G26G22G 6
 -12226543.24244  -9527162.42244  22469531.9084   22469532.7544
  -4807734.82144  -3746283.70144  20603409.4844   20603409.8344
 -11689991.492 4  -9109081.803 4  22384692.154    22384691.963
  -2161838.58344  -1684548.93544  20604677.8734   20604678.3064
    905135.33844    705302.44744  22468726.4124   22468726.0334
    880072.27244    685766.55044  23714973.0554   23714975.8314
   9341504.90144   7279092.60044  22179695.6434   22179696.0814
 96  5  7  3 15  0.0000000  0  7G21G23G28G17G26G22G 6
 -12293064.84144  -9578997.40644  22456873.2964   22456874.7814
  -4811502.08944  -3749219.22044  20602692.6394   20602692.9104
 -11774449.806 4  -9174893.462 4  22368620.096    22368620.120
  -2161113.95744  -1683984.28644  20604815.8964   20604816.2454
    952866.43044    742495.50144  22477809.7724   22477809.2354
    919413.03544    716421.66344  23722460.5544   23722461.7984
   9435322.30644   7352197.04344  22197548.9894   22197549.5404
 96  5  7  3 15 30.0000000  0  7G21G23G28G17G26G22G 6
 -12359335.75544  -9630637.04844  22444262.3814   22444263.0324
  -4814920.04244  -3751882.54844  20602042.3354   20602042.6824
 -11858589.157 4  -9240456.576 4  22352608.754    22352609.029
  -2160170.13944  -1683248.83744  20604995.2994   20604995.8904
   1001112.12844    780089.54844  22486990.8944   22486989.7764
    959135.58644    747374.26644  23730019.6524   23730020.7234
   9529429.26544   7425527.11744  22215457.4534   22215457.3554
 96  5  7  3 16  0.0000000  0  7G21G23G28G17G26G22G 6
 -12425369.17644  -9682091.63044  22431696.7274   22431698.2884
  -4817982.94144  -3754269.21444  20601459.6584   20601459.7474
 -11942417.153 4  -9305777.087 4  22336656.555    22336657.326
  -2159019.50544  -1682352.23044  20605214.4694   20605214.8574
   1049872.83944    818084.90344  22496269.6394   22496268.8214
    999227.36744    778614.58544  23737648.3024   23737649.6084
   9623817.33344   7499076.23444  22233418.2434   22233419.5494
 96  5  7  3 16 30.0000000  0  7G21G23G28G17G26G22G 6
 -12491141.85944  -9733343.03944  22419179.7864   22419181.3614
  -4820650.84544  -3756348.09144  20600951.6484   20600951.9034
 -12025908.441 4  -9370835.233 4  22320768.786    22320769.207
  -2157639.29944  -1681276.73844  20605476.9734   20605477.4224
   1099180.25244    856506.26444  22505651.9114   22505652.1394
   1039704.81044    810155.42244  23745350.9004   23745353.4564
   9718513.73544   7572865.61144  22251438.4624   22251438.8584
 96  5  7  3 17  0.0000000  0  7G21G23G28G17G26G22G 6
 -12556641.53644  -9784381.71844  22406716.0544   22406717.5224
  -4822924.96344  -3758120.11944  20600519.1734   20600519.2054
 -12109056.143 4  -9435625.638 4  22304946.749    22304946.666
  -2156025.97144  -1680019.58744  20605783.9634   20605784.3774
   1149047.38844    895363.75744  22515141.8434   22515140.9774
   1080581.50744    842007.36244  23753130.1244   23753131.2144
   9813531.36144   7646905.28844  22269519.8584   22269520.1554
 96  5  7  3 17 30.0000000  0  7G21G23G28G17G26G22G 6
 -12621880.36844  -9835217.14844  22394301.2324   22394302.4764
  -4824811.70044  -3759590.29044  20600159.8674   20600160.1724
 -12191863.442 4  -9500150.804 4  22289188.900    22289188.913
  -2154184.66744  -1678584.79644  20606134.4274   20606134.8814
   1199467.51744    934652.17644  22524736.1914   22524735.5894
   1121821.34244    874142.26144  23760977.2324   23760979.2964
   9908884.52544   7721206.43844  22287665.0464   22287664.8684
 96  5  7  3 18  0.0000000  0  7G21G23G28G17G26G22G 6
 -12686881.87244  -9885867.63244  22381932.1384   22381933.1864
  -4826341.23144  -3760782.12344  20599868.9864   20599869.1974
 -12274347.963 4  -9564424.464 4  22273492.519    22273492.497
  -2152116.19044  -1676972.98644  20606528.0684   20606528.5174
   1250390.74044    974332.60244  22534426.2644   22534426.1624
   1163381.83744    906527.01344  23768886.4384   23768888.2634
  10004566.00444   7795763.41044  22305872.6404   22305873.5384
 96  5  7  3 18 30.0000000  0  7G21G23G28G17G26G22G 6
 -12751618.20544  -9936311.50044  22369612.7634   22369614.9994
  -4827515.17844  -3761696.87444  20599645.5754   20599645.5594
 -12356484.280 4  -9628426.785 4  22257862.816    22257862.728
  -2149781.37844  -1675153.64344  20606972.0654   20606972.4784
   1301832.75144   1014417.27744  22544215.8034   22544215.7284
   1205281.59544    939176.10844  23776858.7644   23776861.0994
  10100588.11244   7870585.80544  22324145.0714   22324145.9344
 96  5  7  3 19  0.0000000  0  7G21G23G28G17G26G22G 6
 -12816086.14044  -9986546.22344  22357345.0464   22357347.1534
  -4828340.32144  -3762339.83044  20599488.7004   20599488.6674
 -12438265.737 4  -9692152.591 4  22242299.975    22242300.456
  -2147177.56544  -1673124.68944  20607467.7194   20607468.0524
   1353792.28044   1054905.21744  22554103.0674   22554102.5374
   1247521.89544    972090.58144  23784896.8254   23784900.4044
  10196947.51744   7945671.04344  22342480.9764   22342481.5534
 96  5  7  3 19 30.0000000  0  7G21G23G28G17G26G22G 6
 -12880302.71044 -10036585.07744  22345125.5414   22345127.5914
  -4828838.43944  -3762727.96444  20599393.8104   20599394.0034
 -12519703.368 4  -9755610.489 4  22226802.731    22226803.261
  -2144319.71944  -1670897.78244  20608011.5254   20608011.8554
   1406238.32044   1095772.24244  22564083.1784   22564083.6294
   1290092.14044   1005262.15244  23792998.0064   23793001.6904
  10293606.71644   8020989.87344  22360875.9004   22360876.6454
 96  5  7  3 20  0.0000000  0  7G21G23G28G17G26G22G 6
 -12944251.85144 -10086415.55344  22332956.2394   22332956.8724
  -4829000.96644  -3762854.59844  20599362.9394   20599362.8894
 -12600786.966 4  -9818792.510 4  22211372.981    22211373.405
  -2141198.87544  -1668465.94744  20608605.3694   20608605.4044
   1459182.43244   1137027.39844  22574158.4644   22574157.9954
   1333016.84444   1038709.91344  23801166.2134   23801168.4974
  10390552.78844   8096532.24444  22379323.7104   22379324.1254
 96  5  7  3 20 30.0000000  0  7G21G23G28G17G26G22G 6
 -13007927.17444 -10136032.66144  22320839.1124   22320840.5024
  -4828821.96044  -3762715.10044  20599396.7964   20599396.8814
 -12681510.894 4  -9881694.269 4  22196011.877    22196012.261
  -2137829.85444  -1665840.72744  20609246.5914   20609246.9384
   1512640.93844   1178683.36644  22584330.7024   22584330.9314
   1376308.96444   1072444.02544  23809404.8484   23809407.1664
  10487785.96644   8172298.33844  22397826.4234   22397826.8954
 96  5  7  3 21  0.0000000  0  7G21G23G28G17G26G22G 6
 -13071317.31444 -10185427.54544  22308776.9234   22308777.9934
  -4828284.66144  -3762296.41844  20599499.0614   20599499.3004
 -12761862.299 4  -9944305.755 4  22180721.577    22180721.777
  -2134210.16844  -1663020.18344  20609935.4544   20609935.5954
   1566620.29544   1220745.18644  22594602.7324   22594602.9194
   1419983.28444   1106475.96044  23817715.5934   23817717.6844
  10585324.37944   8248302.27644  22416387.9854   22416388.7964
 96  5  7  3 21 30.0000000  0  7G21G23G28G17G26G22G 6
 -13134419.12644 -10234597.75544  22296768.9304   22296770.3474
  -4827408.72244  -3761613.85444  20599665.8994   20599665.7224
 -12841846.795 4 -10006631.328 4  22165501.115    22165501.116
  -2130339.04744  -1660003.71744  20610672.0724   20610672.1664
   1621118.84144   1263211.59044  22604974.1084   22604973.5944
   1464032.76844   1140800.13944  23826097.9334   23826100.4714
  10683172.04544   8324547.18744  22435007.0184   22435007.5724
 96  5  7  3 22  0.0000000  0  7G21G23G28G17G26G22G 6
 -13197237.90544 -10283547.43244  22284814.9524   22284815.6514
  -4826185.74544  -3760660.87044  20599898.5574   20599898.8604
 -12921471.566 4 -10068676.582 4  22150349.009    22150349.369
  -2126218.63344  -1656792.99544  20611456.2814   20611456.4224
   1676140.50644   1306085.60844  22615443.3504   22615443.2184
   1508441.42344   1175404.23944  23834548.7304   23834550.6864
  10781340.09344   8401041.74644  22453687.9364   22453688.7614
 96  5  7  3 22 30.0000000  0  7G21G23G28G17G26G22G 6
 -13259784.29244 -10332284.84644  22272912.6474   22272913.8504
  -4824626.53144  -3759445.89044  20600195.0034   20600195.0864
 -13000744.312 4 -10130447.537 4  22135263.818    22135264.346
  -2121865.06944  -1653400.59944  20612284.7464   20612284.9394
   1731672.35944   1349357.17544  22626011.6114   22626011.6444
   1553208.91244   1210287.96944  23843068.1204   23843069.9824
  10879820.63544   8477779.80744  22472427.4364   22472428.1314
 96  5  7  3 23  0.0000000  0  7G21G23G28G17G26G22G 6
 -13322041.50244 -10380796.93544  22261065.1704   22261065.9384
  -4822713.56044  -3757955.25044  20600559.1314   20600559.1334
 -13079644.993 4 -10191928.581 4  22120249.489    22120249.788
  -2117256.85044  -1649809.77144  20613161.4654   20613161.8344
   1787732.34044   1393040.26644  22636679.1274   22636678.6234
   1598348.86244   1245461.88444  23851657.9844   23851659.7774
  10978624.72944   8554769.98444  22491229.9724   22491230.5954
 96  5  7  3 23 30.0000000  0  8G21G23G28G17G26G22G 6G 1
 -13384064.90144 -10429126.82844  22249262.7394   22249263.8954
  -4820472.74344  -3756209.14744  20600985.6244   20600985.9394
 -13158213.258 4 -10253150.602 4  22105298.478    22105298.658
  -2112441.79644  -1646057.77444  20614077.6604   20614078.0864
   1844273.97844   1437098.67844  22647438.8394   22647438.3134
   1643801.43244   1280879.41044  23860307.9284   23860309.7314
  11077695.30344   8631967.81144  22510082.2934   22510083.2784
        -1.00654         0.14054  25181016.2984   25181022.5484
 96  5  7  3 24  0.0000000  0  8G21G23G28G17G26G22G 6G 1
 -13445865.79844 -10477283.34644  22237501.8424   22237503.6844
  -4817878.22544  -3754187.43444  20601479.3624   20601479.2814
 -13236439.648 4 -10314106.216 4  22090412.631    22090412.541
  -2107426.22144  -1642149.52844  20615032.0914   20615032.3654
   1901292.42644   1481528.63144  22658288.9014   22658288.9824
   1689567.40144   1316541.21844  23869016.4654   23869016.8914
  11177025.22244   8709367.73544  22528984.2704   22528984.8064
   -110175.38244                  25160049.8784
 96  5  7  3 24 30.0000000  0  8G21G23G28G17G26G22G 6G 1
 -13507438.72044 -10525262.21644  22225785.5754   22225786.2834
  -4814933.57344  -3751892.88444  20602039.6334   20602039.4354
 -13314307.996 4 -10374782.818 4  22075594.633    22075594.444
  -2102210.64644  -1638085.43244  20616024.6274   20616024.9494
   1958793.49444   1526334.66044  22669231.1054   22669231.1144
   1735647.59444   1352447.79444  23877785.0904   23877786.6244
  11276621.62244   8786975.29244  22547936.7634   22547937.2634
   -220431.38744                  25139069.4554
 96  5  7  3 25  0.0000000  0  8G21G23G28G17G26G22G 6G 1
 -13568794.63244 -10573071.98844  22214109.9134   22214111.1994
  -4811648.02344  -3749332.70844  20602664.9184   20602665.0994
 -13391824.948 4 -10435185.618 4  22060843.388    22060843.864
  -2096802.62344  -1633871.37944  20617053.8584   20617054.0764
   2016750.28444   1571495.79044  22680260.3444   22680260.6744
   1782010.69444   1388574.84344  23886607.6844   23886610.6094
  11376472.99844   8864781.55144  22566937.6154   22566937.9634
   -330766.15044   -257738.19544  25118073.4864
 96  5  7  3 25 30.0000000  0  8G21G23G28G17G26G22G 6G 1
 -13629905.62544 -10620690.90944  22202480.5314   22202481.2704
  -4807985.36244  -3746478.67744  20603361.9074   20603361.7964
 -13468954.004 4 -10495286.177 4  22046166.084    22046166.750
  -2091160.96644  -1629475.27444  20618127.3384   20618127.5484
   2075188.88844   1617032.36144  22691380.9434   22691381.5574
   1828686.00044   1424945.17644  23895488.9574   23895490.1854
  11476610.97344   8942811.11944  22585993.9094   22585994.8074
   -441137.42044                  25097069.5824
 96  5  7  3 26  0.0000000  0  8G21G23G28G17G26G22G 6G 1
 -13690764.22744 -10668113.15644  22190899.8894   22190900.6214
  -4803975.20144  -3743353.86444  20604124.8014   20604124.9914
 -13545691.962 4 -10555081.968 4  22031563.552    22031563.793
  -2085270.46844  -1624885.26744  20619248.2294   20619248.4214
   2134119.61944   1662952.40444  22702594.6754   22702594.3934
   1875687.69944   1461569.81544  23904433.4614   23904436.5204
  11577039.30044   9021066.94144  22605104.6984   22605105.2834
   -551535.37744                  25076062.0574
 96  5  7  3 26 30.0000000  0  8G21G23G28G17G26G22G 6G 1
 -13751358.99444 -10715329.81744  22179368.6894   22179369.3834
  -4799641.25044  -3739976.75144  20604949.7354   20604949.8344
 -13622035.373 4 -10614570.322 4  22017035.789    22017036.120
  -2079118.96144  -1620091.88044  20620418.8514   20620419.1414
   2193529.57644   1709245.88944  22713899.7954   22713899.1724
   1923023.25544   1498454.62844  23913439.8174   23913442.6784
  11677749.62344   9099542.50244  22624269.0014   22624269.5754
   -661950.65744   -515803.19244  25055050.4524
 96  5  7  3 27  0.0000000  0  8G21G23G28G17G26G22G 6G 1
 -13811689.31844 -10762340.42644  22167887.7774   22167888.8814
  -4794989.04244  -3736351.64444  20605835.0674   20605835.0074
 -13697985.434 4 -10673752.180 4  22002583.044    22002583.176
  -2072691.63844  -1615083.56444  20621642.1494   20621642.3864
   2253414.29044   1755909.30144  22725295.6184   22725295.1064
   1970686.10144   1535594.45244  23922511.3534   23922513.8254
  11778724.10744   9178223.89644  22643483.6344   22643483.7374
   -772385.01044   -601855.71244  25034034.1004
 96  5  7  3 27 30.0000000  0  8G21G23G28G17G26G22G 6G 1
 -13871742.23944 -10809134.87544  22156460.5564   22156461.7344
  -4790024.85644  -3732483.43444  20606779.8414   20606779.6294
 -13773531.052 4 -10732618.885 4  21988207.605    21988207.341
  -2065976.67244  -1609851.11544  20622919.5144   20622919.9824
   2313797.84144   1802961.41244  22736786.5444   22736785.6754
   2018681.73244   1572993.58744  23931645.1934   23931646.1674
  11879975.84844   9257121.34644  22662751.3764   22662751.8484
   -882840.44544                  25013015.5814
 96  5  7  3 28  0.0000000  0  8G21G23G28G17G26G22G 6G 1
 -13931511.10144 -10855707.97244  22145086.5004   22145087.9724
  -4784756.45944  -3728378.17944  20607781.9984   20607782.2534
 -13848670.881 4 -10791169.396 4  21973908.778    21973908.987
  -2058986.99144  -1604404.60144  20624249.7584   20624250.2184
   2374677.02744   1850399.73944  22748371.3494   22748370.7644
   2067005.09344   1610648.09844  23940840.7164   23940843.8024
  11981502.92044   9336233.32944  22682071.7424   22682072.3844
   -993328.40844                  24991991.2254
 96  5  7  3 28 30.0000000  0  8G21G23G28G17G26G22G 6G 1
 -13991020.56444 -10902078.95244  22133762.3094   22133763.7914
  -4779195.72644  -3724045.12944  20608840.2654   20608840.2904
 -13923433.548 4 -10849426.023 4  21959681.793    21959682.202
  -2051760.34644  -1598773.43744  20625624.7204   20625625.1834
   2436010.26744   1898191.87744  22760042.8544   22760041.8944
   2115604.70944   1648517.89044  23950089.0044   23950091.9914
  12083288.49444   9415546.73844  22701440.6594   22701441.3254
  -1103889.97144                  24970951.3584
 96  5  7  3 29  0.0000000  0  8G21G23G28G17G26G22G 6G 1
 -14050264.40244 -10948242.94844  22122488.6494   22122489.7414
  -4773327.46644  -3719472.44544  20609956.8644   20609956.9614
 -13997819.046 4 -10907388.749 4  21945526.607    21945527.000
  -2044294.14244  -1592955.60644  20627045.5034   20627046.0884
   2497811.09344   1946348.36244  22771803.0284   22771802.7484
   2164466.43844   1686591.90844  23959386.0914   23959388.3004
  12185347.47344   9495073.18844  22720861.7914   22720862.6584
  -1214546.33644                  24949894.5424
 96  5  7  3 29 30.0000000  0  8G21G23G28G17G26G22G 6G 1
 -14109224.16744 -10994185.58544  22111268.9284   22111270.3214
  -4767120.11144  -3714635.54244  20611138.2604   20611138.3394
 -14071802.896 4 -10965038.502 4  21931447.941    21931448.070
  -2036579.88044  -1586944.48244  20628513.5104   20628513.9084
   2560098.00844   1994883.62844  22783655.6164   22783655.5864
   2213628.71844   1724900.10344  23968741.4434   23968746.4454
  12287716.22944   9574841.04344  22740341.5504   22740342.6004
  -1325292.08144  -1032691.10944  24928820.7114
 96  5  7  3 30  0.0000000  0  8G21G23G28G17G26G22G 6G 1
 -14167913.93844 -11039917.84244  22100100.3574   22100101.5204
  -4760560.31444  -3709524.00244  20612386.5874   20612386.2474
 -14145385.952 4 -11022375.949 4  21917445.807    21917445.782
  -2028614.08244  -1580737.35944  20630029.3454   20630029.8414
   2622858.96944   2043788.27444  22795598.9184   22795598.2704
   2263103.98144   1763452.21344  23978156.8864   23978159.3114
  12390384.20144   9654842.03544  22759878.5534   22759879.1944
  -1436125.91044  -1119054.88344  24907727.9714
 96  5  7  3 30 30.0000000  0  8G21G23G28G17G26G22G 6G 1
 -14226331.74544 -11085438.17044  22088984.3054   22088985.3144
  -4753647.33144  -3704137.24844  20613701.8404   20613702.1524
 -14218567.253 4 -11079400.338 4  21903519.793    21903519.954
  -2020396.84744  -1574334.30644  20631593.4234   20631593.7744
   2686096.03644   2093063.91244  22807632.1534   22807632.4784
   2312893.49644   1802249.19944  23987632.0444   23987633.7214
  12493337.53644   9735065.38444  22779470.6264   22779471.7984
  -1547033.60144                  24886623.5994
 96  5  7  3 31  0.0000000  0  8G21G23G28G17G26G22G 6G 1
 -14284483.07844 -11130750.86344  22077918.3074   22077919.4954
  -4746384.35544  -3698477.78144  20615084.0824   20615084.2544
 -14291341.067 4 -11136107.211 4  21889671.293    21889671.576
  -2011937.30144  -1567742.44444  20633203.0194   20633203.3924
   2749818.79244   2142718.01644  22819758.4724   22819758.3994
   2363010.18744   1841301.11744  23997168.7604   23997170.4794
  12596554.46644   9815494.12344  22799112.1044   22799112.7604
  -1657999.86644  -1291943.24444  24865507.3964
 96  5  7  3 31 30.0000000  0  8G21G23G28G17G26G22G 6G 1
 -14342395.53544 -11175877.41444  22066897.9354   22066899.3834
  -4738788.72944  -3692559.10444  20616529.4434   20616529.6254
 -14363714.684 4 -11192502.234 4  21875899.122    21875899.344
  -2003251.96344  -1560974.63744  20634855.6564   20634856.2164
   2814012.02444   2192738.71644  22831973.8644   22831973.1074
   2413444.08544   1880600.19044  24006765.7664   24006768.8354
  12700002.64344   9896103.07644  22818797.4654   22818798.4964
  -1769003.63944  -1378439.50744  24844383.7534
 96  5  7  3 32  0.0000000  0  8G21G23G28G17G26G22G 6G 1
 -14400053.39144 -11220805.58044  22055925.9414   22055926.7504
  -4730869.02744  -3686387.89644  20618036.4304   20618036.3484
 -14435677.900 4 -11248577.459 4  21862204.912    21862205.335
  -1994325.70844  -1554019.10544  20636554.3764   20636554.4454
   2878678.27844   2243128.01644  22844279.7724   22844280.0334
   2464176.87444   1920132.19944  24016419.7334   24016422.1304
  12803670.14444   9976882.91544  22838524.1324   22838525.3464
  -1880009.61844                  24823260.8874
 96  5  7  3 32 30.0000000  0  8G21G23G28G17G26G22G 6G 1
 -14457461.16544 -11265538.87244  22045001.4474   22045002.0854
  -4722656.08844  -3679988.19344  20619599.2414   20619599.1834
 -14507238.220 4 -11304338.736 4  21848587.419    21848587.597
  -1985174.15344  -1546888.01544  20638295.7214   20638295.9884
   2943806.11544   2293876.97944  22856672.5344   22856673.1004
   2515171.80144   1959868.43044  24026124.7334   24026127.0784
  12907542.49844  10057822.37144  22858291.4454   22858293.1214
  -1991024.30044                  24802134.7874
 96  5  7  3 33  0.0000000  0  8G21G23G28G17G26G22G 6G 1
 -14514640.12444 -11310093.86444  22034120.2904   22034122.0094
  -4714154.04144  -3673363.21244  20621217.1094   20621216.9964
 -14578395.944 4 -11359786.304 4  21835046.669    21835046.891
  -1975781.71044  -1539569.22244  20640083.0554   20640083.3794
   3009376.47344   2344970.74944  22869150.7814   22869150.2174
   2566425.73444   1999806.49544  24035876.9444   24035878.8304
  13011625.06944  10138925.64344  22878097.3374   22878098.5564
  -2102052.87444  -1637957.87644  24781005.3674
 96  5  7  3 33 30.0000000  0  8G21G23G28G17G26G22G 6G 1
 -14571578.50444 -11354461.39544  22023285.3504   22023286.4534
  -4705359.06844  -3666509.97644  20622890.8464   20622890.7124
 -14649143.845 4 -11414914.525 4  21821583.899    21821583.832
  -1966126.87444  -1532045.96444  20641920.2164   20641920.7254
   3075379.20544   2396401.45544  22881710.1884   22881710.6114
   2617945.91244   2039952.01844  24045681.4734   24045683.5414
  13115927.86044  10220200.51144  22897945.1994   22897945.5954
  -2213089.95544  -1724480.10244  24759877.2304
 96  5  7  3 34  0.0000000  0  8G21G23G28G17G26G22G 6G 1
 -14628252.75844 -11398623.11544  22012500.4724   22012501.5844
  -4696254.46244  -3659415.46744  20624623.5044   20624623.6124
 -14719469.454 4 -11469713.671 4  21808201.168    21808201.273
  -1956206.87144  -1524316.08244  20643807.9824   20643808.4244
   3141814.58844   2448169.28944  22894352.2194   22894352.5604
   2669738.17744   2080309.58744  24055536.2794   24055538.3274
  13220469.66844  10301661.63244  22917838.2954   22917839.9844
  -2324144.77644  -1811016.20244  24738744.1344   24738744.6234
 96  5  7  3 34 30.0000000  0  8G21G23G28G17G26G22G 6G 1
 -14684663.32244 -11442579.36644  22001766.2944   22001766.8204
  -4686816.82944  -3652061.46044  20626419.3784   20626419.3404
 -14789364.672 4 -11524177.447 4  21794900.191    21794900.674
  -1946020.75044  -1516378.84344  20645746.3154   20645746.4804
   3208687.14644   2500277.77344  22907077.8014   22907078.0634
   2721822.49544   2120894.74244  24065447.7714   24065450.8994
  13325261.32044  10383317.45644  22937779.9354   22937781.4624
  -2435233.90544  -1897579.03844  24717603.4084
 96  5  7  3 35  0.0000000  0  8G21G23G28G17G26G22G 6G 1
 -14740810.19744 -11486330.14444  21991081.2664   21991082.8574
  -4677032.78544  -3644437.51644  20628281.1364   20628280.9654
 -14858830.950 4 -11578307.001 4  21781681.405    21781681.941
  -1935564.28044  -1508230.93844  20647736.3314   20647736.8084
   3275987.14844   2552719.33244  22919884.4764   22919884.8504
   2774213.75144   2161719.04844  24075417.4824   24075421.2814
  13430300.61244  10465166.23544  22957768.2804   22957769.1534
  -2546369.45544  -1984178.03244  24696455.4554   24696454.3594
 96  5  7  3 35 30.0000000  0  8G21G23G28G17G26G22G 6G 1
 -14796661.60944 -11529850.68444  21980453.1254   21980454.2624
  -4666893.02144  -3636536.39344  20630210.5574   20630210.4944
 -14927853.137 4 -11632090.493 4  21768547.200    21768547.021
  -1924832.66344  -1499868.63444  20649778.3194   20649778.7674
   3343738.62544   2605512.69944  22932777.8334   22932776.7294
   2826912.71344   2202783.10744  24085445.9814   24085450.7294
  13535601.16844  10547218.57344  22977806.9174   22977807.3474
  -2657541.32344  -2070805.35944  24675300.0034   24675302.1014
 96  5  7  3 36  0.0000000  0  8G21G23G28G17G26G22G 6G 1
 -14852257.50944 -11573172.12644  21969873.5034   21969875.0514
  -4656433.41244  -3628386.04244  20632200.9504   20632200.9934
 -14996462.185 4 -11685552.044 4  21755491.080    21755491.070
  -1913862.09944  -1491320.13644  20651865.9094   20651866.4224
   3411922.28244   2658642.83344  22945753.0154   22945752.1624
   2879871.27544   2244049.45444  24095524.3294   24095529.2954
  13641127.25044  10629446.65744  22997887.7954   22997888.3504
  -2768774.78644  -2157480.68744  24654133.2354
 96  5  7  3 36 30.0000000  0  8G21G23G28G17G26G22G 6G 1
 -14907576.37844 -11616277.69844  21959347.0844   21959347.8264
  -4645643.16544  -3619978.04644  20634254.3444   20634254.2564
 -15064626.608 4 -11738667.148 4  21742519.447    21742519.784
  -1902600.11544  -1482544.55344  20654009.0174   20654009.3624
   3480568.09544   2712133.07344  22958815.4734   22958815.2134
   2933121.84844   2285543.35144  24105658.0864   24105659.1474
  13746904.27344  10711870.31044  23018016.5044   23018017.5634
  -2880029.96444  -2244172.94444  24632962.3294   24632963.7624
 96  5  7  3 37  0.0000000  0  8G21G23G28G17G26G22G 6G 1
 -14962582.80944 -11659139.81044  21948879.6194   21948880.2004
  -4634515.10544  -3611306.82144  20636371.7464   20636371.9824
 -15132317.007 4 -11791412.890 4  21729638.801    21729639.297
  -1891021.66644  -1473522.37844  20656212.4404   20656212.4774
   3549711.39944   2766010.95344  22971972.8084   22971971.8404
   2986680.61344   2327277.42144  24115849.2834   24115851.0874
  13852965.54044  10794515.43944  23038199.0954   23038200.3864
  -2991242.19844  -2330831.72844  24611799.4554   24611800.4404
 96  5  7  3 37 30.0000000  0  7G21G28G23G17G26G22G 1
 -15017300.42944 -11701776.87244  21938467.3574   21938468.3314
 -15199554.948 4 -11843806.058 4  21716843.675    21716844.253
  -4623099.69844  -3602411.68544  20638544.2564   20638544.2934
  -1879171.30944  -1464288.32844  20658467.3494   20658467.6294
   3619345.11844   2820270.98044  22985223.8164   22985222.2444
   3040503.37044   2369217.19444  24126091.6164   24126091.8774
  -3102411.95944  -2417457.49644  24590642.4974   24590643.2534
 96  5  7  3 38  0.0000000  0  7G21G28G23G17G26G22G 1
 -15071760.23544 -11744213.05044  21928103.7134   21928104.5794
 -15266359.507 4 -11895861.523 4  21704131.122    21704131.643
  -4611430.49144  -3593318.78644  20640764.7354   20640764.8954
  -1867082.40444  -1454868.39844  20660767.7104   20660767.9674
   3689430.70344   2874883.11544  22998560.5264   22998560.3564
   3094569.25344   2411346.45444  24136380.8034   24136381.5384
  -3213551.20344  -2504059.40044  24569493.0164   24569496.0454
 96  5  7  3 38 30.0000000  0  7G21G28G23G17G26G22G 1
 -15125938.89644 -11786430.15044  21917794.0474   21917795.0364
 -15332701.355 4 -11947556.443 4  21691506.553    21691506.783
  -4599485.23644  -3584010.78044  20643037.6774   20643037.7564
  -1854730.79744  -1445243.76544  20663118.3274   20663118.6984
   3759986.71444   2929861.82944  23011987.0914   23011986.9254
   3148911.22044   2453690.76844  24146720.1994   24146723.5724
  -3324638.93744  -2590621.18644  24548354.7474   24548360.2614
 96  5  7  3 39  0.0000000  0  7G21G28G26G23G17G22G 1
 -15179876.87444 -11828459.70644  21907529.8024   21907530.4334
 -15398616.080 4 -11998918.546 4  21678963.471    21678963.530
   3830974.76644   2985177.20844  23025495.6094   23025495.1344
  -4587290.45044  -3574508.33544  20645358.5214   20645358.3594
  -1842171.15844  -1435457.02544  20665507.9464   20665508.0794
   3203476.03244   2496208.76244  24157104.3804   24157107.2904
  -3435714.56644  -2677173.53744  24527218.6224   24527221.2834
 96  5  7  3 39 30.0000000  0  7G21G28G23G17G26G22G 1
 -15233594.83944 -11870317.82844  21897307.6074   21897308.5424
 -15464112.279 4 -12049954.518 4  21666500.117    21666500.041
  -4574841.56444  -3564807.89244  20647727.4054   20647727.5534
  -1829399.79044  -1425505.30344  20667938.5714   20667938.8684
   3902362.14144   3040803.76544  23039079.8074   23039080.0254
   3258244.45344   2538885.41444  24167526.3734   24167529.8194
  -3546823.68144  -2763751.98344  24506075.2174
 96  5  7  3 40  0.0000000  0  7G21G28G23G17G26G22G 1
 -15287083.60544 -11911997.35244  21887128.8724   21887130.2414
 -15529174.992 4 -12100652.710 4  21654118.991    21654119.322
  -4562101.08644  -3554880.23544  20650151.8134   20650151.8734
  -1816374.38344  -1415355.62644  20670417.1494   20670417.4994
   3974138.24944   3096733.19344  23052738.2264   23052738.1824
   3313237.03144   2581736.71644  24177991.7224   24177994.9564
  -3657970.82544  -2850360.06144  24484924.7674   24484925.5364
 96  5  7  3 40 30.0000000  0  7G21G28G23G17G26G22G 1
 -15340341.05144 -11953496.63344  21876994.8454   21876995.4564
 -15593809.865 4 -12151017.520 4  21641819.443    21641819.703
  -4549053.24144  -3544713.06544  20652634.6494   20652634.5954
  -1803079.56544  -1404996.02044  20672947.0384   20672947.3314
   4046305.20244   3152967.18244  23066471.3334   23066471.1234
   3368440.33444   2624752.22544  24188495.9874   24188497.7684
  -3769166.67744  -2937006.07344  24463763.5704   24463768.6134
 96  5  7  3 41  0.0000000  0  7G21G28G23G17G26G22G 1
 -15393335.61044 -11994791.06244  21866910.0014   21866910.7144
 -15658001.982 4 -12201037.329 4  21629603.837    21629604.325
  -4535687.47044  -3534298.16444  20655178.0504   20655178.1484
  -1789491.22744  -1394407.69544  20675533.1694   20675533.3434
   4118860.35944   3209503.66444  23080278.3714   23080276.7174
   3423856.23544   2667933.37544  24199040.6824   24199042.9394
  -3880387.26144  -3023671.40344  24442599.0214   24442602.0894
 96  5  7  3 41 30.0000000  0  7G21G28G23G17G26G22G 1
 -15446041.61844 -12035860.64444  21856880.5174   21856881.2804
 -15721727.785 4 -12250693.775 4  21617477.304    21617477.382
  -4521992.52844  -3523626.76944  20657784.2484   20657784.0844
  -1775585.71744  -1383572.22744  20678178.9694   20678179.4724
   4191815.27544   3266351.65144  23094161.1654   23094160.3594
   3479524.90844   2711311.53444  24209634.6904   24209637.8144
  -3991598.94544  -3110329.75944  24421436.2604   24421437.5224
 96  5  7  3 42  0.0000000  0  7G21G28G26G23G17G22G 1
 -15498468.62144 -12076712.82144  21846903.8654   21846904.9464
 -15784990.793 4 -12299989.596 4  21605438.828    21605439.096
   4265171.18444   3323512.09744  23108119.8944   23108119.6354
  -4507981.03244  -3512708.71344  20660450.4974   20660450.5164
  -1761382.39144  -1372504.69144  20680881.7604   20680882.0924
   3535450.66544   2754889.98544  24220278.0984   24220280.2624
  -4102787.32944  -3196969.97944  24400278.0274   24400279.7394
 96  5  7  3 42 30.0000000  0  7G21G23G28G17G26G22G 1
 -15550606.07344 -12117339.38044  21836982.1984   21836983.7004
  -4493653.01444  -3501544.01244  20663176.8234   20663177.0824
 -15847776.635 4 -12348913.612 4  21593490.852    21593491.350
  -1746890.75844  -1361212.50144  20683639.4944   20683639.8934
   4338942.38844   3380996.14144  23122158.5854   23122158.6784
   3591636.55744   2798671.15344  24230970.1054   24230970.3094
  -4213925.19944  -3283570.82844  24379129.5244   24379130.0424
 96  5  7  3 43  0.0000000  0  7G21G23G28G17G26G22G 1
 -15602454.72244 -12157740.89444  21827115.3574   21827116.4624
  -4479022.37644  -3490143.50644  20665961.0684   20665961.1374
 -15910071.859 4 -12397455.324 4  21581636.688    21581636.854
  -1732120.17244  -1349702.93744  20686449.9184   20686450.5804
   4413133.03644   3438807.03644  23136276.6644   23136276.4454
   3648104.84444   2842672.38344  24241715.6384   24241718.0654
  -4325001.51444  -3370123.71544  24357991.5084   24357993.9044
 96  5  7  3 43 30.0000000  0  8G21G23G28G17G26G22G 9G 1
 -15654022.49244 -12197923.54444  21817302.8264   21817303.3954
  -4464072.77644  -3478494.45444  20668805.9674   20668806.1434
 -15971864.790 4 -12445605.630 4  21569877.826    21569878.117
  -1717074.08044  -1337978.69244  20689313.3644   20689313.6804
   4487760.07444   3496957.98244  23150477.7314   23150477.3644
   3704865.96744   2886901.78044  24252516.6044   24252518.9154
        -0.34754         8.01154  25080134.2104   25080133.8474
  -4436010.85344  -3456624.44344  24336867.1514   24336868.6164
 96  5  7  3 44  0.0000000  0  8G21G23G28G17G26G22G 9G 1
 -15705318.63944 -12237894.53444  21807541.2334   21807542.1894
  -4448819.52044  -3466608.79044  20671708.2654   20671708.5894
 -16033173.882 4 -12493378.937 4  21558211.175    21558211.458
  -1701776.79744  -1326058.71244  20692224.4614   20692224.9164
   4562809.63144   3555438.16144  23164759.0574   23164758.1524
   3761876.65244   2931325.60044  24263365.0794   24263367.6644
    -61469.93844    -47900.62444  25068436.8784   25068436.8074
  -4546977.42744  -3543091.82944  24315750.7504   24315751.5324
 96  5  7  3 44 30.0000000  0  8G21G23G28G17G26G22G 9G 1
 -15756348.41844 -12277657.96844  21797830.7584   21797831.5664
  -4433285.84244  -3454504.55944  20674664.3394   20674664.5654
 -16094009.414 4 -12540783.228 4  21546634.701    21546634.725
  -1686238.15944  -1313950.75544  20695181.3184   20695181.6534
   4638272.10044   3614240.10244  23179118.8844   23179119.4244
   3819114.42944   2975926.41744  24274256.9034   24274259.5404
   -122796.18444    -95690.98544  25056766.5614   25056767.0994
  -4657904.38244  -3629528.36344  24294641.8664   24294644.7064
 96  5  7  3 45  0.0000000  0  8G21G23G28G17G26G22G 9G 1
 -15807117.04244 -12317217.90344  21788169.7224   21788170.5104
  -4417477.31744  -3442186.22944  20677672.5644   20677672.7914
 -16154372.387 4 -12587819.286 4  21535148.065    21535148.143
  -1670453.73744  -1301651.16344  20698184.9554   20698185.3884
   4714140.89344   3673358.65744  23193556.2934   23193556.2304
   3876577.07544   3020702.44844  24285190.8384   24285194.2484
   -184003.35344   -143384.50244  25045118.3574   25045116.7164
  -4768793.08344  -3715935.06744  24273541.1194   24273543.9674
 96  5  7  3 45 30.0000000  0  8G21G23G28G17G26G22G 9G 1
 -15857630.51944 -12356579.01344  21778557.3734   21778557.9664
  -4401387.50444  -3429648.70544  20680734.3434   20680734.5164
 -16214266.661 4 -12634490.130 4  21523750.353    21523750.330
  -1654420.06344  -1289157.36944  20701236.0634   20701236.5144
   4790406.22644   3732786.17944  23208068.2854   23208068.8474
   3934239.37844   3065634.04844  24296164.2844   24296169.6474
   -245106.53744                  25033490.5904
  -4879644.43144  -3802312.66344  24252447.0264   24252448.8174
 96  5  7  3 46  0.0000000  0  8G21G23G28G17G26G22G 9G 1
 -15907884.10644 -12395737.61844  21768994.3904   21768995.4664
  -4385011.20344  -3416887.93744  20683850.8204   20683850.7284
 -16273680.865 4 -12680786.899 4  21512444.052    21512444.076
  -1638109.74444  -1276448.01544  20704339.8184   20704340.3294
   4867081.59244   3792533.21544  23222659.6424   23222659.7114
   3992110.03644   3110728.03244  24307176.3944   24307179.9704
   -306103.42644                  25021884.1584
  -4990454.86444  -3888658.39044  24231360.3834   24231362.7604
 96  5  7  3 46 30.0000000  0  8G21G23G28G17G26G22G 9G 1
 -15957905.21744 -12434715.07444  21759475.8024   21759476.3954
  -4368357.47844  -3403910.98644  20687019.7324   20687019.9834
 -16332617.442 4 -12726711.492 4  21501228.780    21501229.199
  -1621506.11944  -1263510.11644  20707499.2204   20707499.7594
   4944159.90344   3852594.22444  23237327.6524   23237326.8184
   4050180.34244   3155977.54544  24318226.6854   24318232.0284
   -366997.50744                  25010296.7624
  -5101238.30944  -3974983.07244  24210277.6114   24210279.5934
 96  5  7  3 47  0.0000000  0  8G21G23G28G17G26G22G 9G 1
 -16007699.26644 -12473515.59644  21750000.2134   21750001.1324
  -4351418.43644  -3390711.72144  20690243.1384   20690243.4344
 -16391078.096 4 -12772265.232 4  21490104.230    21490104.422
  -1604607.31344  -1250342.20444  20710715.0844   20710715.5964
   5021634.06244   3912963.70244  23252070.6224   23252070.9134
   4108440.70944   3201375.17444  24329315.2684   24329319.3864
   -427764.90844   -333328.73544  24998732.8584
  -5212013.27544  -4061301.13144  24189197.8024   24189201.1974
 96  5  7  3 47 30.0000000  0  8G21G23G28G17G26G22G 9G 1
 -16057256.20444 -12512131.36244  21740569.7524   21740570.7074
  -4334190.15044  -3377287.07344  20693521.5214   20693521.5574
 -16449062.927 4 -12817448.198 4  21479070.026    21479070.368
  -1587424.86344  -1236953.26144  20713984.8044   20713985.3494
   5099510.89044   3973646.97144  23266889.8214   23266888.5774
   4166883.50544   3246914.95044  24340434.8324   24340436.6374
   -488389.22844                  24987196.7654
  -5322787.80444  -4147618.86744  24168119.1074   24168122.3784
 96  5  7  3 48  0.0000000  0  8G21G23G28G17G26G22G 9G 1
 -16106559.79344 -12550549.70644  21731187.6514   21731188.2964
  -4316672.97844  -3363637.31444  20696854.6644   20696855.0374
 -16506558.185 4 -12862249.692 4  21468129.156    21468129.321
  -1569958.46344  -1223343.06744  20717308.1934   20717308.6144
   5177794.15944   4034646.91044  23281786.7834   23281786.9704
   4225525.57344   3292609.98144  24351594.1964   24351597.4064
   -548858.75244   -427687.63944  24975688.5404
  -5433541.88744  -4233920.67144  24147043.2534   24147046.4244
 96  5  7  3 48 30.0000000  0  8G21G23G28G17G26G22G 9G 1
 -16155596.86244 -12588760.37444  21721856.1114   21721857.2254
  -4298871.77344  -3349766.24144  20700242.3694   20700242.6454
 -16563558.505 4 -12906665.507 4  21457282.395    21457282.286
  -1552231.75444  -1209530.02644  20720681.9374   20720682.1874
   5256466.67944   4095950.16644  23296757.6894   23296757.8954
   4284371.54744   3338463.91344  24362792.8174   24362794.5664
   -609163.70744                  24964213.9134
  -5544255.57044  -4320190.98744  24125974.9824   24125978.9454
 96  5  7  3 49  0.0000000  0  8G21G23G28G17G26G22G 9G 1
 -16204360.54344 -12626758.01744  21712576.7884   21712577.6734
  -4280796.69744  -3335681.75344  20703681.9604   20703682.2494
 -16620072.132 4 -12950702.083 4  21446527.844    21446528.066
  -1534279.09644  -1195540.93244  20724098.0824   20724098.3514
   5335508.64244   4157541.32044  23311798.6454   23311798.2844
   4343429.04044   3384482.68044  24374032.3524   24374034.4554
   -669323.57644   -521556.35644  24952765.7024
  -5654921.60344  -4406424.15644  24104915.1804   24104916.7144
 96  5  7  3 49 30.0000000  0  8G21G23G28G17G26G22G 9G 1
 -16252839.73544 -12664533.98244  21703351.1094   21703352.1354
  -4262450.02044  -3321385.62944  20707173.1514   20707173.3584
 -16676088.591 4 -12994351.269 4  21435868.058    21435868.372
  -1516088.81544  -1181366.67744  20727559.4654   20727560.0234
   5414909.65344   4219412.24344  23326908.1134   23326907.8114
   4402710.99644   3430676.35744  24385313.0484   24385315.3364
   -729344.87844                  24941344.4754
  -5765524.23144  -4492607.92844  24083867.9734   24083872.2784
 96  5  7  3 50  0.0000000  0  8G21G23G28G17G26G22G 9G 1
 -16301043.85044 -12702095.59444  21694178.0954   21694178.8374
  -4243838.17244  -3306882.87844  20710715.1104   20710715.1074
 -16731602.507 4 -13037608.851 4  21425304.298    21425304.632
  -1497634.42444  -1166986.61944  20731071.0894   20731071.4924
   5494664.57844   4281558.93644  23342084.9244   23342085.7404
   4462212.01444   3477040.76544  24396635.2134   24396637.1164
   -789226.36944   -614987.07544  24929949.3884
  -5876050.11244  -4578731.90744  24062835.4964   24062836.5864
 96  5  7  3 50 30.0000000  0  8G21G23G28G17G26G22G 9G 1
 -16348976.58544 -12739445.73644  21685056.8414   21685057.7834
  -4224953.16844  -3292167.27444  20714308.7564   20714308.8154
 -16786614.129 4 -13080475.035 4  21414835.857    21414836.045
  -1478897.60444  -1152386.49044  20734636.6924   20734637.2584
   5574783.98544   4343989.63244  23357331.1464   23357331.5494
   4521922.33844   3523568.24344  24407997.5644   24408000.1864
   -848959.08444                  24918581.3104
  -5986499.42344  -4664796.21744  24041818.4744   24041819.0934
 96  5  7  3 51  0.0000000  0  8G21G23G28G17G26G22G 9G 1
 -16396623.90844 -12776573.47644  21675989.8634   21675991.0854
  -4205776.04644  -3277224.05044  20717957.8204   20717958.0364
 -16841110.253 4 -13122939.530 4  21404465.791    21404465.998
  -1459842.12744  -1137538.05744  20738262.7644   20738263.2524
   5655293.15044   4406724.06044  23372651.7384   23372651.4634
   4581835.89444   3570254.03944  24419398.0504   24419401.6904
   -908535.72444                  24907245.0014
  -6096868.24544  -4750797.80544  24020815.7064   24020815.2704
 96  5  7  3 51 30.0000000  0  8G21G23G28G17G26G22G 9G 1
 -16444014.82844 -12813501.43044  21666971.9804   21666972.8854
  -4186323.20044  -3262065.96344  20721659.5134   20721659.6804
 -16895105.706 4 -13165013.894 4  21394190.938    21394190.889
  -1440467.20244  -1122440.71444  20741949.7964   20741950.1924
   5736184.57644   4469756.34544  23388044.4614   23388044.3594
   4641919.40744   3617072.30644  24430830.6104   24430838.0914
   -967963.69944                  24895936.8204
  -6207162.35244  -4836741.15444  23999827.6374   23999830.0924
 96  5  7  3 52  0.0000000  0  8G21G23G28G17G26G22G 9G 1
 -16491162.89744 -12850240.14544  21657999.6024   21658000.4114
  -4166601.16944  -3246698.12244  20725412.5104   20725412.6494
 -16948602.487 4 -13206699.679 4  21384010.643    21384010.671
  -1420784.25644  -1107103.35744  20745695.3814   20745695.7614
   5817471.33344   4533096.68144  23403513.3914   23403513.0014
   4702165.01244   3664016.82544  24442295.4504   24442300.8834
  -1027232.33044                  24884658.0624
  -6317375.18844  -4922621.21044  23978854.7744   23978857.0884
 96  5  7  3 52 30.0000000  0  8G21G23G28G17G26G22G 9G 1
 -16538055.73344 -12886779.97244  21649076.2214   21649077.1944
  -4146600.93744  -3231113.56144  20729218.5464   20729218.6374
 -17001589.733 4 -13247988.421 4  21373927.370    21373927.689
  -1400804.17644  -1091534.39844  20749497.3594   20749497.6834
   5899147.16044   4596740.17144  23419055.4004   23419055.3264
   4762587.03744   3711098.83444  24453794.9004   24453798.8524
  -1086327.76644                  24873412.5674
  -6427503.54744  -5008435.40844  23957896.6354   23957898.5454
 96  5  7  3 53  0.0000000  0  8G21G23G28G17G26G22G 9G 1
 -16584697.18744 -12923123.92644  21640200.7454   21640201.6414
  -4126341.50144  -3215326.97244  20733073.7964   20733073.4934
 -17054066.099 4 -13288879.077 4  21363941.514    21363941.620
  -1380540.33344  -1075744.32244  20753353.3434   20753353.4874
   5981198.08544   4660675.98644  23434669.5174   23434669.4384
   4823179.30844   3758313.55544  24465326.1434   24465329.7814
  -1145252.07544                  24862198.7724
  -6537561.20144  -5094194.51944  23936953.2864   23936956.4894
 96  5  7  3 53 30.0000000  0  7G21G28G26G22G 1G23G17
 -16631109.79244 -12959289.57244  21631368.6034   21631369.7694
 -17106038.954 4 -13329377.374 4  21354051.343    21354051.628
   6063603.34344   4724887.89744  23450349.7084   23450349.2344
   4883931.03744   3805652.47944  24476886.8034   24476887.5484
  -6647552.14044  -5179901.63444  23916022.9444   23916022.2744
  -4105847.25244  -3199357.40344  20736973.6274   20736973.7624
  -1360018.11744  -1059753.00844  20757258.5684   20757258.8884
 96  5  7  3 54  0.0000000  0  7G21G28G26G22G23G17G 1
 -16677298.38944 -12995280.65344  21622579.2744   21622579.7264
 -17157518.331 4 -13369491.154 4  21344255.268    21344255.586
   6146334.92744   4789354.06644  23466093.1614   23466094.6654
   4944823.77644   3853101.29744  24488473.7824   24488475.7944
  -4085138.87644  -3183220.98844  20740914.1464   20740914.2554
  -1339260.00744  -1043577.86044  20761208.6164   20761209.0324
  -6757504.87344  -5265579.02544  23895099.4834   23895100.8534
 96  5  7  3 54 30.0000000  0  7G21G28G26G22G 1G23G17
 -16723231.07644 -13031072.32044  21613838.5894   21613839.1064
 -17208483.769 4 -13409204.449 4  21334556.749    21334557.151
   6229399.00944   4854079.33644  23481900.2174   23481900.1504
   5005868.22844   3900668.37144  24500089.4804   24500092.6544
  -6867404.60944  -5351215.07744  23874185.7994   23874187.0394
  -4064196.34344  -3166902.11344  20744899.5564   20744899.5314
  -1318238.69144  -1027197.61244  20765208.9064   20765209.5054
 96  5  7  3 55  0.0000000  0  7G21G28G23G17G26G22G 1
 -16768894.42644 -13066654.12744  21605149.0034   21605149.6484
 -17258925.734 4 -13448509.852 4  21324957.774    21324958.123
  -4043008.63744  -3150392.20444  20748931.3214   20748931.4204
  -1296938.33844  -1010599.92844  20769262.3924   20769262.7274
   6312808.14744   4919073.49744  23497773.1694   23497771.6544
   5067071.84844   3948359.45144  24511735.7384   24511738.9844
  -6977230.17844  -5436793.36244  23853287.7674   23853288.4984
 96  5  7  3 55 30.0000000  0  7G21G28G23G17G26G22G 1
 -16814286.99644 -13102024.92944  21596511.0894   21596511.5294
 -17308848.574 4 -13487410.738 4  21315457.950    21315457.969
  -4021564.16444  -3133682.20944  20753012.2624   20753012.0894
  -1275355.38644   -993782.03744  20773369.4464   20773369.9404
   6396552.69744   4984329.00844  23513708.8564   23513709.1804
   5128440.86444   3996179.39044  24523415.0744   24523418.8674
  -7086971.67944  -5522306.11844  23832404.4864   23832405.9194
 96  5  7  3 56  0.0000000  0  7G21G28G23G17G26G22G 1
 -16859383.48944 -13137165.01744  21587929.4644   21587930.0244
 -17358231.252 4 -13525890.720 4  21306061.056    21306060.811
  -3999831.24844  -3116747.45444  20757147.6954   20757147.5504
  -1253458.76944   -976719.73044  20777536.3604   20777536.7524
   6480647.50444   5049857.39944  23529711.5144   23529711.7724
   5189998.24844   4044146.15244  24535129.2774   24535133.1074
  -7196613.72544  -5607741.36644  23811540.4614   23811542.9254
 96  5  7  3 56 30.0000000  0  8G21G28G23G17G26G22G 9G 1
 -16904188.48144 -13172077.96744  21579403.3084   21579403.9934
 -17407071.351 4 -13563947.916 4  21296766.916    21296766.885
  -3977799.09244  -3099579.52644  20761340.2134   20761340.1154
  -1231247.75844   -959412.44544  20781763.0204   20781763.2684
   6565104.10244   5115667.74644  23545782.7894   23545782.9264
   5251748.26744   4092263.01844  24546878.4984   24546882.9894
        -1.17854                  24784670.1844
  -7306146.05144  -5693091.16444  23790697.0644   23790698.6924
 96  5  7  3 57  0.0000000  0  8G21G28G23G17G26G22G 9G 1
 -16948742.83144 -13206795.60744  21570924.8944   21570925.5134
 -17455393.397 4 -13601601.434 4  21287571.239    21287571.712
  -3955491.85544  -3082197.25244  20765585.2104   20765585.1734
  -1208759.39544   -941889.03644  20786041.9984   20786042.4004
   6649890.70044   5181735.23044  23561917.3364   23561916.8194
   5313660.90544   4140506.58444  24558658.3544   24558665.7694
    -57473.19144                  24773734.3404
  -7415585.73544  -5778368.72944  23769871.0064   23769872.7594
 96  5  7  3 57 30.0000000  0  7G21G28G26G22G 1G23G17
 -16993045.18044 -13241316.89144  21562494.4794   21562495.5994
 -17503181.019 4 -13638838.519 4  21278477.339    21278477.967
   6735021.26344   5248070.74344  23578117.1264   23578116.7404
   5375737.38144   4188877.83744  24570474.3254   24570475.6984
  -7524910.80244  -5863557.01144  23749066.8594   23749069.3504
  -3932908.82944  -3064600.08044  20769882.6444   20769882.5794
  -1185974.65144   -924134.68644  20790377.9404   20790378.5194
 96  5  7  3 58  0.0000000  0  7G21G28G26G22G 1G23G17
 -17037101.21944 -13275646.24444  21554111.0644   21554111.5954
 -17550436.183 4 -13675660.705 4  21269484.980    21269485.398
   6820492.76644   5314671.89844  23594382.2724   23594381.7584
   5437958.08444   4237361.42244  24582313.4904   24582319.6154
  -7634119.76044  -5948654.82244  23728284.3624   23728285.6904
  -3910066.76344  -3046801.05644  20774229.4734   20774229.2834
  -1162910.93544   -906162.95344  20794766.8964   20794767.1444
 96  5  7  3 58 30.0000000  0  7G21G28G26G22G23G17G 1
 -17080885.07744 -13309763.49444  21545779.0244   21545779.6184
 -17597142.656 4 -13712055.337 4  21260597.387    21260597.569
   6906325.06344   5381554.19844  23610715.1194   23610716.3614
   5500336.83544   4285968.26244  24594184.4014   24594183.3024
  -3886960.05544  -3028795.81944  20778626.3034   20778626.2314
  -1139553.92244   -887962.68044  20799211.4824   20799211.9134
  -7743183.54544  -6033639.49544  23707531.3974   23707532.2964
 96  5  7  3 59  0.0000000  0  7G21G28G26G22G 1G23G17
 -17124419.72044 -13343686.55144  21537494.6704   21537495.5354
 -17643327.966 4 -13748043.871 4  21251808.509    21251808.714
   6992482.65144   5448689.97444  23627110.4224   23627109.6294
   5562843.46544   4334674.70144  24606078.3934   24606081.7534
  -7852128.61944  -6118531.68044  23686799.7054   23686801.2354
  -3863631.36344  -3010617.60844  20783065.6924   20783065.7654
  -1115921.45844   -869547.76644  20803708.4244   20803708.9384
 96  5  7  3 59 30.0000000  0  7G21G28G23G17G26G22G 1
 -17167689.99744 -13377403.62644  21529260.5484   21529261.4334
 -17688980.514 4 -13783617.269 4  21243121.035    21243121.305
  -3840078.54744  -2992264.75544  20787547.6534   20787547.7844
  -1091995.38944   -850904.07244  20808261.5304   20808261.9054
   7078977.86744   5516088.84444  23643569.5254   23643568.5554
   5625496.90444   4383495.49544  24618001.5844   24618004.8754
  -7960969.63644  -6203342.77444  23666087.5844   23666089.6254
 96  5  7  4  0  0.0000000  0  8G21G28G23G17G26G22G 9G 1
 -17210683.65044 -13410905.15044  21521079.1174   21521079.6214
 -17734090.984 4 -13818768.268 4  21234536.738    21234537.164
  -3816278.53944  -2973719.28844  20792076.6624   20792076.8844
  -1067769.83144   -832027.01144  20812871.7284   20812871.9934
   7165815.24344   5583754.32544  23660094.0934   23660093.2304
   5688304.17544   4432436.16744  24629954.0264   24629957.3844
        -0.61054                  24708913.1884
  -8069716.87144  -6288080.79044  23645392.7934   23645395.1194
 96  5  7  4  0 30.0000000  0  7G21G28G26G22G 1G23G17
 -17253421.74244 -13444207.52944  21512946.2924   21512946.8654
 -17778665.281 4 -13853501.473 4  21226054.549    21226054.932
   7252978.04544   5651673.38844  23676680.7734   23676680.8024
   5751251.82944   4481486.24944  24641932.2534   24641935.7534
  -8178378.48444  -6372752.07244  23624714.9484   23624716.6784
  -3792244.63144  -2954991.56044  20796650.1094   20796650.2354
  -1043240.92444   -812913.57244  20817539.2684   20817539.5764
 96  5  7  4  1  0.0000000  0  6G21G28G26G 1G23G17
 -17295943.41344 -13477341.27244  21504854.8204   21504855.3134
 -17822713.823 4 -13887825.001 4  21217672.419    21217672.649
   7340441.14544   5719826.44044  23693324.8724   23693325.4694
  -8286972.41044  -6457370.63944  23604050.4304   23604052.8354
  -3767990.39544  -2936092.13944  20801265.4824   20801265.6154
  -1018424.60644   -793576.17844  20822261.6304   20822261.9994
 96  5  7  4  1 30.0000000  0  6G21G28G26G 1G23G17
 -17338227.90644 -13510290.20244  21496808.2014   21496808.7384
 -17866217.464 4 -13921723.930 4  21209393.797    21209394.172
   7428210.72744   5788218.32944  23710026.7764   23710025.3034
  -8395477.48144  -6541919.95844  23583402.8904   23583405.7694
  -3743484.81344  -2916996.86644  20805928.7244   20805928.9974
   -993310.49844   -774006.73444  20827040.4484   20827040.8524
 96  5  7  4  2  0.0000000  0  6G21G28G26G 1G23G17
 -17380259.50444 -13543042.06044  21488810.1104   21488810.5384
 -17909162.577 4 -13955187.646 4  21201221.650    21201222.018
   7516298.41444   5856858.10644  23726788.5564   23726788.5514
  -8503843.10044  -6626360.62444  23562781.3854   23562782.7764
  -3718711.25044  -2897692.78144  20810642.9104   20810643.2164
   -967887.25044   -754196.40844  20831878.5804   20831879.0164
 96  5  7  4  2 30.0000000  0  7G21G28G26G 9G 1G23G17
 -17422035.76944 -13575594.95444  21480860.0994   21480860.6934
 -17951550.742 4 -13988217.379 4  21193155.564    21193155.759
   7604694.49844   5925738.16444  23743610.5124   23743610.0084
        -0.54454                  24656002.3254
  -8612060.40044  -6710685.69344  23542187.7084   23542189.9744
  -3693682.65944  -2878189.97044  20815405.8134   20815406.0124
   -942157.79044   -734147.47744  20836774.8454   20836775.2324
 96  5  7  4  3  0.0000000  0  7G21G28G26G 9G 1G23G17
 -17463547.71644 -13607941.88744  21472960.8364   21472961.3274
 -17993381.869 4 -14020813.050 4  21185195.414    21185195.650
   7693403.38344   5994861.98444  23760490.9734   23760491.3244
    -54903.14444                  24645554.2944
  -8720137.97044  -6794901.89944  23521621.7414   23521623.0564
  -3668395.32544  -2858485.54144  20820217.7204   20820218.0154
   -916132.12144   -713867.72744  20841727.4184   20841727.7284
 96  5  7  4  3 30.0000000  0  7G21G28G26G 9G 1G23G17
 -17504780.63744 -13640071.42344  21465114.0134   21465114.8204
 -18034652.253 4 -14052971.780 4  21177341.714    21177341.961
   7782433.68344   6064236.23544  23777433.6004   23777433.9304
   -109567.50244    -85376.65144  24635153.1324
  -8828065.53044  -6879001.23744  23501085.1384   23501088.4734
  -3642849.06644  -2838579.35044  20825078.7524   20825079.0884
   -889810.90444   -693357.68444  20846735.9594   20846736.2744
 96  5  7  4  4  0.0000000  0  7G21G28G26G 9G 1G23G17
 -17545760.62044 -13672003.83044  21457315.7504   21457316.6774
 -18075371.598 4 -14084701.129 4  21169593.079    21169593.728
   7871782.27644   6133858.52044  23794436.2174   23794435.7934
   -164002.77444                  24624794.3734
  -8935858.97044  -6962996.03844  23480572.0194   23480573.8464
  -3617072.24244  -2818493.50044  20829984.2294   20829984.6054
   -863205.21344   -672625.97144  20851798.8364   20851799.2584
 96  5  7  4  4 30.0000000  0  7G21G28G26G 9G 1G23G17
 -17586486.84144 -13703738.51244  21449565.8314   21449566.8504
 -18115532.772 4 -14115995.537 4  21161950.519    21161951.307
   7961444.71944   6203725.35344  23811497.2884   23811497.8184
   -218202.28944   -170027.07544  24614480.2204
  -9043528.55844  -7046894.34644  23460082.9804   23460083.6164
  -3591065.36944  -2798228.39144  20834933.0184   20834933.1714
   -836310.24544   -651668.84944  20856916.8854   20856917.1774
 96  5  7  4  5  0.0000000  0  7G21G28G26G 9G 1G23G17
 -17626978.42644 -13735290.36544  21441860.3654   21441861.2994
 -18155147.462 4 -14146864.118 4  21154412.236    21154412.562
   8051405.49144   6273824.65844  23828616.4974   23828616.1584
   -272164.08744   -212075.15444  24604211.1534   24604211.5944
  -9151080.40844  -7130700.89644  23439616.5614   23439618.2374
  -3564848.15044  -2777799.37744  20839922.1094   20839922.1364
   -809135.67644   -630493.85744  20862088.1754   20862088.4314
 96  5  7  4  5 30.0000000  0  7G21G28G26G23G17G 9G 1
 -17667224.73444 -13766651.08944  21434201.5964   21434202.2424
 -18194201.734 4 -14177296.003 4  21146980.683    21146980.748
   8141665.08744   6344156.81444  23845791.4434   23845793.3854
  -3538413.64944  -2757201.05544  20844952.3864   20844952.3334
   -781653.75744   -609079.37144  20867317.5414   20867317.7854
   -325868.66644   -253922.81844  24593992.0194   24593993.7854
  -9258502.84844  -7214406.61844  23419174.1884   23419175.0694
 96  5  7  4  6  0.0000000  0  7G21G28G26G 9G 1G23G17
 -17707202.58344 -13797802.62644  21426594.3594   21426595.0634
 -18232679.478 4 -14207278.644 4  21139658.430    21139658.684
   8232222.92344   6414721.36044  23863024.7794   23863024.9104
   -379314.92844   -295569.20744  24583821.6914   24583821.3284
  -9365782.04144  -7298000.71944  23398759.5304   23398762.0524
  -3511750.89644  -2736424.86744  20850026.2014   20850026.2344
   -753844.58344   -587409.87344  20872609.4754   20872609.8824
 96  5  7  4  6 30.0000000  0  7G21G28G26G 9G 1G23G17
 -17746938.82844 -13828765.89944  21419032.7164   21419033.2524
 -18270605.679 4 -14236831.515 4  21132441.338    21132441.658
   8323047.78744   6485493.97744  23880308.4644   23880306.6514
   -432528.40044   -337034.27544  24573695.4194   24573693.2344
  -9472929.52644  -7381492.18644  23378369.6544   23378371.7654
  -3484884.81244  -2715490.24044  20855138.6924   20855138.5204
   -725742.90444   -565512.45144  20877956.9104   20877957.4554
 96  5  7  4  7  0.0000000  0  7G21G28G26G 9G 1G23G17
 -17786434.73444 -13859541.89344  21411517.0814   21411517.5664
 -18307975.388 4 -14265950.745 4  21125329.919    21125330.401
   8414153.37344   6556485.34544  23897645.2234   23897643.1164
   -485501.40544   -378311.90144  24563613.8504   24563612.9624
  -9579944.23944  -7464880.20544  23358005.0644   23358006.8734
  -3457816.21144  -2694397.81044  20860289.4424   20860289.6604
   -697341.94444   -543381.82544  20883361.3614   20883361.7384
 96  5  7  4  7 30.0000000  0  7G21G28G26G 9G 1G23G17
 -17825704.56544 -13890141.73044  21404044.1534   21404044.5624
 -18344797.570 4 -14294643.345 4  21118323.004    21118323.228
   8505528.90644   6627687.06144  23915034.1044   23915035.8254
   -538260.84344   -419423.05944  24553574.6654   24553574.3314
  -9686830.68144  -7548168.27044  23337666.3094   23337667.3624
  -3430538.92844  -2673142.77944  20865480.2004   20865480.4714
   -668661.99644   -521033.80544  20888818.9564   20888819.3704
 96  5  7  4  8  0.0000000  0  7G21G28G26G 9G 1G23G17
 -17864725.38244 -13920547.53444  21396618.6974   21396619.4264
 -18381041.279 4 -14322885.174 4  21111426.023    21111426.379
   8597209.13644   6699126.18644  23932479.4174   23932479.8554
   -590775.93244   -460343.88644  24543581.2844   24543582.8434
  -9793540.58044  -7631318.76544  23317360.4444   23317362.0584
  -3403018.47544  -2651698.25644  20870717.0614   20870717.0954
   -639687.32044   -498456.12744  20894332.8874   20894333.4064
 96  5  7  4  8 30.0000000  0  7G21G28G26G 9G 1G23G17
 -17903504.10144 -13950764.69644  21389239.2794   21389240.0264
 -18416708.578 4 -14350677.862 4  21104638.689    21104639.022
   8689191.85744   6770801.04644  23949983.1714   23949980.3764
   -643026.42944   -501058.53044  24533638.8384   24533642.0604
  -9900077.16044  -7714334.20944  23297087.1814   23297088.7614
  -3375254.52344  -2630063.99144  20876000.6354   20876000.5914
   -610419.54744   -475650.05944  20899902.2394   20899902.6344
 96  5  7  4  9  0.0000000  0  7G21G28G26G 9G 1G23G17
 -17942049.15444 -13980799.77744  21381904.3974   21381905.1004
 -18451818.437 4 -14378036.172 4  21097957.577    21097957.777
   8781444.28144   6842686.04844  23967538.5124   23967538.4844
   -695033.50444   -541583.51844  24523741.6344   24523741.3404
 -10006465.16544  -7797233.89144  23276842.1104   23276843.1124
  -3347263.03044  -2608252.42744  20881326.9894   20881327.0894
   -580865.90044   -452621.23244  20905526.2614   20905526.8014
 96  5  7  4  9 30.0000000  0  7G21G28G26G 9G 1G23G17
 -17980346.87744 -14010642.13144  21374616.6414   21374617.0794
 -18486370.336 4 -14404959.713 4  21091382.511    21091382.795
   8873951.30844   6914769.42644  23985142.1534   23985142.7904
   -746799.71344   -581920.79544  24513891.5034   24513890.7894
 -10112695.39244  -7880010.60144  23256626.7924   23256629.9804
  -3319041.90744  -2586261.93544  20886697.3424   20886697.6634
   -551030.67844   -429373.00344  20911203.4404   20911203.4834
 96  5  7  4 10  0.0000000  0  7G21G28G26G 9G 1G23G17
 -18018372.42844 -14040272.41544  21367380.5194   21367381.0754
 -18520351.947 4 -14431438.866 4  21084916.096    21084916.594
   8966724.29644   6987060.07044  24002796.3114   24002794.8074
   -798298.95444   -622050.07344  24504091.4424
 -10218762.60744  -7962660.30844  23236442.9134   23236444.3494
  -3290604.59544  -2564102.98344  20892108.8414   20892108.8834
   -520891.87144   -405888.21444  20916938.8294   20916939.0444
 96  5  7  4 10 30.0000000  0  7G21G28G23G17G26G 9G 1
 -18056120.41144 -14069686.40644  21360197.3154   21360197.7784
 -18553770.693 4 -14457479.435 4  21078556.610    21078557.044
  -3261958.23744  -2541781.13744  20897560.0854   20897559.9664
   -490446.02744   -382164.17244  20922732.6664   20922733.0014
   9059749.90244   7059547.53344  24020497.6514   24020498.5474
   -849543.79244   -661981.03044  24494339.3254   24494339.4194
 -10324679.53444  -8045192.92444  23216286.6374   23216287.9864
 96  5  7  4 11  0.0000000  0  8G21G28G23G17G26G31G 9G 1
 -18093575.00644 -14098871.77744  21353069.9664   21353070.5834
 -18586600.297 4 -14483060.924 4  21072309.574    21072309.893
  -3233074.76044  -2519274.51344  20903056.3734   20903056.2714
   -459665.98444   -358179.70844  20928589.5054   20928590.1134
   9153060.33944   7132256.93844  24038254.6814   24038255.8814
        -0.33554                  24696222.9964
   -900517.39944   -701700.67744  24484640.1634   24484639.7354
 -10430423.96744  -8127591.10344  23196164.2744   23196166.3464
 96  5  7  4 11 30.0000000  0  7G21G28G26G 9G 1G23G17
 -18130752.08444 -14127840.90444  21345995.4254   21345995.8894
 -18618844.254 4 -14508186.067 4  21066173.498    21066173.782
   9246645.37944   7205180.33944  24056063.8504   24056061.5854
   -951212.18844   -741203.06544  24474991.5904
 -10535993.05244  -8209852.66544  23176075.4744   23176078.0764
  -3203958.65144  -2496586.62244  20908597.1754   20908597.2024
   -428562.92644   -333943.55444  20934508.4764   20934508.8054
 96  5  7  4 12  0.0000000  0  7G21G28G26G 9G 1G23G17
 -18167684.55244 -14156619.42144  21338967.3454   21338967.8044
 -18650518.293 4 -14532867.126 4  21060145.991    21060146.342
   9340484.30344   7278301.56444  24073920.2934   24073919.7044
  -1001629.19644   -780489.02744  24465397.9774   24465399.6384
 -10641402.59344  -8291989.89844  23156016.8274   23156018.1224
  -3174620.85944  -2473725.99844  20914180.0104   20914179.7814
   -397159.53344   -309473.37944  20940484.3404   20940484.4234
 96  5  7  4 12 30.0000000  0  7G21G28G23G17G26G 9G 1
 -18204360.86244 -14185198.32944  21331988.2624   21331988.8244
 -18681588.016 4 -14557077.282 4  21054233.768    21054234.194
  -3145019.32244  -2450659.85844  20919812.8754   20919812.5164
   -365429.14644   -284748.39944  20946522.3174   20946522.7844
   9434598.95244   7351637.69444  24091829.4924   24091829.9054
  -1051724.39444   -819524.21044  24455865.6204   24455867.0484
 -10746612.37544  -8373971.47944  23135995.3994   23135996.2284
 96  5  7  4 13  0.0000000  0  8G21G28G23G17G26G31G 9G 1
 -18240794.51644 -14213588.16244  21325055.0624   21325055.6454
 -18712052.613 4 -14580815.917 4  21048436.347    21048437.145
  -3115174.63944  -2427404.24744  20925492.4254   20925492.1484
   -333385.01344   -259778.93444  20952619.9724   20952620.4244
   9528976.42844   7425178.55944  24109789.2394   24109787.7394
        -0.61254                  24621914.8354
  -1101483.99444   -858297.90944  24446396.9124   24446393.4164
 -10851616.35144  -8455792.70144  23116014.0604   23116016.9754
 96  5  7  4 13 30.0000000  0  7G21G28G26G 9G 1G23G17
 -18277002.14744 -14241801.86944  21318165.0164   21318165.5084
 -18741937.856 4 -14604103.106 4  21042749.562    21042750.154
   9623591.91044   7498904.91144  24127793.4504   24127793.0244
  -1150927.77844   -896825.43544  24436987.6904   24436987.6634
 -10956418.92944  -8537456.98244  23096070.9764   23096073.1384
  -3085126.42344  -2403990.04144  20931210.1034   20931210.0184
   -301061.30944   -234591.62944  20958771.5994   20958771.2744
 96  5  7  4 14  0.0000000  0  7G21G23G28G17G26G 9G 1
 -18312970.59244 -14269829.19644  21311320.5844   21311321.0034
  -3054875.01244  -2380417.50644  20936966.4054   20936966.7054
 -18771234.295 4 -14626931.487 4  21037174.526    21037175.024
   -268442.80344   -209174.61144  20964978.3574   20964978.4594
   9718470.14844   7572835.99744  24145848.3534   24145847.5514
  -1200056.53944   -935107.59344  24427639.3974   24427636.7774
 -11061021.20944  -8618965.20444  23076166.3854   23076167.7244
 96  5  7  4 14 30.0000000  0  8G21G23G28G17G26G31G 9G 1
 -18348697.39744 -14297668.24044  21304521.7684   21304522.1724
  -3024431.34444  -2356695.16444  20942759.8934   20942760.0744
 -18799942.371 4 -14649301.406 4  21031711.644    21031711.872
   -235514.11644   -183515.88744  20971244.1974   20971244.8314
   9813616.57844   7646976.04544  24163953.6464   24163953.3024
        -0.43054                  24566718.6014
  -1248890.25844   -973159.75344  24418345.6184   24418342.8414
 -11165418.76944  -8700313.88744  23056299.1114   23056299.9834
 96  5  7  4 15  0.0000000  0  8G21G23G28G17G26G31G 9G 1
 -18384194.76544 -14325328.49144  21297767.0944   21297766.9264
  -2993816.96344  -2332839.79744  20948585.5674   20948585.4694
 -18828085.675 4 -14671231.239 4  21026356.090    21026356.298
   -202292.60244   -157628.98844  20977566.3534   20977566.4014
   9909018.68744   7721315.35844  24182108.9804   24182108.6024
    -96215.22944                  24548406.6804
  -1297467.11844  -1011011.84244  24409101.1234   24409103.8214
 -11269645.40344  -8781529.37844  23036466.6944   23036467.9124
 96  5  7  4 15 30.0000000  0  8G21G23G28G17G26G31G 9G 1
 -18419455.04444 -14352804.00444  21291057.5214   21291057.2344
  -2963007.18844  -2308832.17144  20954448.3744   20954448.2134
 -18855659.122 4 -14692717.032 4  21021109.098    21021109.588
   -168762.13444   -131501.34344  20983946.8834   20983946.8694
  10004683.99144   7795859.74244  24200314.2394   24200313.1214
   -192235.91544                  24530136.6074
  -1345789.10644  -1048665.24544  24399906.8024   24399906.4314
 -11373703.03644  -8862613.18844  23016664.3344   23016665.6444
 96  5  7  4 16  0.0000000  0  8G21G23G28G17G26G31G 9G 1
 -18454468.82444 -14380087.44644  21284394.2404   21284394.1354
  -2931984.44744  -2284658.59544  20960351.7294   20960351.6864
 -18882652.261 4 -14713750.632 4  21015972.413    21015972.911
   -134905.59144   -105119.61444  20990389.2794   20990389.8054
  10100592.98444   7870594.04044  24218564.0284   24218563.6804
   -288059.40044                  24511898.0944
  -1393848.93444  -1086114.41244  24390761.2414   24390762.1554
 -11477593.07744  -8943566.40944  22996894.9414   22996896.6724
 96  5  7  4 16 30.0000000  0  8G21G23G28G17G26G31G 9G 1
 -18489246.70644 -14407187.07344  21277776.0294   21277776.4044
  -2900768.15044  -2260334.19344  20966292.0954   20966292.0574
 -18909078.002 4 -14734342.109 4  21010943.726    21010944.091
   -100754.00244    -78507.97944  20996888.3634   20996888.7934
  10196712.52144   7945492.34244  24236854.4124   24236854.9394
   -383707.93944   -298992.95444  24493698.6864   24493700.7444
  -1441654.30644  -1123365.31244  24381664.1474   24381667.6514
 -11581323.06844  -9024394.90744  22977155.5254   22977156.0764
 96  5  7  4 17  0.0000000  0  8G21G23G28G17G26G31G 9G 1
 -18523776.01344 -14434092.99544  21271205.2864   21271205.4424
  -2869356.36044  -2235857.46544  20972269.9194   20972269.8804
 -18934926.809 4 -14754484.022 4  21006024.899    21006025.419
    -66321.65244    -51677.56444  21003440.8214   21003441.0044
  10293036.36244   8020549.87844  24255185.5724   24255185.9624
   -479160.48644                  24475535.6604
  -1489184.78044  -1160402.00944  24372619.4074   24372622.2244
 -11684882.44044  -9105090.45144  22957448.9784   22957450.2184
 96  5  7  4 17 30.0000000  0  8G21G23G28G17G26G31G 9G 1
 -18558041.60844 -14460793.42644  21264684.5694   21264685.0944
  -2837728.91244  -2211212.69044  20978288.1604   20978288.2404
 -18960166.168 4 -14774151.036 4  21001221.897    21001222.432
    -31584.71644    -24609.81644  21010050.7454   21010051.0184
  10389586.06544   8095783.44244  24273558.2514   24273556.1184
   -574367.54844                  24457413.7604
  -1536395.11644  -1197189.24044  24363635.2894   24363634.7624
 -11788228.41444  -9185619.72244  22937782.5104   22937783.8034
 96  5  7  4 18  0.0000000  0  8G21G23G28G17G26G31G 9G 1
 -18592047.40644 -14487291.42544  21258213.4084   21258213.8934
  -2805903.70944  -2186413.82044  20984344.2044   20984344.2954
 -18984786.137 4 -14793335.414 4  20996536.880    20996537.429
      3455.84544      2694.52944  21016719.0104   21016719.3264
  10486373.44244   8171202.16844  24291975.8534   24291974.7834
   -669300.56344                  24439350.6824
  -1583271.69444  -1233716.34144  24354713.7994   24354712.4794
 -11891351.78244  -9265975.52844  22918158.9404   22918159.9694
 96  5  7  4 18 30.0000000  0  7G21G23G28G17G26G 9G 1
 -18625832.02444 -14513617.07344  21251784.6324   21251784.9814
  -2773905.78044  -2161480.36244  20990433.0294   20990432.9944
 -19008809.066 4 -14812054.557 4  20991965.414    20991965.883
     38780.55844     30220.28744  21023441.0214   21023441.1874
  10583390.03844   8246799.50144  24310436.8964   24310437.3734
  -1629821.52444  -1269988.90944  24345856.1654   24345855.6164
 -11994277.44944  -9346177.29244  22898572.9084   22898574.8064
 96  5  7  4 19  0.0000000  0  7G21G23G28G17G26G 9G 1
 -18659417.51244 -14539787.54944  21245393.8634   21245393.9904
  -2741737.65544  -2136414.27844  20996554.8774   20996554.6804
 -19032241.217 4 -14830313.361 4  20987506.497    20987506.773
     74415.13244     57987.50144  21030221.9174   21030222.0204
  10680634.98744   8322574.78544  24328942.8214   24328942.3644
  -1676047.43844  -1306009.03844  24337060.0144   24337057.7024
 -12097005.93444  -9426225.39744  22879024.3954   22879025.9774
 96  5  7  4 19 30.0000000  0  7G21G23G28G17G26G 9G 1
 -18692801.95744 -14565801.37744  21239040.5394   21239041.0804
  -2709389.97844  -2111208.28544  21002710.2414   21002710.5134
 -19055083.354 4 -14848112.409 4  20983159.761    20983160.223
    110383.70644     86014.97144  21037066.3274   21037066.7514
  10778109.59244   8398529.01844  24347491.1864   24347493.2874
  -1721950.57644  -1341777.66344  24328325.5754   24328326.7684
 -12199548.20144  -9506128.41344  22859511.2084   22859511.8124
 96  5  7  4 20  0.0000000  0  7G21G23G28G17G26G 9G 1
 -18725943.27444 -14591625.74944  21232733.7274   21232734.2484
  -2676830.38344  -2085837.16344  21008906.0504   21008906.1224
 -19077319.741 4 -14865439.451 4  20978928.232    20978928.743
    146710.70644    114321.73144  21043979.3994   21043979.1644
  10875818.66544   8474665.95144  24366084.1384   24366086.1504
  -1767515.07644  -1377282.50144  24319654.2254   24319651.6164
 -12301893.96644  -9585878.29844  22840035.1284   22840036.4874
 96  5  7  4 20 30.0000000  0  8G21G23G28G17G26G31G 9G 1
 -18758842.24844 -14617261.28344  21226473.3584   21226473.7394
  -2644062.68044  -2060303.87644  21015141.4074   21015141.5894
 -19098972.468 4 -14882311.690 4  20974808.095    20974808.547
    183385.24744    142899.30944  21050958.0204   21050958.4204
  10973735.40644   8550964.72744  24384718.3224   24384717.4764
        -0.66154                  24349820.7854
  -1812766.70644  -1412543.44944  24311044.1104   24311045.3144
 -12404053.70944  -9665483.24544  22820594.7804   22820596.1654
 96  5  7  4 21  0.0000000  0  8G21G23G28G17G26G31G 9G 1
 -18791478.15744 -14642691.82944  21220262.9114   21220263.3754
  -2611093.17544  -2034613.34044  21021415.0014   21021414.9474
 -19120036.491 4 -14898725.201 4  20970799.456    20970799.856
    220398.56044    171740.86544  21058001.7964   21058002.1394
  11071858.70744   8627424.45444  24403391.0784   24403388.8034
    -93243.71944                  24332080.1544
  -1857714.25744  -1447567.44544  24302489.4444   24302489.0304
 -12506011.11244  -9744930.51144  22801192.6754   22801193.6704
 96  5  7  4 21 30.0000000  0  8G21G23G28G17G26G31G 9G 1
 -18823822.94044 -14667895.53544  21214108.0004   21214108.7824
  -2577904.25244  -2008751.83144  21027730.9654   21027730.7284
 -19140493.338 4 -14914665.595 4  20966906.695    20966907.099
    257740.79344    200838.71644  21065107.6704   21065107.8294
  11170196.65744   8704051.44144  24422103.4914   24422103.7534
   -186198.71144                  24314387.7934
  -1902326.59144  -1482330.32344  24294000.3374   24294000.7354
 -12607744.24144  -9824203.02444  22781833.2574   22781834.4564
 96  5  7  4 22  0.0000000  0  8G21G23G28G17G26G31G 9G 1
 -18855884.33744 -14692878.40944  21208006.8714   21208007.1734
  -2544501.92944  -1982724.03644  21034087.4114   21034087.2314
 -19160333.664 4 -14930125.577 4  20963131.281    20963131.604
    295403.18544    230186.04344  21072274.2594   21072274.5544
  11268753.66744   8780849.10044  24440857.9514   24440857.3124
   -278880.99344                  24296751.0504
  -1946587.42444  -1516819.24944  24285578.5824   24285579.1064
 -12709221.81444  -9903276.41444  22762522.7004   22762523.6004
 96  5  7  4 22 30.0000000  0  8G21G23G28G17G26G31G 9G 1
 -18887639.51244 -14717622.66744  21201964.0824   21201964.4994
  -2510870.55144  -1956517.75744  21040487.1804   21040487.1344
 -19179516.211 4 -14945073.005 4  20959480.801    20959481.344
    333412.99644    259804.08544  21079507.7034   21079507.5274
  11367576.38444   8857853.77944  24459663.3364   24459664.0954
   -371251.87244   -289287.01844  24279172.2964
  -1990454.11444  -1551001.02944  24277230.7344   24277231.1904
 -12810383.20744  -9982103.41744  22743272.0844   22743273.8124
 96  5  7  4 23  0.0000000  0  8G21G23G28G17G26G31G 9G 1
 -18919154.93844 -14742180.11244  21195966.9254   21195967.0054
  -2477059.76644  -1930171.68344  21046921.1954   21046920.9814
 -19198084.516 4 -14959541.805 4  20955947.460    20955948.024
    371720.86444    289654.37644  21086797.4794   21086797.9304
  11466608.44844   8935021.64844  24478508.3614   24478509.8854
   -463336.47644   -361041.20744  24261648.8204
  -2033959.88544  -1584901.60644  24268951.7614   24268952.3484
 -12911278.99544 -10060723.46644  22724072.5654   22724073.2194
 96  5  7  4 23 30.0000000  0  8G21G23G28G17G26G31G 9G 1
 -18950452.44744 -14766567.75444  21190011.0584   21190011.3394
  -2443077.36844  -1903691.87844  21053387.9574   21053387.7264
 -19216051.699 4 -14973542.195 4  20952528.463    20952528.993
    410322.84644    319733.85144  21094142.5524   21094143.0454
  11565829.65944   9012336.88944  24497388.6494   24497388.7994
   -555146.34544                  24244176.4234
  -2077115.79644  -1618529.58844  24260739.5074   24260740.5844
 -13011928.51144 -10139151.61444  22704919.5634   22704920.1164
 96  5  7  4 24  0.0000000  0  8G21G23G28G17G26G31G 9G 1
 -18981535.37544 -14790788.20344  21184096.1434   21184096.1674
  -2408931.32344  -1877084.55644  21059885.4324   21059885.2294
 -19233424.790 4 -14987079.657 4  20949222.284    20949223.018
    449223.52144    350046.06444  21101545.5314   21101545.6014
  11665231.50344   9089792.84344  24516305.3094   24516302.0794
   -646672.40144                  24226758.8694
  -2119943.70244  -1651901.89644  24252589.8504   24252592.1824
 -13112344.79944 -10217398.01544  22685810.7624   22685812.9504
 96  5  7  4 24 30.0000000  0  8G21G23G28G17G26G31G 9G 1
 -19012404.66944 -14814842.17244  21178222.0854   21178221.7544
  -2374629.45644  -1850355.82444  21066412.8324   21066412.4994
 -19250218.010 4 -15000165.272 4  20946026.617    20946027.334
    488419.00644    380588.00144  21109004.1484   21109004.6924
  11764800.12644   9167378.81944  24535251.6764   24535250.4864
   -737915.74944   -574998.93444  24209396.4154
  -2162460.34344  -1685031.68744  24244498.8934   24244499.7394
 -13212555.47144 -10295484.20644  22666741.1464   22666742.2914
 96  5  7  4 25  0.0000000  0  8G21G23G28G17G26G31G 9G 1
 -19043045.59544 -14838718.18344  21172391.1924   21172390.9364
  -2340144.82244  -1823484.66844  21072975.1454   21072974.8254
 -19266414.819 4 -15012786.153 4  20942944.356    20942944.955
    527934.78844    411379.52744  21116523.7294   21116524.3914
  11864545.21844   9245102.28444  24554231.9904   24554232.2954
   -828871.64544                  24192087.2994
  -2204646.42144  -1717903.95244  24236470.7594   24236471.0794
 -13312558.83044 -10373408.85344  22647711.2474   22647712.4424
 96  5  7  4 25 30.0000000  0  8G21G23G28G17G26G31G 9G 1
 -19073446.61144 -14862407.24844  21166606.0364   21166606.2444
  -2305468.98844  -1796464.52744  21079573.7834   21079573.6724
 -19282006.324 4 -15024935.366 4  20939977.570    20939977.923
    567774.48944    442423.45144  21124104.7834   21124104.8054
  11964481.25444   9322974.48644  24573249.6754   24573248.5834
   -919546.24244                  24174833.4154
  -2246493.45144  -1750512.00544  24228506.7174   24228506.3524
 -13412338.90544 -10451159.51044  22628723.4324   22628724.8534
 96  5  7  4 26  0.0000000  0  8G21G23G28G17G26G31G 9G 1
 -19103609.91744 -14885911.09444  21160866.0834   21160866.5914
  -2270598.35244  -1769292.59044  21086209.3524   21086209.2644
 -19296983.561 4 -15036605.930 4  20937127.690    20937127.862
    607946.61744    473726.40544  21131749.1334   21131749.5244
  12064629.54144   9401012.14844  24592308.2134   24592308.0594
  -1009933.04044   -786960.28844  24157635.7824
  -2287987.29744  -1782844.80944  24220611.6034   24220612.3004
 -13511876.82744 -10528721.48344  22609782.0434   22609783.5214
 96  5  7  4 26 30.0000000  0  8G21G23G28G17G26G31G 9G 1
 -19133555.04444 -14909244.93844  21155167.5394   21155167.9984
  -2235541.31944  -1741975.40944  21092880.2784   21092880.0184
 -19311345.624 4 -15047797.135 4  20934394.448    20934395.147
    648452.17344    505289.18444  21139457.5734   21139457.9624
  12164986.41844   9479212.33944  24611405.4134   24611402.3404
  -1100054.46944   -857184.74644  24140484.5404
  -2329115.08744  -1814892.39744  24212783.1454   24212785.9464
 -13611164.32344 -10606088.30144  22590888.7814   22590889.5594
 96  5  7  4 27  0.0000000  0  8G21G23G28G17G26G31G 9G 1
 -19163306.50244 -14932427.86844  21149505.9844   21149506.2284
  -2200312.10244  -1714524.06144  21099584.5584   21099584.1384
 -19325105.297 4 -15058518.947 4  20931776.094    20931776.625
    689269.63744    537095.00344  21147224.9104   21147225.1154
  12265525.87044   9557554.72744  24630537.9944   24630532.6804
  -1189913.25844   -927204.44744  24123385.9024
  -2369894.42144  -1846668.51644  24205026.2624   24205027.1194
 -13710211.12644 -10683267.58044  22572040.2954   22572040.6304
 96  5  7  4 27 30.0000000  0  8G21G23G28G17G26G31G 9G 1
 -19192851.55144 -14955449.94944  21143883.9224   21143883.8654
  -2164905.84444  -1686934.75544  21106321.8564   21106321.5174
 -19338257.250 4 -15068767.211 4  20929273.299    20929273.940
    730399.78544    569144.46844  21155051.8494   21155051.7284
  12366250.66444   9636041.63244  24649705.2714   24649705.0294
  -1279489.74944                  24106340.2764
  -2410328.16944  -1878175.29144  24197331.2374   24197329.2574
 -13809006.59644 -10760251.00944  22553240.8544   22553241.1744
 96  5  7  4 28  0.0000000  0  7G21G23G28G17G26G 9G 1
 -19222180.88444 -14978303.93444  21138302.7324   21138303.0984
  -2129330.88144  -1659213.99144  21113091.6764   21113091.5324
 -19350797.741 4 -15078539.014 4  20926886.952    20926887.550
    771850.71944    601443.90044  21162939.6634   21162939.3814
  12467158.20544   9714670.89944  24668906.1314   24668906.1254
  -2450406.43944  -1909405.06044  24189704.0334   24189705.7924
 -13907551.98444 -10837039.57244  22534487.8984   22534488.2434
 96  5  7  4 28 30.0000000  0  7G21G23G28G17G26G 9G 1
 -19251284.42844 -15000981.99444  21132764.5124   21132765.0424
  -2093603.46544  -1631374.42744  21119890.1904   21119889.8914
 -19362736.692 4 -15087842.081 4  20924614.951    20924615.577
    813609.18544    633982.96744  21170885.5424   21170886.3964
  12568222.69644   9793422.41844  24688137.8114   24688141.6154
  -2490135.20144  -1940362.48644  24182144.3064   24182145.2514
 -14005864.90944 -10913646.97944  22515779.5274   22515780.0544
 96  5  7  4 29  0.0000000  0  8G21G23G28G17G26G31G 9G 1
 -19280119.71244 -15023451.01744  21127277.3314   21127277.7344
  -2057693.21944  -1603392.40744  21126723.6154   21126723.7474
 -19374045.027 4 -15096653.765 4  20922463.174    20922463.681
    855703.05944    666783.39044  21178895.6704   21178895.9324
  12669477.79944   9872322.52244  24707405.9674
        -0.28754                  24055551.6924
  -2529491.95544  -1971030.03544  24174653.7494   24174656.8964
 -14103915.51544 -10990049.99944  22497121.2324   22497121.8954
 96  5  7  4 29 30.0000000  0  8G21G23G28G17G26G31G 9G 1
 -19308703.52844 -15045724.09644  21121837.8714   21121838.0184
  -2021631.68744  -1575292.50144  21133586.1174   21133586.0344
 -19384745.250 4 -15104991.589 4  20920426.901    20920427.458
    898113.31244    699830.34444  21186966.3244   21186965.9974
  12770910.45744   9951360.96044  24726707.8144   24726708.2964
    -88322.61444                  24038744.1344
  -2568484.72144  -2001414.06644  24167234.2184   24167234.7184
 -14201718.82444 -11066260.32444  22478509.2964   22478510.0704
 96  5  7  4 30  0.0000000  0  8G21G23G28G17G26G31G 9G 1
 -19337037.92244 -15067802.81744  21116446.0304   21116446.3194
  -1985430.14544  -1547083.49044  21140474.8684   21140474.4474
 -19394842.850 4 -15112859.843 4  20918505.370    20918505.932
    940843.33344    733126.46844  21195097.7044   21195097.9474
  12872512.89744  10030531.66444  24746043.5094   24746046.7144
   -176340.81544                  24021995.9674
  -2607105.92244  -2031508.45444  24159885.3444   24159884.6094
 -14299273.54244 -11142276.92944  22459945.2644   22459946.4084
 96  5  7  4 30 30.0000000  0  8G21G23G28G17G26G31G 9G 1
 -19365111.49644 -15089678.29544  21111103.8414   21111104.2404
  -1949067.39744  -1518748.86844  21147394.3334   21147394.2134
 -19404326.965 4 -15120250.050 4  20916700.509    20916701.202
    983901.11444    766677.99144  21203291.0474   21203291.6114
  12974286.69544  10109835.90444  24765409.1574
   -264055.03744                  24005303.5934
  -2645350.02244  -2061309.00644  24152607.3394   24152606.9894
 -14396548.83644 -11218075.80144  22441433.9644   22441435.2484
 96  5  7  4 31  0.0000000  0  8G21G23G28G17G26G31G 9G 1
 -19392933.64044 -15111357.86244  21105809.4804   21105809.4804
  -1912523.80644  -1490273.32644  21154348.6484   21154348.3164
 -19413198.815 4 -15127163.178 4  20915012.001    20915012.942
   1027284.09444    800482.91044  21211546.7444   21211547.0214
  13076221.97944                  24784807.4034
   -351466.46544                  23988668.1374
  -2683218.18344  -2090816.64244  24145400.9844   24145399.6354
 -14493535.38244 -11293649.68644  22422978.2724   22422979.7004
 96  5  7  4 31 30.0000000  0  8G21G23G28G17G26G31G 9G 1
 -19420507.84744 -15132844.23144  21100562.2124   21100562.1434
  -1875795.05644  -1461653.50744  21161337.8044   21161337.3634
 -19421459.559 4 -15133600.112 4  20913440.067    20913440.798
   1070975.39344    834528.07544  21219860.7404   21219861.1314
  13178309.70544  10268814.90844  24804233.8574   24804228.6724
   -438563.20644                  23972095.5684
  -2720703.68644  -2120026.08344  24138267.7004   24138266.4764
 -14590228.61144 -11368995.00644  22404578.2324   22404578.7154
 96  5  7  4 32  0.0000000  0  8G21G23G28G17G26G31G 9G 1
 -19447842.73244 -15154144.11544  21095360.2444   21095360.0954
  -1838878.92344  -1432887.67544  21168362.9534   21168362.4564
 -19429108.040 4 -15139559.962 4  20911984.715    20911985.453
   1114976.16544    868814.39544  21228233.9254   21228234.3084
  13280536.17244  10348471.90944  24823686.3274   24823689.3404
   -525335.40444                  23955584.3644
  -2757807.90344  -2148938.43944  24131207.8004   24131205.9044
 -14686620.54844 -11444105.56344  22386235.4984   22386236.3884
 96  5  7  4 32 30.0000000  0  8G21G23G28G17G26G31G 9G 1
 -19474950.63744 -15175267.12744  21090201.9464   21090201.8024
  -1801768.91844  -1403970.77844  21175424.5414   21175423.9584
 -19436144.743 4 -15145043.097 4  20910645.742    20910646.373
   1159269.82544    903328.93344  21236663.0354   21236662.9174
  13382893.96144  10428231.24744  24843166.4214   24843169.7294
   -611766.11944                  23939136.3594
  -2794533.75844  -2177555.93944  24124218.9044   24124218.6034
 -14782715.96844 -11518985.05944  22367949.6214   22367950.2724
 96  5  7  4 33  0.0000000  0  8G21G23G28G17G26G31G 9G 1
 -19501836.58144 -15196217.18744  21085085.7004   21085085.6644
  -1764467.33644  -1374904.59744  21182522.6584   21182522.1184
 -19442565.934 4 -15150046.615 4  20909423.930    20909424.711
   1203862.00444    938076.07444  21245148.2654   21245148.4594
  13485399.37044  10508105.61944  24862670.1944
   -697834.80844   -543766.57644  23922758.1824
  -2830873.41744  -2205872.56244  24117303.7604   24117304.1894
 -14878532.05744 -11593646.90444  22349715.9064   22349716.2184
 96  5  7  4 33 30.0000000  0  8G21G23G28G17G26G31G 9G 1
 -19528508.94344 -15217000.82444  21080010.1484   21080010.6214
  -1727003.31244  -1345711.83844  21189651.9794   21189651.5464
 -19448373.810 4 -15154572.225 4  20908318.512    20908319.281
   1248755.67944    973058.16344  21253691.2894   21253691.3814
  13588057.90044  10588099.23344  24882204.1014
   -783541.32544                  23906449.1604
  -2866821.42144  -2233883.89844  24110462.0884   24110464.2874
 -14974074.77544 -11668095.73344  22331535.2664   22331535.6744
 96  5  7  4 34  0.0000000  0  8G21G23G28G17G26G31G 9G 1
 -19554976.78744 -15237625.09944  21074973.4744   21074973.9654
  -1689392.49544  -1316404.69644  21196809.2224   21196809.1324
 -19453579.952 4 -15158628.957 4  20907327.972    20907328.564
   1293965.79144   1008286.82044  21262294.4864   21262294.8484
  13690857.29344  10668202.70244  24901767.9724   24901771.3254
   -868906.29844   -677068.93244  23890205.4664
  -2902388.73744  -2261598.66944  24103695.2464   24103695.2044
 -15069364.90744 -11742347.73844  22313401.7644   22313402.2724
 96  5  7  4 34 30.0000000  0  8G21G23G28G17G26G31G 9G 1
 -19581213.27544 -15258069.09144  21069981.0954   21069980.6254
  -1651606.62944  -1286961.15544  21203999.4654   21203999.6644
 -19458159.659 4 -15162197.551 4  20906456.378    20906457.069
   1339522.18244   1043785.30044  21270963.4764   21270963.8074
  13793834.31744  10748444.60144  24921362.9134   24921363.7044
   -953905.10144   -743301.72144  23874029.6974   23874032.6284
  -2937550.55844  -2288997.44344  24097003.1384   24097002.5894
 -15164387.04644 -11816390.91344  22295319.7564   22295320.1724
 96  5  7  4 35  0.0000000  0  8G21G23G28G17G26G31G 9G 1
 -19607208.33144 -15278324.95444  21065034.3364   21065033.8564
  -1613658.20944  -1257390.95144  21211220.5614   21211220.4414
 -19462112.064 4 -15165277.343 4  20905704.327    20905705.116
   1385449.99244   1079573.20744  21279703.4624   21279703.1904
  13896989.57844  10828825.32044  24940994.7724   24940993.5784
  -1038553.22544   -809261.24544  23857921.4534   23857921.0384
  -2972303.31744  -2316077.48944  24090390.0694   24090389.8284
 -15259133.21944 -11890219.05444  22277290.3574   22277291.8184
 96  5  7  4 35 30.0000000  0  8G21G23G28G17G26G31G 9G 1
 -19632962.69044 -15298393.26244  21060133.3404   21060133.2854
  -1575563.37144  -1227706.65544  21218469.6974   21218469.5474
 -19465438.169 4 -15167869.107 4  20905071.333    20905072.285
   1431745.00744   1115647.24644  21288513.2124   21288512.8564
  14000305.65944  10909331.36544  24960655.9654   24960651.6124
  -1122862.98244   -874957.10144  23841878.6684   23841878.5774
  -3006645.00844  -2342837.21244  24083854.5044   24083856.7104
 -15353588.92244 -11963820.85544  22259315.0294   22259315.5894
 96  5  7  4 36  0.0000000  0  8G21G23G28G17G26G31G 9G 1
 -19658502.01244 -15318294.01144  21055273.3884   21055273.6514
  -1537328.43244  -1197913.18844  21225745.3494   21225744.9094
 -19468156.915 4 -15169987.604 4  20904553.874    20904554.678
   1478387.75044   1151992.23644  21297388.8394   21297388.5724
  14103759.18444  10989944.48044  24980340.9244
  -1206855.38744   -940405.69344  23825893.9454   23825897.0454
  -3040600.09344  -2369295.65044  24077393.2154   24077391.3184
 -15447763.66244 -12037203.72844  22241394.9794   22241395.5524
 96  5  7  4 36 30.0000000  0  8G21G23G28G17G26G31G 9G 1
 -19683817.68444 -15338020.48244  21050455.7874   21050456.0144
  -1498955.94644  -1168012.54244  21233047.7914   21233047.3104
 -19470263.554 4 -15171629.135 4  20904152.781    20904153.789
   1525366.47544   1188599.03244  21306328.6774   21306328.7044
  14207343.20644  11070659.32344  25000052.3554   25000051.9254
  -1290520.29944  -1005599.08144  23809972.7594   23809973.6134
  -3074165.43044  -2395450.43244  24071006.4634   24071005.1974
 -15541646.85044 -12110359.40044  22223529.2144   22223530.0344
 96  5  7  4 37  0.0000000  0  8G21G23G28G17G26G31G 9G 1
 -19708902.10944 -15357566.75644  21045682.3624   21045682.3684
  -1460436.47244  -1137997.35844  21240377.7164   21240377.2874
 -19471746.668 4 -15172784.807 4  20903870.768    20903871.641
   1572676.50344   1225463.98844  21315331.1624   21315331.2614
  14311047.33844  11151467.89844  25019788.4824   25019785.6614
  -1373858.12444  -1070537.55344  23794113.8864   23794113.8114
  -3107326.00044  -2421289.75244  24064696.4904   24064697.4604
 -15635218.41144 -12183272.25444  22205722.7764   22205723.3854
 96  5  7  4 37 30.0000000  0  7G21G23G28G17G31G 9G 1
 -19733777.20144 -15376949.91044  21040948.7074   21040948.5304
  -1421766.57444  -1107864.96644  21247736.4614   21247736.1804
 -19472616.711 4 -15173462.756 4  20903705.451    20903706.085
   1620292.70244   1262567.51444  21324392.9464   21324392.1994
  -1456854.30744  -1135209.83444  23778317.9944   23778322.9204
  -3140094.95944  -2446823.99744  24058460.5484   24058461.3444
 -15728489.87244 -12255951.25944  22187975.0644   22187975.4004
 96  5  7  4 38  0.0000000  0  7G21G23G28G17G31G 9G 1
 -19758421.02144 -15396152.85744  21036259.1374   21036259.2594
  -1382913.39844  -1077589.75944  21255130.3714   21255129.7144
 -19472861.397 4 -15173653.415 4  20903658.907    20903659.424
   1668235.03444   1299925.16744  21333515.8354   21333515.7774
  -1539483.24744  -1199595.93844  23762596.0214   23762599.1664
  -3172457.71144  -2472041.69744  24052301.9384   24052300.8614
 -15821457.62444 -12328393.62144  22170283.0864   22170283.3804
 96  5  7  4 38 30.0000000  0  8G21G23G28G17G22G31G 9G 1
 -19782808.01544 -15415155.69144  21031618.5174   21031618.8124
  -1343863.78044  -1047161.48144  21262561.1684   21262560.7494
 -19472460.061 4 -15173340.681 4  20903735.128    20903735.830
   1716511.06244   1337542.85344  21342702.4304   21342702.4624
        -0.18154                  25587868.7284
  -1621716.68144  -1263673.89744  23746948.0574   23746949.2454
  -3204388.53944  -2496922.84244  24046225.5234   24046228.2354
 -15914103.65644 -12400585.28944  22152653.0764   22152653.3044
 96  5  7  4 39  0.0000000  0  8G21G23G28G17G22G31G 9G 1
 -19806967.87244 -15433981.53044  21027021.1374   21027021.2764
  -1304629.69044  -1016589.46044  21270026.9094   21270026.8414
 -19471430.272 4 -15172538.239 4  20903931.227    20903931.796
   1765105.33144   1375408.51144  21351949.3014   21351949.6214
     65160.38444                  25600269.2194
  -1703558.05844  -1327446.32344  23731374.4554   23731374.5224
  -3235894.94744  -2521473.22544  24040230.8504   24040228.7114
 -16006432.63544 -12472529.90544  22135083.7674   22135084.3464
 96  5  7  4 39 30.0000000  0  8G21G23G28G17G22G31G 9G 1
 -19830922.49044 -15452647.45044  21022462.4344   21022462.7194
  -1265251.15444   -985904.89044  21277520.3834   21277519.9994
 -19469803.111 4 -15171270.312 4  20904240.552    20904241.407
   1814005.28744   1413512.36644  21361254.7864   21361255.1024
    130216.58144                  25612647.8544
  -1785018.93744  -1390922.28044  23715873.0604   23715876.3944
  -3267007.01644  -2545716.37244  24034309.4644   24034309.1214
 -16098476.42844 -12544252.29344  22117568.2144   22117568.6284
 96  5  7  4 40  0.0000000  0  8G21G23G28G17G22G31G 9G 1
 -19854660.81644 -15471144.82044  21017945.4274   21017945.3504
  -1225723.85844   -955104.39244  21285042.2574   21285041.8154
 -19467561.299 4 -15169523.440 4  20904667.251    20904668.127
   1863231.50144   1451870.44944  21370622.0664   21370622.1474
    195186.87544                  25625011.7664
  -1866094.95844  -1454098.34044  23700445.2044   23700446.8254
  -3297704.22944  -2569636.22544  24028468.1274   24028467.4024
 -16190206.38944 -12615730.13344  22100112.3524   22100113.1414
 96  5  7  4 40 30.0000000  0  8G21G23G28G17G22G31G 9G 1
 -19878193.80544 -15489482.19044  21013466.9764   21013466.7384
  -1186054.55244   -924193.23744  21292590.7574   21292590.5924
 -19464702.659 4 -15167295.921 4  20905211.398    20905211.976
   1912780.97544   1490480.42244  21380051.0134   21380051.3044
    260091.17644                  25637364.6064
  -1946782.92644  -1516972.01044  23685090.5724   23685093.5914
  -3327983.24144  -2593230.14344  24022706.4404   24022706.0284
 -16281610.26844 -12686953.88744  22082718.1334   22082718.8964
 96  5  7  4 41  0.0000000  0  7G21G23G28G17G31G 9G 1
 -19901520.77244 -15507659.02844  21009028.1244   21009028.1534
  -1146254.88644   -893180.50544  21300164.2814   21300164.1324
 -19461237.277 4 -15164595.621 4  20905870.927    20905871.403
   1962658.90544   1529346.33444  21389542.8894   21389542.7244
  -2027106.67744  -1579561.93844  23669804.4204   23669807.2494
  -3357849.28644  -2616502.31444  24017022.6994
 -16372695.15044 -12757929.06944  22065385.7694   22065386.7944
 96  5  7  4 41 30.0000000  0  8G21G23G28G17G26G31G 9G 1
 -19924655.24544 -15525685.87544  21004625.8474   21004626.0934
  -1106347.54944   -862083.87544  21307758.5744   21307758.4324
 -19457177.454 4 -15161432.116 4  20906643.268    20906643.825
   2012854.65844   1568459.89344  21399094.6684   21399094.7014
        -1.23054                  25198410.5874
  -2107097.22144  -1641892.17844  23654584.9324   23654586.7574
  -3387314.25044                  24011415.2244
 -16463487.24244 -12828676.10144  22048108.3374   22048108.8944
 96  5  7  4 42  0.0000000  0  8G21G23G28G17G26G31G 9G 1
 -19947577.93944 -15543547.69444  21000263.7904   21000263.9274
  -1066301.13344   -830878.86844  21315378.9734   21315378.6564
 -19452507.762 4 -15157793.393 4  20907532.014    20907532.595
   2063361.46444   1607815.83944  21408705.7744   21408706.2454
    104882.68344                  25218370.3734
  -2186746.40944  -1703956.39544  23639426.6554   23639428.6644
  -3416359.70644                  24005888.3724
 -16553972.17344 -12899183.80144  22030890.1534   22030890.6734
 96  5  7  4 42 30.0000000  0  8G21G23G28G17G26G31G 9G 1
 -19970265.42244 -15561226.22944  20995946.5194   20995946.4574
  -1026116.44144   -799566.11544  21323026.0854   21323025.6344
 -19447231.599 4 -15153682.092 4  20908535.969    20908536.689
   2114160.36844   1647399.39444  21418372.7544   21418373.2654
    209848.80444    163519.36344  25238343.7404
  -2266052.65144  -1765753.38044  23624336.4704   23624335.9154
  -3444973.05344  -2684390.84844  24000444.0914
 -16644156.50044 -12969457.26044  22013728.5684   22013728.9644
 96  5  7  4 43  0.0000000  0  8G21G23G28G17G26G31G 9G 1
 -19992703.58444 -15578710.48744  20991676.3554   20991676.3994
   -985785.68044   -768139.54344  21330700.7314   21330701.0184
 -19441340.540 4 -15149091.652 4  20909657.047    20909657.758
   2165264.67844   1687220.92144  21428097.5204   21428097.6324
    314900.09144    245377.50144  25258334.4324   25258333.5654
  -2345009.94044  -1827278.49944  23609311.0604   23609311.5614
  -3473149.92844                  23995081.5094
 -16734026.59844 -13039485.87044  21996626.6314   21996627.0194
 96  5  7  4 43 30.0000000  0  8G23G21G28G17G26G31G 9G 1
   -945298.27044   -736590.90444  21338405.0904   21338405.2534
 -20014906.32344 -15596011.30444  20987451.5064   20987451.2854
 -19434834.959 4 -15144022.362 4  20910895.028    20910895.679
   2216676.93744   1727282.41544  21437880.6644   21437881.0304
    420038.71744    327303.69744  25278344.9334
  -2423590.45444  -1888509.99844  23594357.2514   23594355.6434
  -3500896.24644  -2727967.23844  23989802.2454
 -16823577.92644 -13109266.08444  21979585.1964   21979585.8774
 96  5  7  4 44  0.0000000  0  8G23G21G28G17G26G31G 9G 1
   -904641.96944   -704910.66144  21346141.9134   21346141.5814
 -20036848.27944 -15613108.91044  20983276.3834   20983275.9774
 -19427702.625 4 -15138464.694 4  20912252.254    20912252.676
   2268409.74144   1767593.69144  21447725.3394   21447725.7214
    525283.49544    409312.60244  25298372.3194
  -2501764.66344  -1949424.89144  23579480.7424   23579481.3584
  -3528198.99744  -2749241.02444  23984605.4414   23984605.6824
 -16912779.61944 -13178773.85844  21962610.7374   21962611.1134
 96  5  7  4 44 30.0000000  0  8G23G21G28G17G26G31G 9G 1
   -863827.51844   -673107.18544  21353908.7404   21353908.4164
 -20058535.82044 -15630008.26444  20979149.4554   20979149.0934
 -19419928.075 4 -15132406.597 4  20913731.494    20913732.281
   2320504.88944   1808187.31344  21457638.5924   21457638.8124
    630656.95244                  25318420.3264
  -2579513.26444  -2010008.13944  23564684.8954   23564688.1164
  -3555042.89344  -2770155.38644  23979498.0254   23979499.2234
 -17001601.63544 -13247985.77744  21945708.7794   21945709.4314
 96  5  7  4 45  0.0000000  0  7G23G17G31G 9G 1G21G28
   -822870.26844   -641192.43844  21361702.5284   21361702.1104
   2372983.33244   1849079.59444  21467625.2044   21467624.9934
  -2656835.14644  -2070258.87944  23549971.2884   23549974.1604
  -3581453.07444  -2790730.33344  23974472.0484   23974472.2414
 -17090052.68244 -13316908.63244  21928876.3924   21928877.1384
 -20080004.09744 -15646736.77344  20975063.7874   20975063.7134
 -19411520.449 4 -15125855.195 4  20915331.581    20915332.032
 96  5  7  4 45 30.0000000  0  7G23G17G31G 9G 1G21G28
   -781789.08544   -609181.11544  21369519.9034   21369519.6374
   2425833.05544   1890261.19844  21477681.8954   21477682.2594
  -2733732.42844  -2130178.76444  23535338.0564   23535337.5684
  -3607428.33544  -2810977.23544  23969528.9024   23969529.9404
 -17178144.32944 -13385551.43644  21912113.4184   21912114.0004
 -20101260.63644 -15663300.29344  20971018.5424   20971018.5704
 -19402490.326 4 -15118818.734 4  20917050.016    20917050.623
 96  5  7  4 46  0.0000000  0  7G23G17G31G 9G 1G21G28
   -740632.43744   -577110.99544  21377351.6194   21377351.3924
   2479004.36944   1931693.39044  21487800.1624   21487800.4874
  -2810256.63844  -2189807.96744  23520776.2244   23520776.3124
  -3633003.79244  -2830908.35844  23964662.2284
 -17265915.25244 -13453944.32744  21895411.0844   21895411.6374
 -20122340.93344 -15679726.48244  20967007.2574   20967007.1934
 -19392878.831 4 -15111329.256 4  20918879.015    20918879.644
 96  5  7  4 46 30.0000000  0  7G23G17G31G 9G 1G21G28
   -699353.96344   -544945.94744  21385206.5254   21385206.4634
   2532532.15344   1973403.34844  21497985.7004   21497986.0014
  -2886382.04744  -2249126.40144  23506289.3794   23506289.6854
  -3658151.35044  -2850503.63844  23959877.3394   23959876.8274
 -17353342.43544 -13522069.36344  21878774.4844   21878774.8374
 -20143225.85144 -15696000.42644  20963033.3144   20963032.9584
 -19382654.498 4 -15103362.241 4  20920824.739    20920825.310
 96  5  7  4 47  0.0000000  0  7G23G17G31G 9G 1G21G28
   -657927.37044   -512665.47644  21393089.8224   21393090.0064
   2586392.71144   2015372.61244  21508235.1514   21508235.9034
  -2962119.07644  -2308142.17244  23491877.5574   23491877.2614
  -3682871.13944  -2869765.76244  23955173.3324   23955173.4254
 -17440445.27644 -13589941.67044  21862198.8974   21862199.1194
 -20163901.68744 -15712111.45344  20959098.7304   20959098.3534
 -19371824.758 4 -15094923.476 4  20922885.432    20922885.952
 96  5  7  4 47 30.0000000  0  7G23G17G31G 9G 1G21G28
   -616352.78744   -480269.68744  21401001.4514   21401001.3044
   2640546.48044   2057570.35244  21518540.1574   21518540.6324
  -3037489.05044  -2366871.96044  23477536.7164   23477536.4444
  -3707158.50744  -2888690.92744  23950550.5684   23950551.4444
 -17527228.49944 -13657564.91944  21845685.3094   21845685.2234
 -20184368.10144 -15728059.29344  20955204.1814   20955204.1904
 -19360400.100 4 -15086021.141 4  20925059.660    20925060.008
 96  5  7  4 48  0.0000000  0  7G23G17G31G 9G 1G21G28
   -574611.14144   -447743.72144  21408944.4804   21408944.5074
   2694997.66544   2099999.84144  21528902.3884   21528902.3634
  -3112493.01044  -2425316.54544  23463263.1334   23463262.2574
  -3731001.59244  -2907269.89544  23946013.5184   23946012.3194
 -17613681.79444 -13724931.08844  21829233.6524   21829233.6554
 -20204616.95544 -15743837.60444  20951350.5774   20951350.7744
 -19348370.903 4 -15076647.738 4  20927348.557    20927349.181
 96  5  7  4 48 30.0000000  0  7G23G17G31G 9G21G28G 1
   -532694.96344   -415081.75444  21416921.0944   21416921.2194
   2749759.76344   2142671.60544  21539323.2854   21539323.3804
  -3187117.62644  -2483465.51544  23449061.8814   23449061.0664
  -3754381.42744  -2925487.88444  23941564.8644   23941564.1884
 -20224636.30644 -15759437.08344  20947540.8154   20947541.1194
 -19335726.914 4 -15066795.280 4  20929754.700    20929755.179
 -17699802.12344 -13792037.80144  21812845.5214   21812845.9874
 96  5  7  4 49  0.0000000  0  7G23G17G31G 9G 1G21G28
   -490606.34444   -382285.42544  21424930.3984   21424930.3754
   2804851.19144   2185599.99544  21549806.6174   21549806.9524
  -3261323.48044  -2541288.20544  23434942.3474   23434942.1164
  -3777267.22744  -2943320.92344  23937209.8614   23937206.9484
 -17785561.67144 -13858863.38944  21796525.6584   21796526.0424
 -20244400.68644 -15774837.88644  20943779.7674   20943779.6694
 -19322443.732 4 -15056444.751 4  20932282.256    20932282.967
 96  5  7  4 49 30.0000000  0  7G23G17G31G 9G 1G21G28
   -448389.69544   -349389.32744  21432963.6114   21432963.5864
   2860267.26644   2228781.34744  21560351.8994   21560352.3164
  -3335102.79444  -2598778.57544  23420901.8754   23420902.3494
  -3799673.26344  -2960780.10244  23932945.4444   23932947.0244
 -17870962.16644 -13925409.19144  21780274.3684   21780274.8994
 -20263934.04044 -15790058.66344  20940062.8144   20940062.8904
 -19308536.217 4 -15045607.722 4  20934928.910    20934929.245
 96  5  7  4 50  0.0000000  0  7G23G17G31G 9G 1G21G28
   -406056.31044   -316402.26744  21441019.2444   21441019.3164
   2916034.66144   2272236.45244  21570963.9614   21570964.7154
  -3408448.59344  -2655931.08344  23406943.9464   23406944.1574
  -3821604.84944  -2977869.61344  23928773.2154   23928771.6974
 -17956009.74544 -13991679.99844  21764090.1774   21764090.7574
 -20283243.00144 -15805104.58544  20936388.3004   20936388.4414
 -19294002.261 4 -15034282.559 4  20937694.514    20937695.149
 96  5  7  4 50 30.0000000  0  7G23G17G31G 9G21G28G 1
   -363615.51044   -283331.51044  21449095.7954   21449095.4064
   2972162.97044   2315972.79044  21581644.9034   21581645.4244
  -3481333.30144  -2712724.28044  23393074.9174   23393077.3514
  -3843059.95244  -2994587.83244  23924690.2574   23924690.6644
 -20302338.30744 -15819984.02144  20932754.3364   20932754.8594
 -19278837.281 4 -15022465.685 4  20940580.375    20940580.979
 -18040689.43444 -14057664.13444  21747976.0164   21747976.5044
 96  5  7  4 51  0.0000000  0  7G23G17G31G 9G 1G21G28
   -321072.16844   -250180.84844  21457191.2144   21457190.9234
   3028647.59744   2359986.78244  21592393.4624   21592394.1534
  -3553766.73644  -2769165.86744  23379291.2064   23379292.6494
  -3864051.27844  -3010944.64844  23920695.3474   23920694.8304
 -18124993.41644 -14123355.51444  21731933.6654   21731934.6584
 -20321236.93044 -15834710.19444  20929157.9314   20929158.1034
 -19263052.043 4 -15010165.498 4  20943584.178    20943584.797
 96  5  7  4 51 30.0000000  0  7G23G17G31G 9G21G28G 1
   -278415.72344   -216942.05444  21465308.6704   21465308.7944
   3085488.48544   2404278.37744  21603209.4614   21603210.3274
  -3625774.67544  -2825275.86944  23365588.7544   23365590.4074
  -3884585.72844  -3026945.47944  23916787.4914
 -20339945.74344 -15849288.49344  20925598.1114   20925597.8854
 -19246657.834 4 -14997390.785 4  20946703.940    20946704.583
 -18208927.77044 -14188758.86644  21715961.3554   21715962.0374
 96  5  7  4 52  0.0000000  0  7G23G17G31G 9G 1G21G28
   -235660.06044   -183625.94744  21473444.9394   21473444.6074
   3142646.86844   2448817.36644  21614087.0114   21614087.6214
  -3697391.92844  -2881081.50944  23351960.1284   23351963.1594
  -3904688.36544  -3042609.89944  23912962.3484   23912962.7094
 -18292516.67144 -14253893.04444  21700055.3394   21700055.6214
 -20358496.30244 -15863743.44944  20922068.1144   20922067.8284
 -19229680.565 4 -14984161.740 4  20949934.776    20949935.109
 96  5  7  4 52 30.0000000  0  7G23G17G31G 9G 1G21G28
   -192788.21444   -150219.31444  21481603.1674   21481602.6714
   3200108.26144   2493592.47044  21625021.3794   21625021.7064
  -3768600.63144  -2936568.76844  23338409.2424   23338409.4864
  -3924350.23944  -3057930.81644  23909220.5134
 -18375746.39144 -14318747.34044  21684217.1874   21684217.6564
 -20376873.03544 -15878062.95944  20918571.3894   20918571.0934
 -19212120.654 4 -14970478.687 4  20953276.235    20953276.850
 96  5  7  4 53  0.0000000  0  7G23G17G31G 9G 1G21G28
   -149757.59244   -116688.95244  21489791.2884   21489790.9244
   3257901.40544   2538626.07744  21636019.3854   21636019.7784
  -3839372.00744  -2991715.28844  23324941.7544   23324940.2404
  -3943539.59944  -3072883.57544  23905568.3304   23905571.1954
 -18458594.21344 -14383304.04744  21668451.7964   21668452.1484
 -20395020.00644 -15892203.43244  20915118.0054   20915117.8194
 -19193944.061 4 -14956315.102 4  20956735.105    20956735.314
 96  5  7  4 53 30.0000000  0  7G23G17G31G 9G 1G21G28
   -106604.75944    -83063.36344  21498003.0964   21498002.9254
   3315982.25544   2583883.87444  21647071.5074   21647071.4364
  -3909722.39844  -3046533.72844  23311555.0034   23311554.7684
  -3962285.32644  -3087490.63844  23902001.5714   23902000.5364
 -18541099.13444 -14447593.56344  21652751.1954   21652751.6054
 -20412956.85144 -15906180.17644  20911704.7244   20911704.5724
 -19175184.311 4 -14941697.115 4  20960304.628    20960305.371
 96  5  7  4 54  0.0000000  0  7G23G17G31G 9G 1G21G28
    -63314.52244    -49330.71044  21506241.0834   21506240.7234
   3374358.02444   2629371.49044  21658180.2514   21658180.7384
  -3979616.29844  -3100996.49144  23298254.0774   23298254.7834
  -3980559.66544  -3101730.47844  23898524.1044
 -18623237.77344 -14511597.66344  21637120.7744   21637121.3394
 -20430652.78644 -15919969.19544  20908337.2274   20908337.0434
 -19155820.563 4 -14926608.473 4  20963989.477    20963990.310
 96  5  7  4 54 30.0000000  0  7G23G17G31G 9G 1G21G28
    -19897.21844    -15499.04044  21514503.0874   21514502.9764
   3433031.50144   2675091.06944  21669345.6084   21669345.9504
  -4049062.79144  -3155110.60344  23285038.9814   23285039.8414
  -3998366.51344  -3115607.15344  23895135.8444   23895136.0554
 -18705020.78244 -14575324.64844  21621557.9614   21621558.4354
 -20448099.00044 -15933563.62744  20905017.6494   20905017.0814
 -19135860.269 4 -14911054.996 4  20967787.813    20967788.617
 96  5  7  4 55  0.0000000  0  7G23G17G31G 9G 1G21G28
     23650.16544     18433.99244  21522789.9544   21522789.4174
   3492014.99044   2721052.23044  21680569.5994   21680569.9844
  -4118067.43644  -3208880.38844  23271907.9414   23271909.2894
  -4015687.18144  -3129108.29144  23891839.4924   23891839.1364
 -18786431.71844 -14638761.70644  21606066.3474   21606066.5794
 -20465298.28944 -15946965.64944  20901744.4944   20901744.0924
 -19115296.553 4 -14895031.317 4  20971701.014    20971701.790
 96  5  7  4 55 30.0000000  0  7G23G17G31G 9G 1G21G28
     67333.91544     52473.28144  21531102.9044   21531102.3834
   3551323.14044   2767266.36244  21691855.7654   21691855.8204
  -4186632.13844  -3262307.39644  23258860.6374   23258861.6974
  -4032495.27544  -3142200.76644  23888641.4934   23888642.0024
 -18867450.03444 -14701892.82744  21590648.7464   21590649.3744
 -20482255.25744 -15960178.85344  20898517.7684   20898517.5474
 -19094120.446 4 -14878530.453 4  20975730.687    20975731.302
 96  5  7  4 56  0.0000000  0  7G23G17G31G 9G 1G21G28
    111140.49144     86608.27744  21539438.7554   21539438.4334
   3610949.77544   2813728.67344  21703202.3834   21703202.5024
  -4254782.29744  -3315411.38044  23245891.4524   23245893.1774
  -4048801.39644                  23885538.6974
 -18948080.86044 -14764722.01044  21575305.3344   21575305.8544
 -20498993.20844 -15973221.40244  20895332.3184   20895332.1424
 -19072345.727 4 -14861563.138 4  20979874.215    20979874.830
 96  5  7  4 56 30.0000000  0  7G23G28G21G17G31G 9G 1
    155069.33544    120838.55644  21547797.9734   21547797.8644
 -19049971.193 4 -14844128.433 4  20984132.222    20984132.252
 -20515527.15444 -15986104.98044  20892186.0174   20892185.8104
   3670910.20244   2860451.07844  21714612.5284   21714612.5424
  -4322513.83044  -3368189.16444  23233002.8924   23233004.1374
  -4064620.90944  -3167233.40944  23882528.0284   23882529.4554
 -19028314.10744 -14827241.39244  21560037.5834   21560037.7334
 96  5  7  4 57  0.0000000  0  7G23G28G21G17G31G 9G 1
    199125.88944    155168.35044  21556181.3754   21556181.5424
 -19026988.789 4 -14826220.069 4  20988505.491    20988505.839
 -20531857.69244 -15998830.05544  20889078.4204   20889078.4524
   3731222.67844   2907447.81544  21726089.4374   21726089.6274
  -4389807.56144  -3420625.79844  23220196.8044   23220198.5494
  -4079946.53044  -3179175.45944  23879610.9444   23879609.6474
 -19108141.38244 -14889444.42944  21544846.6474   21544847.1904
 96  5  7  4 57 30.0000000  0  7G23G28G21G17G31G 9G 1
    243295.95044    189586.58444  21564586.9944   21564586.6494
 -19003412.990 4 -14807849.312 4  20992991.782    20992992.349
 -20547993.98344 -16011403.76844  20886007.8164   20886007.7304
   3791882.87244   2954715.48344  21737632.5864   21737632.5094
  -4456662.89244  -3472720.84944  23207475.3574   23207473.9994
  -4094812.79744  -3190759.54644  23876782.8424   23876781.8584
 -19187584.86144 -14951348.40844  21529729.0424   21529729.1844
 96  5  7  4 58  0.0000000  0  7G23G28G21G17G31G 9G 1
    287560.57844    224078.50744  21573010.2534   21573009.8524
 -18979261.164 4 -14789029.706 4  20997587.676    20997588.456
 -20563956.17444 -16023841.82544  20882970.3814   20882970.0664
   3852877.67344   3002243.89744  21749239.5024   21749239.3274
  -4523076.68444  -3524471.85244  23194837.9914   23194837.4234
  -4109261.72744  -3202018.46644  23874032.3464   23874033.1714
 -19266660.41644 -15012965.69444  21514681.6414   21514681.5804
 96  5  7  4 58 30.0000000  0  7G23G28G21G17G31G 9G 1
    331928.32044    258650.77544  21581453.3444   21581453.2484
 -18954514.428 4 -14769746.531 4  21002296.642    21002297.643
 -20579736.40744 -16036138.09544  20879967.4714   20879967.2244
   3914225.01644   3050047.01344  21760913.5524   21760913.9774
  -4589021.49044  -3575857.37044  23182287.7914   23182288.6174
  -4123272.72344  -3212936.07144  23871367.5794   23871368.4464
 -19345357.99744 -15074288.45644  21499705.7854   21499705.8554
 96  5  7  4 59  0.0000000  0  7G23G28G17G21G31G 9G 1
    376418.91144    293318.77044  21589919.7804   21589919.4414
 -18929157.989 4 -14749988.264 4  21007121.781    21007122.770
   3975931.01144   3098129.60344  21772655.7084   21772655.7294
 -20595319.08044 -16048280.41944  20877002.2014   20877001.8924
  -4654477.02844  -3626861.63644  23169832.2554   23169832.7544
  -4136817.48344  -3223490.42244  23868789.1824   23868788.7824
 -19423665.62844 -15135307.36844  21484804.5264   21484804.3864
 96  5  7  4 59 30.0000000  0  7G23G28G21G17G31G 9G 1
    421026.15444    328077.65244  21598408.0794   21598408.1624
 -18903200.660 4 -14729761.769 4  21012061.524    21012062.065
 -20610711.86144 -16060274.78344  20874073.1264   20874072.7754
   4037969.29244   3146471.12444  21784461.1174   21784461.2704
  -4719452.06544  -3677491.49944  23157468.6974   23157468.2034
  -4149902.27844  -3233686.36144  23866299.4314   23866298.3214
 -19501579.25144 -15196019.25644  21469977.8604   21469977.8874
 96  5  7  5  0  0.0000000  0  7G23G28G21G17G31G 9G 1
    465733.07144    362914.20644  21606915.4824   21606915.1254
 -18876652.926 4 -14709075.221 4  21017113.330    21017113.769
 -20625921.11644 -16072126.13844  20871178.8194   20871178.5124
   4100317.95444   3195054.49344  21796325.6844   21796326.1914
  -4783960.88444  -3727758.08444  23145192.7474   23145191.8114
  -4162511.75844  -3243511.87944  23863898.9904   23863899.3554
 -19579099.47444 -15256424.59444  21455226.1174   21455226.1114
 96  5  7  5  0 30.0000000  0  7G23G28G21G17G31G 9G 1
    510563.12644    397846.73444  21615446.3164   21615445.7034
 -18849509.348 4 -14687924.382 4  21022278.617    21022279.247
 -20640922.48144 -16083815.50244  20868324.3944   20868323.8784
   4162980.44944   3243882.40044  21808250.0734   21808250.6464
  -4847992.76544  -3777653.03744  23133006.9414   23133006.9004
  -4174612.15844  -3252940.72744  23861597.3644   23861597.3984
 -19656212.48544 -15316512.63044  21440551.9754   21440551.9754
 96  5  7  5  1  0.0000000  0  7G23G28G17G21G31G 9G 1
    555528.85844    432884.97244  21624003.3304   21624002.6664
 -18821776.316 4 -14666314.226 4  21027556.081    21027556.910
   4225954.33044   3292952.95444  21820233.8374   21820234.1024
 -20655705.21844 -16095334.50544  20865511.3824   20865511.0764
  -4911552.55544  -3827180.11344  23120911.4644   23120912.0954
  -4186205.99144  -3261974.82144  23859390.5624   23859389.3824
 -19732910.13144 -15376277.00544  21425956.8474   21425957.1464
 96  5  7  5  1 30.0000000  0  7G23G28G21G17G31G 9G 1
    600620.96844    468021.68744  21632583.8464   21632583.7454
 -18793458.007 4 -14644248.009 4  21032944.862    21032945.481
 -20670270.28644 -16106683.89644  20862739.5404   20862739.3804
   4289246.51644   3342271.53544  21832277.5844   21832277.4484
  -4974644.93844  -3876342.95644  23108905.6864   23108906.7304
  -4197286.51544  -3270608.96944  23857282.4324   23857281.0344
 -19809184.43544 -15435711.49444  21411442.4074   21411442.7954
 96  5  7  5  2  0.0000000  0  7G23G28G17G21G31G 9G 1
    645826.26844    503246.59944  21641185.6694   21641185.8014
 -18764566.972 4 -14621735.510 4  21038442.589    21038443.188
   4352854.73444   3391836.37944  21844382.0014   21844382.0734
 -20684642.21844 -16117882.78744  20860004.5094   20860004.2244
  -5037278.48844  -3925148.26144  23096987.6724   23096987.4644
  -4207859.09544  -3278847.32444  23855270.5284   23855268.7624
 -19885045.67544 -15494824.12444  21397007.0024   21397007.3174
 96  5  7  5  2 30.0000000  0  7G23G28G21G17G31G 9G 1
    691141.91744    538557.49844  21649809.2214   21649808.8364
 -18735105.066 4 -14598778.181 4  21044048.995    21044049.562
 -20698825.63244 -16128934.78444  20857305.4384   20857305.1954
   4416786.74644   3441653.52444  21856547.9464   21856547.7844
  -5099446.97944  -3973591.21044  23085156.6604   23085157.1684
  -4217939.38144  -3286702.06344  23853352.2164   23853350.8404
 -19960496.37144 -15553616.84644  21382648.8994   21382649.0594
 96  5  7  5  3  0.0000000  0  7G23G28G21G17G31G 9G 1
    736545.76444    573937.12444  21658449.6904   21658448.9614
 -18705075.102 4 -14575378.212 4  21049763.713    21049764.056
 -20712828.55444 -16139846.13444  20854640.6304   20854640.3484
   4481048.19344   3491727.37544  21868776.5274   21868776.5314
  -5161170.12044  -4021687.13444  23073410.7424   23073411.0994
  -4227538.59344  -3294181.97144  23851526.1874   23851525.5774
 -20035540.90244 -15612093.07644  21368368.4134   21368368.7884
 96  5  7  5  3 30.0000000  0  7G23G28G21G17G31G 9G 1
    782024.79244    609375.33544  21667104.0774   21667103.5574
 -18674477.807 4 -14551536.165 4  21055586.069    21055586.601
 -20726646.78044 -16150613.56244  20852011.2964   20852011.1094
   4545632.22644   3542052.59044  21881066.4094   21881066.7504
  -5222459.85944  -4069445.31344  23061748.5534   23061748.4514
  -4236655.85044  -3301286.28444  23849790.1044   23849790.6894
 -20110191.98744 -15670262.73044  21354162.6894   21354162.5764
 96  5  7  5  4  0.0000000  0  7G23G28G21G17G31G 9G 1
    827590.16144    644880.82544  21675774.8484   21675774.6174
 -18643308.078 4 -14527248.062 4  21061517.386    21061517.973
 -20740257.59644 -16161219.37644  20849421.3964   20849421.1414
   4610541.84844   3592631.50744  21893418.2854   21893418.6344
  -5283315.12644  -4116864.95544  23050168.2824   23050168.9074
  -4245294.56444  -3308017.72244  23848146.6344   23848144.0694
 -20184461.16444 -15728134.79244  21340029.5334   21340029.4444
 96  5  7  5  4 30.0000000  0  7G23G28G21G17G31G 9G 1
    873258.03544    680466.18544  21684464.5634   21684464.6054
 -18611560.866 4 -14502509.972 4  21067558.623    21067559.356
 -20753630.75744 -16171640.00644  20846876.5104   20846876.3944
   4675773.91744   3643461.68744  21905831.8284   21905832.2314
  -5343730.94544  -4163942.16344  23038672.3694   23038672.7634
  -4253446.05944  -3314369.53344  23846595.5154   23846595.0844
 -20258350.58244 -15785710.93444  21325969.3064   21325969.3214
 96  5  7  5  5  0.0000000  0  7G23G28G21G17G31G 9G 1
    919030.71444    716133.21244  21693174.6924   21693174.9744
 -18579240.094 4 -14477324.954 4  21073709.047    21073709.641
 -20766774.32244 -16181881.72844  20844375.3314   20844375.2734
   4741310.03844   3694528.79044  21918302.5984   21918303.2124
  -5403719.10244  -4210686.14144  23027256.6554   23027255.5954
  -4261110.33644  -3320341.67744  23845137.4414   23845135.9394
 -20331868.23644 -15842997.39044  21311979.1404   21311979.0814
 96  5  7  5  5 30.0000000  0  7G23G28G21G17G31G 9G 1
    964948.49244    751913.29644  21701912.9324   21701912.7434
 -18546315.420 4 -14451669.367 4  21079974.457    21079975.032
 -20779665.59344 -16191926.86544  20841922.1444   20841922.0094
   4807164.57844   3745844.01144  21930833.9044   21930834.4184
  -5463218.83044  -4257049.51244  23015933.3224   23015932.1664
  -4268250.83144  -3325905.67644  23843778.0344   23843778.8204
 -20404982.19844 -15899969.28444  21298066.0884   21298066.2034
 96  5  7  5  6  0.0000000  0  7G23G28G21G17G31G 9G 1
   1011018.70744    787812.17144  21710679.9404   21710679.5644
 -18512785.312 4 -14425542.015 4  21086355.304    21086355.744
 -20792315.20144 -16201783.68444  20839514.8944   20839514.5424
   4873343.93244   3797412.33344  21943427.8974   21943428.3414
  -5522209.77344  -4303016.44844  23004708.5584   23004707.2034
  -4274871.93344  -3331064.95744  23842517.9454   23842517.6184
 -20477674.28444 -15956612.44444  21284233.2194   21284233.2114
 96  5  7  5  6 30.0000000  0  7G23G28G21G17G31G 9G 1
   1057240.77244    823829.36744  21719475.5814   21719475.2084
 -18478635.282 4 -14398931.607 4  21092853.831    21092854.244
 -20804728.09444 -16211456.04944  20837152.9254   20837152.4624
   4939860.21544   3849243.19644  21956085.5854   21956085.7494
  -5580662.67044  -4348564.11844  22993584.9784   22993583.7994
  -4280947.03644  -3335798.78844  23841362.4734   23841361.8634
 -20549912.88044 -16012902.23544  21270486.0604   21270486.4574
 96  5  7  5  7  0.0000000  0  7G23G28G21G17G31G 9G 1
   1103579.48844    859937.45944  21728293.5194   21728293.3394
 -18443889.794 4 -14371857.206 4  21099465.274    21099466.144
 -20816951.03144 -16220980.39944  20834826.9104   20834826.4944
   5006712.14544   3901335.60444  21968807.5054   21968807.7694
  -5638595.65844  -4393706.66944  22982560.0964   22982559.6094
  -4286499.45844  -3340125.28644  23840305.6294   23840304.5964
 -20621709.00444 -16068847.23644  21256823.8234   21256824.2964
 96  5  7  5  7 30.0000000  0  7G23G28G21G17G31G 9G 1
   1150044.43144    896143.90944  21737135.5524   21737135.6324
 -18408536.735 4 -14344309.375 4  21106192.911    21106193.575
 -20828967.50344 -16230343.87144  20832540.1244   20832539.9294
   5073933.82644   3953716.12544  21981599.2044   21981599.0374
  -5695980.27644  -4438421.90544  22971640.2694   22971640.3954
  -4291504.32244  -3344025.18644  23839353.3054   23839352.7044
 -20693035.58844 -16124426.36544  21243250.6704   21243251.2754
 96  5  7  5  8  0.0000000  0  7G23G28G21G17G31G 9G 1
   1196609.99244    932428.76544  21745996.7774   21745996.5844
 -18372590.232 4 -14316299.114 4  21113033.292    21113034.003
 -20840782.61344 -16239550.44144  20830291.5954   20830291.5954
   5141524.09044   4006383.85644  21994461.2984   21994460.9924
  -5752837.71244  -4482726.35944  22960820.7414   22960820.9104
  -4295974.65344  -3347508.52044  23838501.8014   23838501.8174
 -20763893.80644 -16179640.53344  21229767.0784   21229766.8994
 96  5  7  5  8 30.0000000  0  7G23G21G28G17G31G 9G 1
   1243241.88444    968765.30544  21754870.3414   21754869.9734
 -20852426.46444 -16248623.56044  20828076.0624   20828076.0464
 -18336086.737 4 -14287854.835 4  21119979.713    21119980.461
   5209439.84244   4059305.21444  22007384.9474   22007385.1454
  -5809196.51644  -4526642.26644  22950095.8344   22950096.4144
  -4299937.61644  -3350596.55344  23837748.0904   23837747.6524
 -20834312.85944 -16234512.49944  21216366.6234   21216366.6604
 96  5  7  5  9  0.0000000  0  7G23G21G28G17G31G 9G 1
   1289931.89244   1005147.13444  21763755.3044   21763755.3064
 -20863916.25244 -16257576.63444  20825889.5294   20825889.5114
 -18299059.783 4 -14259002.667 4  21127025.972    21127026.143
   5277654.20044   4112459.25744  22020365.6534   22020366.1174
  -5865102.12244  -4570205.04444  22939457.5664   22939457.3114
  -4303439.91344  -3353325.55444  23837081.4154   23837083.0084
 -20904324.68844 -16289067.14844  21203043.8844   21203043.8434
 96  5  7  5  9 30.0000000  0  7G23G21G28G17G31G 9G 1
   1336693.36744   1041584.65144  21772653.6294   21772653.0694
 -20875223.09244 -16266387.14044  20823738.1194   20823737.7114
 -18261499.747 4 -14229735.108 4  21134173.300    21134173.721
   5346156.07444   4165837.33544  22033400.9384   22033401.9864
  -5920539.85644  -4613403.24544  22928908.1584   22928908.4784
  -4306473.80644  -3355689.63744  23836504.1314   23836502.9374
 -20973913.96044 -16343292.53044  21189801.5554   21189801.5454
 96  5  7  5 10  0.0000000  0  7G23G21G28G17G31G 9G 1
   1383559.48344   1078103.70944  21781571.7134   21781571.3404
 -20886325.09644 -16275038.03644  20821625.6024   20821624.9714
 -18223382.815 4 -14200033.605 4  21141426.679    21141427.288
   5414959.01144   4219450.01344  22046493.5614   22046494.1824
  -5975493.42944  -4656224.16444  22918450.8534   22918451.6004
  -4309019.48844  -3357673.26144  23836020.3664   23836019.8854
 -21043061.29144 -16397173.54244  21176643.1444   21176643.3134
 96  5  7  5 10 30.0000000  0  7G23G21G28G17G31G 9G 1
   1430555.76644   1114724.20044  21790514.9344   21790515.0354
 -20897224.73044 -16283531.24144  20819551.2544   20819550.8184
 -18184708.854 4 -14169898.052 4  21148786.036    21148786.754
   5484068.91244   4273301.87744  22059645.0214   22059645.2484
  -6029962.19644  -4698667.31144  22908085.8434   22908086.3894
  -4311075.01844  -3359274.95144  23835628.3634   23835628.3804
 -21111780.12344 -16450720.65844  21163566.4194   21163566.2524
 96  5  7  5 11  0.0000000  0  7G23G21G28G17G31G 9G 1
   1477689.63844   1151451.89944  21799484.3674   21799484.1374
 -20907910.86844 -16291858.08644  20817517.6964   20817517.1884
 -18145465.515 4 -14139318.829 4  21156253.895    21156254.333
   5553510.67644   4327412.34144  22072859.4214   22072858.7984
  -6083935.69844  -4740724.55644  22897815.0074   22897815.8684
  -4312628.65444  -3360485.57944  23835332.4284   23835333.1454
 -21180071.84744 -16503934.96644  21150570.7484   21150570.6874
 96  5  7  5 11 30.0000000  0  7G23G28G21G17G31G 9G 1
   1524944.05144   1188273.52244  21808476.5034   21808476.7664
 -18105654.039 4 -14108296.903 4  21163829.525    21163830.485
 -20918400.67744 -16300031.94744  20815521.4844   20815521.1754
   5623277.85144   4381776.37144  22086135.0434   22086135.6534
  -6137391.36444  -4782378.28644  22887642.3344   22887642.2614
  -4313662.47944  -3361291.10044  23835135.4844   23835135.3784
 -21247940.58644 -16556819.67744  21137655.8654   21137655.5984
 96  5  7  5 12  0.0000000  0  7G23G28G21G17G31G 9G 1
   1572327.55644   1225195.73444  21817493.3854   21817493.3324
 -18065266.719 4 -14076826.264 4  21171514.935    21171516.044
 -20928688.66944 -16308048.55144  20813563.7694   20813563.5524
   5693385.73044   4436405.89044  22099476.4084   22099476.3514
  -6190321.05244  -4823622.16544  22877570.6124   22877570.0464
  -4314165.00044  -3361682.69044  23835041.0574   23835039.1544
 -21315382.07044 -16609371.46044  21124822.2734   21124822.5094
 96  5  7  5 12 30.0000000  0  7G23G28G21G17G31G 9G 1
   1619799.18444   1262186.61944  21826526.7324   21826526.8034
 -18024331.471 4 -14044928.670 4  21179304.844    21179305.586
 -20938802.08344 -16315929.12244  20811639.2884   20811639.2354
   5763804.71444   4491277.83344  22112876.7874   22112877.1344
  -6242742.83844  -4864470.29244  22867594.3654   22867593.8814
  -4314160.85444  -3361679.46244  23835041.7644   23835038.9174
 -21382412.65644 -16661603.06144  21112066.7054   21112066.6164
 96  5  7  5 13  0.0000000  0  7G23G28G21G17G31G 9G 1
   1667345.77144   1299235.91144  21835574.4384   21835574.0534
 -17982835.012 4 -14012593.771 4  21187201.413    21187201.895
 -20948728.86444 -16323664.26544  20809750.3064   20809750.1514
   5834539.61444   4546395.93644  22126337.4654   22126338.0294
  -6294644.06144  -4904912.76644  22857717.7044   22857718.1224
  -4313630.22044  -3361266.03244  23835142.3504   23835141.9934
 -21449006.57544 -16713494.40644  21099394.3654   21099394.1824
 96  5  7  5 13 30.0000000  0  7G23G28G21G17G31G 9G 1
   1714956.05044   1336334.83644  21844634.7294   21844634.3834
 -17940795.652 4 -13979835.833 4  21195201.225    21195201.643
 -20958481.16444 -16331263.45444  20807894.4264   20807894.0544
   5905567.19644   4601742.09644  22139853.3784   22139853.8624
  -6346038.44544  -4944960.28844  22847937.5494   22847938.6944
  -4312579.37644  -3360447.15244  23835342.3244   23835341.6694
 -21515161.45044 -16765043.63744  21086805.6004   21086805.3694
 96  5  7  5 14  0.0000000  0  7G23G28G21G17G31G 9G 1
   1762641.19944   1373492.10244  21853708.8994   21853709.0204
 -17898205.145 4 -13946648.429 4  21203306.108    21203306.414
 -20968038.31844 -16338710.58044  20806075.9454   20806075.4754
   5976906.12244   4657330.87344  22153428.8014   22153428.9214
  -6396926.91844  -4984613.63044  22838254.4604   22838253.9314
  -4311001.67744  -3359217.76244  23835642.7494   23835643.7224
 -21580863.68844 -16816240.16544  21074302.7834   21074302.4234
 96  5  7  5 14 30.0000000  0  7G23G28G21G17G31G 9G 1
   1810386.80144   1410696.46644  21862794.0274   21862793.8464
 -17855080.651 4 -13913044.933 4  21211512.408    21211512.710
 -20977416.45044 -16346018.20644  20804291.0754   20804290.6534
   6048544.82444   4713153.22844  22167061.0254   22167060.6924
  -6447319.79244  -5023880.78244  22828663.9714   22828663.6764
  -4308903.17244  -3357582.53944  23836041.9734   23836042.4524
 -21646135.13544 -16867101.01244  21061881.9584   21061881.5054
 96  5  7  5 15  0.0000000  0  7G23G28G21G17G31G 9G 1
   1858199.33744   1447952.99144  21871892.7824   21871891.9914
 -17811433.545 4 -13879034.204 4  21219817.791    21219818.500
 -20986610.12744 -16353182.09444  20802541.6204   20802541.1784
   6120477.50244   4769204.66844  22180749.2964   22180749.7614
  -6497226.77844  -5062769.31944  22819167.7584   22819167.4304
  -4306297.20744  -3355551.92744  23836537.7404   23836537.2554
 -21710987.70444 -16917635.46044  21049540.8424   21049540.7974
 96  5  7  5 15 30.0000000  0  7G23G28G21G17G31G 9G 1
   1906105.01444   1485282.09744  21881009.1404   21881008.5154
 -17767252.844 4 -13844607.685 4  21228225.348    21228226.119
 -20995596.66644 -16360184.57944  20800831.5044   20800831.0334
   6192726.38244   4825502.49644  22194498.5644   22194498.2864
  -6546631.34144  -5101266.36344  22809766.6194   22809764.9464
  -4303176.07944  -3353119.86544  23837131.8454   23837130.4634
 -21775402.46044 -16967828.75744  21037282.7554   21037283.0024
 96  5  7  5 16  0.0000000  0  7G23G28G21G17G31G 9G 1
   1954096.47144   1522678.04044  21890141.4614   21890141.6604
 -17722547.826 4 -13809772.607 4  21236732.237    21236733.113
 -21004383.24944 -16367031.25844  20799159.6184   20799159.2104
   6265283.69644   4882040.66244  22208305.3464   22208305.7944
  -6595539.44644  -5139376.56544  22800460.2294   22800458.7074
  -4299554.53744  -3350297.85344  23837820.8844   23837819.2724
 -21839393.91744 -17017692.21144  21025105.7694   21025106.0364
 96  5  7  5 16 30.0000000  0  7G23G28G21G17G31G 9G 1
   2002192.78544   1560155.69044  21899293.7274   21899293.4204
 -17677311.909 4 -13774523.843 4  21245340.341    21245341.175
 -21012956.01744 -16373711.33044  20797528.1024   20797528.0394
   6338147.47344   4938817.62144  22222170.8654   22222170.7584
  -6643939.54844  -5177090.90544  22791249.1884   22791248.9994
  -4295426.77344  -3347081.38344  23838606.7544   23838606.3144
 -21902938.24744 -17067207.25044  21013013.4764   21013013.9384
 96  5  7  5 17  0.0000000  0  7G23G28G21G17G31G 9G 1
   2050407.98944   1597725.98144  21908469.1114   21908468.5784
 -17631530.289 4 -13738849.861 4  21254052.421    21254053.094
 -21021303.27044 -16380215.67444  20795939.7934   20795939.5864
   6411337.48144   4995848.79044  22236097.8554   22236098.2424
  -6691811.42644  -5214393.64644  22782139.5724   22782138.9104
  -4290786.89744  -3343465.90844  23839489.7484   23839490.3244
 -21965995.85444 -17116343.02844  21001014.1084   21001014.4514
 96  5  7  5 17 30.0000000  0  7G23G28G17G31G 9G21G 1
   2098733.45744   1635382.19644  21917664.7034   21917664.2344
 -17585200.820 4 -13702748.984 4  21262868.812    21262869.272
   6484861.94144   5053140.55744  22250089.8434   22250089.8214
  -6739141.36544  -5251274.11944  22773132.3024   22773132.8614
  -4285623.38844  -3339442.36044  23840472.0134   23840471.4024
 -21029440.65244 -16386556.48344  20794391.2484   20794391.1384
 -22028563.23444 -17165096.80844  20989107.9114   20989108.3564
 96  5  7  5 18  0.0000000  0  7G23G28G17G31G 9G21G 1
   2147165.96744   1673121.81944  21926881.6654   21926881.1764
 -17538321.535 4 -13666219.679 4  21271789.674    21271789.961
   6558705.00244   5110680.60344  22264141.3444   22264141.1514
  -6785914.70444  -5287720.86944  22764232.7574   22764232.4484
  -4279931.47544  -3335007.10444  23841554.2904   23841553.7414
 -21037369.23544 -16392734.59344  20792882.4724   20792882.3564
 -22090642.10844 -17213469.93844  20977294.9094   20977295.0634
 96  5  7  5 18 30.0000000  0  7G23G28G17G31G 9G21G 1
   2195704.91844   1710944.38444  21936118.0334   21936117.4534
 -17490887.765 4 -13629258.312 4  21280815.920    21280816.147
   6632878.02044   5168477.74944  22278256.6944   22278256.5754
  -6832117.80344  -5323723.27044  22755439.6304   22755439.4574
  -4273705.78544  -3330155.90144  23842738.0554   23842737.8964
 -21045095.18144 -16398754.80344  20791412.2664   20791411.9794
 -22152228.42844 -17261459.25944  20965575.4384   20965575.6534
 96  5  7  5 19  0.0000000  0  7G23G28G17G31G 9G21G 1
   2244333.90244   1748837.11044  21945372.0554   21945371.7244
 -17442907.913 4 -13591871.417 4  21289946.269    21289946.542
   6707385.22844   5226535.29844  22292434.3754   22292435.5024
  -6877756.59144  -5359285.94744  22746755.3854   22746755.5134
  -4266955.06944  -3324895.60144  23844024.4574   23844023.3634
 -21052640.44444 -16404634.22644  20789976.4344   20789976.0924
 -22213343.46744 -17309081.34744  20953945.5524   20953945.7514
 96  5  7  5 19 30.0000000  0  7G23G28G17G31G 9G21G 1
   2293039.93344   1786789.88944  21954640.0764   21954639.8384
 -17394401.625 4 -13554074.317 4  21299176.532    21299177.150
   6782193.09144   5284827.12944  22306669.5364   22306669.9954
  -6922859.87044  -5394431.35144  22738172.4584   22738172.1144
  -4259679.59244  -3319226.40544  23845409.0334   23845407.9464
 -21060019.30644 -16410383.98444  20788572.1744   20788572.0244
 -22274017.84644 -17356360.06344  20942399.6924   20942399.9514
 96  5  7  5 20  0.0000000  0  7G23G28G17G31G 9G21G 1
   2341820.18144   1824800.44144  21963922.8604   21963922.5324
 -17345386.489 4 -13515880.710 4  21308503.672    21308504.495
   6857285.27244   5343340.52044  22320959.0714   22320959.7204
  -6967450.77044  -5429177.48744  22729687.4504   22729687.6224
  -4251902.32644  -3313166.18344  23846889.2024   23846887.2314
 -21067238.75344 -16416009.52144  20787198.3494   20787198.3134
 -22334263.83344 -17403304.97144  20930935.4454   20930935.3494
 96  5  7  5 20 30.0000000  0  7G23G28G17G31G 9G21G 1
   2390701.03144   1862889.42344  21973224.5744   21973224.4304
 -17295851.897 4 -13477282.334 4  21317929.872    21317930.569
   6932701.91644   5402106.73144  22335311.1364   22335310.7824
  -7011531.36044  -5463525.98444  22721298.5254   22721298.9134
  -4243607.52944  -3306702.69344  23848467.3184   23848467.7544
 -21074287.86044 -16421502.32544  20785857.0904   20785856.7054
 -22394062.47644 -17449901.29844  20919556.0034   20919555.9204
 96  5  7  5 21  0.0000000  0  7G23G28G17G31G 9G21G 1
   2439656.13344   1901036.26144  21982540.3374   21982540.0644
 -17245823.335 4 -13438299.041 4  21327450.023    21327450.810
   7008413.22044   5461102.55644  22349718.0254   22349718.5654
  -7055141.16044  -5497507.64044  22712999.9404   22712999.6984
  -4234811.09244  -3299848.29644  23850140.4284   23850142.9604
 -21081176.40044 -16426870.00644  20784546.4594   20784545.9264
 -22453429.19944 -17496161.06244  20908258.6264   20908258.4414
 96  5  7  5 21 30.0000000  0  7G23G28G17G31G 9G21G 1
   2488709.02044   1939259.29244  21991874.6994   21991874.4184
 -17195282.754 4 -13398916.774 4  21337067.626    21337068.359
   7084426.96244   5520334.03644  22364183.2884   22364183.7704
  -7098251.91644  -5531100.41544  22704796.7374   22704796.3414
  -4225491.70544  -3292586.41544  23851914.0074   23851914.5484
 -21087873.27144 -16432088.33344  20783272.0624   20783271.5884
 -22512341.74044 -17542066.92444  20897047.9794   20897047.7424
 96  5  7  5 22  0.0000000  0  7G23G28G17G31G 9G21G 1
   2537878.82744   1977573.43044  22001231.3934   22001230.9824
 -17144210.939 4 -13359120.559 4  21346786.338    21346786.940
   7160777.13344   5579827.67844  22378711.9834   22378712.3434
  -7140829.54044  -5564277.76244  22696693.9834   22696693.8584
  -4215639.49844  -3284909.35744  23853790.1814   23853790.8474
 -21094357.24344 -16437140.76544  20782038.0404   20782037.8404
 -22570778.17744 -17587601.79144  20885928.0224   20885927.9164
 96  5  7  5 22 30.0000000  0  7G23G28G17G31G 9G21G 1
   2587147.81544   2015964.85344  22010606.7494   22010606.3554
 -17092615.952 4 -13318916.680 4  21356604.541    21356604.813
   7237448.58744   5639571.65044  22393302.5474   22393303.0474
  -7182879.39444  -5597043.86944  22688692.2194   22688692.8084
  -4205245.25944  -3276809.98444  23855767.7274   23855766.6244
 -21100638.19944 -16442035.00944  20780842.8794   20780842.8384
 -22628747.93944 -17632773.01744  20874896.5434   20874896.7234
 96  5  7  5 23  0.0000000  0  7G23G28G17G31G 9G21G 1
   2636493.88844   2054416.34344  22019997.1114   22019996.9784
 -17040510.607 4 -13278315.121 4  21366519.982    21366520.209
   7314414.36744   5699544.97444  22407948.5484   22407949.5614
  -7224401.75644  -5629398.93844  22680790.9594   22680790.5924
  -4194315.47744  -3268293.27544  23857847.1964   23857846.1514
 -21106718.69444 -16446773.04844  20779685.5044   20779685.5414
 -22686266.78844 -17677592.88344  20863951.1114   20863951.2354
 96  5  7  5 23 30.0000000  0  7G23G28G17G31G 9G21G 1
   2685927.87544   2092936.33844  22029404.4484   22029404.5244
 -16987899.175 4 -13237319.211 4  21376531.402    21376531.967
   7391678.64644   5759750.88644  22422651.3574   22422651.1424
  -7265383.65544  -5661332.85544  22672991.9374   22672991.6984
  -4182853.78644  -3259362.05444  23860028.3064   23860028.5804
 -21112605.26644 -16451359.98244  20778564.9824   20778565.2404
 -22743338.80144 -17722064.56144  20853090.7174   20853090.9834
 96  5  7  5 24  0.0000000  0  7G23G28G17G31G 9G21G 1
   2735462.40844   2131534.67544  22038830.3774   22038830.3804
 -16934769.212 4 -13195919.244 4  21386641.640    21386642.187
   7469254.27044   5820199.40944  22437413.6394   22437414.0484
  -7305803.15044  -5692828.54644  22665300.7224   22665300.8044
  -4170849.33844  -3250007.91644  23862311.6334   23862311.2564
 -21118292.11344 -16455791.28544  20777482.9074   20777483.2524
 -22799945.13844 -17766173.37744  20842319.0524   20842318.9704
 96  5  7  5 24 30.0000000  0  7G23G28G17G31G 9G21G 1
   2785082.73344   2170199.86644  22048273.0424   22048272.6894
 -16881131.784 4 -13154123.845 4  21396848.520    21396849.186
   7547133.38444   5880884.41944  22452233.0634   22452233.4184
  -7345668.91144  -5723892.77444  22657714.5894   22657714.9784
  -4158320.26744  -3240244.96444  23864697.0474   23864697.0654
 -21123783.03344 -16460069.91744  20776438.1764   20776438.2084
 -22856092.30844 -17809924.40044  20831634.4384   20831634.5304
 96  5  7  5 25  0.0000000  0  7G23G28G17G31G 9G21G 1
   2834789.61344   2208932.49944  22057731.7064   22057731.3584
 -16826990.909 4 -13111936.153 4  21407151.522    21407151.706
   7625311.88144   5941802.71444  22467109.5694   22467110.4184
  -7384968.74244  -5754516.00044  22650235.9144   22650236.2044
  -4145286.73744  -3230088.98844  23867176.9014   23867175.3584
 -21129073.95344 -16464192.70844  20775431.3574   20775431.0774
 -22911764.16444 -17853305.04644  20821040.4784   20821040.3754
 96  5  7  5 25 30.0000000  0  7G23G28G17G31G 9G21G 1
   2884589.99644   2247737.98844  22067208.2504   22067208.2124
 -16772349.939 4 -13069358.778 4  21417549.351    21417549.667
   7703787.51144   6002952.53844  22482043.5904   22482044.0234
  -7423692.64544  -5784690.42444  22642866.8654   22642867.4594
  -4131758.08844  -3219547.20344  23869752.2094   23869750.7124
 -21134182.05244 -16468173.03944  20774459.2564   20774458.9904
 -22966955.40644 -17896311.19344  20810537.8834   20810537.9714
 96  5  7  5 26  0.0000000  0  7G23G28G17G31G 9G21G 1
   2934461.43844   2286598.85444  22076698.6324   22076698.8434
 -16717221.040 4 -13026401.207 4  21428039.792    21428040.499
   7782545.89444   6064322.69744  22497031.1324   22497031.3164
  -7461861.39344  -5814432.29044  22635603.6364   22635603.9754
  -4117741.51544  -3208625.20144  23872418.9864   23872418.6094
 -21139110.79344 -16472013.60744  20773521.4564   20773521.1054
 -23021666.52544 -17938943.21544  20800126.4214   20800126.4864
 96  5  7  5 26 30.0000000  0  7G23G28G17G31G 9G21G 1
   2984410.81644   2325520.44244  22086203.6094   22086203.0664
 -16661601.004 4 -12983060.922 4  21438624.056    21438624.716
   7861594.72844   6125919.18344  22512072.7534   22512073.2984
  -7499495.77444  -5843757.77644  22628442.0154   22628442.2424
  -4103211.38344  -3197302.97944  23875183.0204   23875183.1024
 -21143848.57444 -16475705.37544  20772620.1934   20772619.9454
 -23075884.45144 -17981190.93144  20789808.9674   20789809.0264
 96  5  7  5 27  0.0000000  0  7G23G28G17G31G 9G21G 1
   3034456.16744   2364516.81644  22095727.1614   22095726.6174
 -16605477.131 4 -12939328.040 4  21449303.819    21449304.645
   7940940.15944   6187746.78044  22527171.9074   22527172.4024
  -7536583.88744  -5872657.57644  22621384.1984   22621384.1994
  -4088127.77444  -3185549.49244  23878054.2264   23878055.4584
 -21148388.86544 -16479243.25544  20771756.1594   20771755.8454
 -23129593.63944 -18023042.22744  20779588.6754   20779588.8524
 96  5  7  5 27 30.0000000  0  7G23G28G17G31G 9G21G 1
   3084594.49544   2403585.65044  22105268.1784   22105267.6624
 -16548852.620 4 -12895205.050 4  21460079.145    21460079.756
   8020590.59944   6249812.04144  22542329.5444   22542329.8614
  -7573149.21844  -5901150.03144  22614426.7534   22614426.6174
  -4072481.84444  -3173357.85644  23881031.0954   23881031.1394
 -21152739.29544 -16482633.19644  20770928.0694   20770927.6194
 -23182808.19244 -18064508.09344  20769462.2854   20769462.3164
 96  5  7  5 28  0.0000000  0  7G23G28G17G31G 9G21G 1
   3134825.92144   2442727.02044  22114826.8454   22114826.8544
 -16491726.096 4 -12850690.881 4  21470949.875    21470950.685
   8100547.46044   6312116.06844  22557544.1154   22557544.6284
  -7609202.80344  -5929243.71744  22607565.5884   22607566.2074
  -4056260.77244  -3160718.06344  23884118.5174   23884118.1904
 -21156889.70844 -16485867.27744  20770138.2404   20770137.8264
 -23235526.87344 -18105587.56944  20759430.5724   20759430.3284
 96  5  7  5 28 30.0000000  0  7G23G28G17G31G 9G21G 1
   3185144.08444   2481935.97844  22124401.7704   22124401.4854
 -16434106.308 4 -12805792.352 4  21481914.578    21481915.149
   8180808.93644   6374657.46244  22572817.0144   22572817.8364
  -7644725.34244  -5956923.58744  22600806.1004   22600805.5664
  -4039482.72044  -3147644.27344  23887311.4074   23887309.9454
 -21160856.32544 -16488958.14544  20769383.4034   20769383.0754
 -23287765.54744 -18146293.00944  20749489.7244   20749489.3754
 96  5  7  5 29  0.0000000  0  7G23G28G17G31G21G 9G 1
   3235545.86844   2521210.09044  22133993.1144   22133992.7014
 -16375996.732 4 -12760512.170 4  21492972.604    21492973.199
   8261382.40144   6437441.95644  22588151.0464   22588150.5194
  -7679690.56344  -5984169.20644  22594152.1084   22594151.2244
 -21164642.67144 -16491908.54344  20768662.9224   20768662.6264
  -4022165.48344  -3134150.35244  23890605.5164   23890603.8804
 -23339537.28244 -18186634.60344  20739637.8034   20739637.4484
 96  5  7  5 29 30.0000000  0  7G23G28G17G31G21G 9G 1
   3286044.84444   2560559.94244  22143602.5494   22143601.5864
 -16317395.578 4 -12714848.937 4  21504124.150    21504124.500
   8342266.12944   6500468.23444  22603542.5994   22603542.8524
  -7714089.85244  -6010973.83444  22587607.0064   22587606.1834
 -21168246.11844 -16494716.42044  20767977.1754   20767976.8774
  -4004322.74244  -3120246.85544  23894001.1794   23894001.4994
 -23390838.26044 -18226609.37244  20729875.5304   20729875.1774
 96  5  7  5 30  0.0000000  0  7G23G28G17G31G21G 9G 1
   3336627.90344   2599975.31444  22153228.4264   22153227.8714
 -16258315.095 4 -12668812.200 4  21515366.848    21515367.210
   8423446.48644   6563725.64344  22618989.8954   22618990.3664
  -7747908.32144  -6037325.86544  22581172.0684   22581170.5494
 -21171667.81644 -16497382.67044  20767326.2654   20767325.9354
  -3985963.41044  -3105940.89944  23897495.1034   23897494.4964
 -23441684.39744 -18266229.72144  20720199.7904   20720199.6444
 96  5  7  5 30 30.0000000  0  7G23G28G17G31G21G 9G 1
   3387281.30344   2639445.49844  22162867.6194   22162867.5374
 -16198758.542 4 -12622404.501 4  21526700.103    21526700.716
   8504923.88244   6627214.52244  22634494.5794   22634494.6754
  -7781140.69544  -6063221.21144  22574847.6404   22574846.6394
 -21174901.09844 -16499902.10244  20766710.9704   20766710.6754
  -3967092.03944  -3091235.93944  23901087.3244   23901086.4094
 -23492068.63744 -18305490.15044  20710611.9834   20710611.9494
 96  5  7  5 31  0.0000000  0  7G23G28G17G21G31G 9G 1
   3437972.94944   2678945.47744  22172513.9404   22172513.7164
 -16138770.478 4 -12575660.562 4  21538115.486    21538116.070
   8586640.70344   6690889.94344  22650045.1084   22650045.7704
 -21177981.49544 -16502302.41044  20766124.9714   20766124.3144
  -7813857.51944  -6088714.82644  22568621.5244   22568621.1994
  -3947740.48944  -3076156.78744  23904768.8974   23904769.2444
 -23542027.17544 -18344418.86344  20701105.0364   20701104.8824
 96  5  7  5 31 30.0000000  0  7G23G28G17G21G31G 9G 1
   3488737.69844   2718502.42244  22182173.7274   22182173.1494
 -16078317.246 4 -12528554.153 4  21549619.265    21549619.900
   8668622.73944   6754772.03544  22665645.1664   22665646.2984
 -21180870.15244 -16504553.30744  20765575.0634   20765574.6534
  -7846027.84744  -6113782.61144  22562499.2664   22562498.8784
  -3927872.37144  -3060675.09344  23908548.8124   23908549.0834
 -23591501.14344 -18382969.98944  20691690.6484   20691690.5824
 96  5  7  5 32  0.0000000  0  7G23G28G17G31G21G 9G 1
   3539567.69944   2758110.22544  22191846.7444   22191846.1404
 -16017397.924 4 -12481084.558 4  21561211.937    21561212.445
   8750880.77644   6818869.18944  22681298.8654   22681299.7654
  -7877649.21844  -6138422.62944  22556481.8014   22556482.0494
 -21183558.74444 -16506648.31344  20765063.5064   20765062.9934
  -3907480.97744  -3044785.68544  23912429.4914   23912430.1104
 -23640475.54244 -18421131.83844  20682370.9614   20682370.9854
 96  5  7  5 32 30.0000000  0  7G23G28G17G21G31G 9G 1
   3590477.16544   2797779.93544  22201534.3724   22201534.0054
 -15956016.449 4 -12433254.842 4  21572892.417    21572892.706
   8833410.95744   6883178.39944  22697003.7704   22697004.5094
 -21186056.56844 -16508594.66544  20764588.1724   20764587.7194
  -7908728.72744  -6162640.41544  22550567.0944   22550567.2694
  -3886568.15044  -3028489.98544  23916409.5194   23916407.6494
 -23688937.25844 -18458894.19744  20673149.0014   20673148.9194
 96  5  7  5 33  0.0000000  0  7G23G28G17G21G31G 9G 1
   3641494.41144   2837533.62244  22211242.2404   22211241.9574
 -15894166.058 4 -12385059.735 4  21584662.170    21584662.484
   8916228.57944   6947711.60144  22712763.3954   22712764.4174
 -21188363.60044 -16510392.34544  20764148.9984   20764148.6584
  -7939247.22944  -6186421.04844  22544759.3734   22544759.9544
  -3865123.58344  -3011779.95744  23920491.4504   23920488.6094
 -23736876.52044 -18496249.45144  20664026.4014   20664026.3714
 96  5  7  5 33 30.0000000  0  7G23G28G17G21G31G 9G 1
   3692628.41844   2877378.30044  22220972.9304   22220972.2934
 -15831842.601 4 -12336496.004 4  21596521.820    21596522.269
   8999353.34444   7012484.12444  22728581.4594   22728581.9844
 -21190487.89144 -16512047.63644  20763744.9054   20763744.5044
  -7969187.63944  -6209751.23044  22539062.4214   22539062.6884
  -3843142.25344  -2994651.68144  23924673.7124   23924673.3814
 -23784294.27844 -18533198.33644  20655003.0314   20655002.8694
 96  5  7  5 34  0.0000000  0  7G23G28G21G17G31G 9G 1
   3743878.24644   2917313.24244  22230725.6034   22230724.8174
 -15769047.414 4 -12287564.694 4  21608471.201    21608471.794
 -21192431.06944 -16513561.79944  20763375.2254   20763374.8544
   9082797.84444   7077505.79544  22744461.1814   22744461.0194
  -7998560.99244  -6232639.55244  22533473.6604   22533473.2884
  -3820619.87944  -2977101.73244  23928959.4764   23928957.6564
 -23831207.63944 -18569754.18544  20646075.8274   20646075.5794
 96  5  7  5 34 30.0000000  0  7G23G28G17G21G31G 9G 1
   3795234.12044   2957330.80344  22240497.8234   22240497.5714
 -15705787.359 4 -12238271.151 4  21620508.810    21620510.069
   9166565.09044   7142778.95444  22760401.3304   22760402.5614
 -21194198.42744 -16514938.95944  20763038.8594   20763038.3824
  -8027385.42244  -6255100.13844  22527988.2184   22527987.9184
  -3797561.75744  -2959134.33144  23933346.0144   23933346.5024
 -23877626.25744 -18605924.52144  20637242.7134   20637242.3644
 96  5  7  5 35  0.0000000  0  7G23G28G17G21G31G 9G 1
   3846673.35244   2997413.31644  22250286.2204   22250286.3184
 -15642068.861 4 -12188620.377 4  21632634.097    21632635.325
   9250651.25744   7208300.63044  22776401.2834   22776402.4714
 -21195794.03744 -16516182.29244  20762735.0394   20762734.5544
  -8055667.49144  -6277138.09144  22522606.5604   22522606.5244
  -3773969.40444  -2940750.65044  23937836.9654   23937837.9564
 -23923560.47444 -18641717.40144  20628501.6804   20628501.3824
 96  5  7  5 35 30.0000000  0  7G23G28G21G17G31G 9G 1
   3898182.54044   3037550.34244  22260088.6894   22260089.3994
 -15577888.805 4 -12138609.959 4  21644847.508    21644847.987
 -21197204.58944 -16517281.42844  20762466.6344   20762466.1524
   9335059.03144   7274072.91044  22792464.5314   22792465.9164
  -8083409.67644  -6298755.36844  22517326.7064   22517325.6674
  -3749846.19244  -2921953.37344  23942426.2304   23942425.7544
 -23969011.66444 -18677133.89844  20619852.5814   20619852.3924
 96  5  7  5 36  0.0000000  0  7G23G28G21G17G31G 9G 1
   3949724.65744   3077713.03144  22269896.8464   22269896.9334
 -15513269.584 4 -12088257.338 4  21657144.387    21657144.821
 -21198426.73544 -16518233.73644  20762234.1544   20762233.8304
   9419762.13444   7340075.30144  22808583.5394   22808583.7744
  -8110616.40544  -6319955.41044  22512149.4404   22512148.3244
  -3725215.10844  -2902760.34944  23947114.9944   23947113.9004
 -24013978.68444 -18712173.12244  20611295.7904   20611295.5664
 96  5  7  5 36 30.0000000  0  7G23G28G17G21G31G 9G 1
   4001318.52644   3117916.03644  22279715.0444   22279715.2154
 -15448208.405 4 -12037560.332 4  21669525.012    21669525.405
   9504746.23744   7406296.65844  22824753.8424   22824755.5774
 -21199452.14044 -16519032.75144  20762039.1374   20762038.5454
  -8137250.10244  -6340708.92344  22507081.0334   22507081.8784
  -3700057.87044  -2883157.29844  23951901.5524   23951900.0024
 -24058456.82144 -18746831.39944  20602831.6294   20602831.5764
 96  5  7  5 37  0.0000000  0  7G23G28G21G17G31G 9G 1
   4052992.72844   3158181.65044  22289548.2374   22289547.8604
 -15382698.167 4 -11986513.406 4  21681991.182    21681991.801
 -21200272.26944 -16519671.80644  20761883.0044   20761882.4704
   9590008.22344   7472734.54944  22840979.2054   22840980.1234
  -8163280.74144  -6360992.52044  22502127.7664   22502128.2094
  -3674363.09144  -2863135.35544  23956790.7224   23956790.3394
 -24102446.61044 -18781109.14444  20594460.8444   20594460.4864
 96  5  7  5 37 30.0000000  0  7G23G28G21G17G31G 9G 1
   4104762.50344   3198521.72544  22299399.7354   22299399.3084
 -15316739.374 4 -11935116.956 4  21694542.993    21694543.447
 -21200877.65244 -16520143.53344  20761767.8104   20761767.2874
   9675551.70644   7539391.78144  22857258.0774   22857258.6834
  -8188715.10344  -6380811.48444  22497288.3764   22497288.8434
  -3648131.77644  -2842695.35044  23961781.6004   23961782.8514
 -24145941.28044 -18815001.08044  20586184.2054   20586183.8514
 96  5  7  5 38  0.0000000  0  7G23G28G21G17G31G 9G 1
   4156637.65044   3238943.91144  22309271.0134   22309270.9914
 -15250346.448 4 -11883382.224 4  21707177.086    21707177.504
 -21201289.55544 -16520464.49244  20761689.3434   20761688.8954
   9761361.07744   7606256.20244  22873587.1684   22873587.5204
  -8213561.08844  -6400171.99044  22492560.1294   22492559.5874
  -3621361.71944  -2821835.54444  23966877.2844   23966876.9014
 -24188958.65244 -18848521.09844  20577998.1554   20577997.8204
 96  5  7  5 38 30.0000000  0  7G23G28G21G17G31G 9G 1
   4208626.44444   3279454.65044  22319164.4364   22319164.1164
 -15183522.144 4 -11831311.349 4  21719893.063    21719893.740
 -21201526.44444 -16520649.07844  20761644.2834   20761643.9364
   9847439.72344   7673330.46644  22889966.6114   22889966.9344
  -8237828.58644  -6419081.72044  22487941.7614   22487941.4654
  -3594057.22244  -2800559.33744  23972072.4484   23972071.4264
 -24231524.91844 -18881689.60244  20569898.1474   20569897.7204
 96  5  7  5 39  0.0000000  0  7G23G28G21G17G31G 9G 1
   4260691.51144   3320024.83444  22329071.8124   22329071.8974
 -15116288.007 4 -11778921.122 4  21732687.360    21732688.150
 -21201605.92844 -16520711.00844  20761629.2974   20761628.7434
   9933784.74844   7740612.28244  22906398.2244   22906399.2594
  -8261556.13344  -6437570.71244  22483426.3084   22483425.8284
  -3566258.13344  -2778897.70244  23977362.6594   23977362.1384
 -24273645.27544 -18914510.64444  20561882.7224   20561882.4864
 96  5  7  5 39 30.0000000  0  7G23G28G21G17G31G 9G 1
   4312824.54744   3360647.96944  22338992.2594   22338992.2254
 -15048633.682 4 -11726203.475 4  21745561.653    21745562.218
 -21201513.83744 -16520639.24644  20761646.5424   20761646.1444
  10020405.38844   7808108.86744  22922881.4654   22922882.3804
  -8284727.27044  -6455626.12544  22479017.2154   22479017.0874
  -3537959.93744  -2756847.13344  23982746.0154   23982748.0344
 -24315294.33144 -18946964.44144  20553957.1414   20553956.8514
 96  5  7  5 40  0.0000000  0  7G23G28G21G17G31G 9G 1
   4365002.25544   3401305.92244  22348922.0084   22348921.6754
 -14980566.895 4 -11673164.434 4  21758514.109    21758514.445
 -21201261.97844 -16520442.99144  20761694.4384   20761694.0924
  10107279.95544   7875803.31644  22939413.3154   22939413.8204
  -8307327.90344  -6473237.01944  22474716.9484   22474716.6804
  -3509174.42144  -2734416.84744  23988225.6634   23988225.2604
 -24356472.07244 -18979050.98044  20546121.4614   20546121.0584
 96  5  7  5 40 30.0000000  0  7G23G28G21G17G31G 9G 1
   4417199.72844   3441979.26544  22358853.9134   22358854.0654
 -14912093.104 4 -11619808.239 4  21771544.349    21771544.614
 -21200838.52144 -16520113.02544  20761775.0994   20761774.5894
  10194400.00744   7943689.04044  22955992.1944   22955992.6734
  -8329369.32844  -6490412.14644  22470522.4034   22470522.5404
  -3479911.54944  -2711614.60444  23993794.0554   23993793.4694
 -24397162.45044 -19010757.75944  20538378.0024   20538377.7674
 96  5  7  5 41  0.0000000  0  7G23G28G21G17G31G 9G 1
   4469428.78644   3482677.22944  22368793.9964   22368793.2834
 -14843205.979 4 -11566129.971 4  21784653.390    21784653.470
 -21200229.28344 -16519638.30044  20761891.1134   20761890.7904
  10281767.00044   8011767.20344  22972616.9984   22972617.5524
  -8350853.67544  -6507153.18744  22466434.8844   22466434.2944
  -3450159.01444  -2688430.81444  23999455.8314   23999455.8824
 -24437338.48644 -19042063.75244  20530733.0834   20530732.8304
 96  5  7  5 41 30.0000000  0  7G23G21G28G17G31G 9G 1
   4521711.32744   3523416.87444  22378742.4534   22378742.1544
 -21199428.95544 -16519014.66944  20762043.2934   20762042.9234
 -14773901.719 4 -11512126.655 4  21797841.417    21797841.791
  10369380.64744   8080037.55444  22989289.6884   22989289.5034
  -8371773.92044  -6523454.66044  22462453.2404   22462452.0704
  -3419895.04144  -2664848.47144  24005213.5074   24005213.0074
 -24476999.60144 -19072968.50944  20523185.6294   20523185.3284
 96  5  7  5 42  0.0000000  0  7G23G21G28G17G31G 9G 1
   4574084.85744   3564227.41344  22388708.8324   22388708.7774
 -21198422.82344 -16518230.66944  20762234.8274   20762234.6384
 -14704171.410 4 -11457791.355 4  21811110.627    21811111.301
  10457270.30644   8148522.97944  23006014.6994   23006014.4524
  -8392137.10344  -6539322.08144  22458578.1114   22458577.6214
  -3389088.99144  -2640843.73444  24011076.4094   24011074.6724
 -24516136.49844 -19103464.78544  20515738.3034   20515737.8484
 96  5  7  5 42 30.0000000  0  7G23G21G28G17G31G 9G 1
   4626577.09544   3605130.44144  22398697.2334   22398698.0214
 -21197208.67444 -16517284.57544  20762465.8944   20762465.6194
 -14634018.386 4 -11403126.667 4  21824460.415    21824461.183
  10545453.78744   8217237.36144  23022794.7344   23022795.1284
  -8411952.22844  -6554762.42844  22454807.2754   22454807.1974
  -3357731.47744  -2616409.29844  24017042.6404   24017040.9614
 -24554761.54644 -19133562.21444  20508387.8714   20508387.7774
 96  5  7  5 43  0.0000000  0  7G21G23G28G17G31G 9G 1
 -21195774.22944 -16516166.82344  20762738.8644   20762738.6924
   4679230.32144   3646158.92344  22408717.5844   22408717.3414
 -14563422.093 4 -11348116.576 4  21837894.465    21837895.297
  10633960.37444   8286203.50644  23039637.8174   23039638.7664
  -8431184.98644  -6569748.99044  22451147.1644   22451146.8954
  -3325798.68244  -2591526.61044  24023120.4554   24023119.6714
 -24592851.57644 -19163242.74744  20501139.7104   20501139.3614
 96  5  7  5 43 30.0000000  0  7G23G21G28G17G31G 9G 1
   4731993.55944   3687273.12344  22418757.8244   22418757.7694
 -21194162.54644 -16514910.96944  20763045.4804   20763045.2554
 -14492428.553 4 -11292796.939 4  21851404.057    21851404.686
  10722746.29644   8355387.32344  23056532.5484   23056533.5324
  -8449870.46744  -6584309.09444  22447591.7944   22447591.3034
  -3293336.59344  -2566231.49544  24029297.8654   24029295.8754
 -24630447.62644 -19192538.36044  20493985.5284   20493985.1874
 96  5  7  5 44  0.0000000  0  7G21G23G28G17G31G 9G 1
 -21192358.51344 -16513505.23244  20763388.8654   20763388.4374
   4784868.89544   3728474.68944  22428819.6604   22428819.8884
 -14421022.727 4 -11237156.041 4  21864991.928    21864992.713
  10811827.08244   8424800.90544  23073483.5444   23073484.0954
  -8467983.32344  -6598423.00544  22444144.5554   22444144.4554
  -3260344.77744  -2540523.56944  24035575.8374   24035575.4024
 -24667535.93444 -19221438.32444  20486927.7534   20486927.4824
 96  5  7  5 44 30.0000000  0  7G23G21G28G17G31G 9G 1
   4837818.99344   3769734.49644  22438895.5264   22438895.4464
 -21190383.38844 -16511966.17644  20763764.5464   20763764.2004
 -14349215.615 4 -11181202.449 4  21878656.428    21878656.883
  10901175.80844   8494423.26844  23090486.7264   23090487.2094
  -8485511.30144  -6612081.16844  22440809.2324   22440809.2564
  -3226853.38744  -2514426.33444  24041948.9684   24041948.5804
 -24704116.24144 -19249942.44644  20479966.7364   20479966.3964
 96  5  7  5 45  0.0000000  0  7G21G23G28G17G31G 9G 1
 -21188235.56844 -16510292.55044  20764173.3444   20764173.3074
   4890815.20244   3811030.24644  22448980.3364   22448979.4574
 -14277002.617 4 -11124932.588 4  21892398.290    21892398.488
  10990791.08044   8564253.31744  23107540.1244   23107540.5264
  -8502446.40444  -6625277.34244  22437586.5484   22437586.4294
  -3192857.93144  -2487936.33944  24048416.9794   24048415.4484
 -24740165.36044 -19278032.65344  20473106.7954   20473106.4534
 96  5  7  5 45 30.0000000  0  7G21G23G28G17G31G 9G 1
 -21185928.53544 -16508494.86244  20764612.3524   20764612.0464
   4943836.89744   3852345.85644  22459070.3524   22459069.2284
 -14204394.860 4 -11068355.123 4  21906214.951    21906215.181
  11080666.40044   8634286.02944  23124642.4944   23124643.4154
  -8518792.97044  -6638014.91944  22434476.1304   22434475.8794
  -3158360.90744  -2461055.54344  24054982.4994   24054984.5524
 -24775706.07844 -19305726.70644  20466343.6214   20466343.1774
 96  5  7  5 46  0.0000000  0  7G21G23G28G17G31G 9G 1
 -21183461.76544 -16506572.70844  20765081.8944   20765081.5744
   4996900.28544   3893693.95144  22469168.2724   22469167.6934
 -14131390.021 4 -11011468.247 4  21920107.569    21920107.619
  11170804.67244   8704523.61544  23141796.5924   23141797.6604
  -8534541.92844  -6650286.84244  22431479.3104   22431478.9744
  -3123346.44644  -2433771.55744  24061645.9864   24061642.9384
 -24810739.03344 -19333025.09744  20459677.0764   20459676.6884
 96  5  7  5 46 30.0000000  0  7G21G23G28G17G31G 9G 1
 -21180826.05544 -16504518.91544  20765583.2424   20765583.0204
   5050025.01644   3935089.84644  22479277.1274   22479277.3494
 -14057988.652 4 -10954272.384 4  21934075.080    21934075.521
  11261211.65144   8774970.58844  23158999.5074   23159000.0354
  -8549702.74444  -6662100.45844  22428594.3524   22428593.7904
  -3087797.78544  -2406071.32444  24068410.6604   24068409.4064
 -24845259.87444 -19359924.44144  20453107.8384   20453107.4134
 96  5  7  5 47  0.0000000  0  7G21G23G28G17G31G 9G 1
 -21178011.13644 -16502325.46944  20766118.7094   20766118.7154
   5103232.43844   3976550.16844  22489402.0464   22489401.9134
 -13984201.351 4 -10896775.802 4  21948116.536    21948117.081
  11351883.89044   8845624.25344  23176253.7004   23176253.6714
  -8564296.70344  -6673472.37344  22425817.3044   22425816.6444
  -3051715.35044  -2377955.14844  24075275.9344   24075275.4704
 -24879287.51544 -19386439.47444  20446632.9124   20446632.4814
 96  5  7  5 47 30.0000000  0  7G21G23G28G17G31G 9G 1
 -21175011.49044 -16499988.08444  20766689.5734   20766689.4534
   5156556.96644   4018101.73844  22499549.8664   22499548.9844
 -13910031.378 4 -10838981.025 4  21962230.679    21962231.672
  11442818.00844   8916481.97844  23193558.9534   23193558.5474
  -8578330.86644  -6684408.07144  22423146.6884   22423146.3844
  -3015104.37044  -2349427.03944  24082243.6364   24082244.9294
 -24912834.35944 -19412579.85944  20440249.0094   20440248.6274
 96  5  7  5 48  0.0000000  0  7G21G23G28G17G31G 9G 1
 -21171832.77644 -16497511.15944  20767294.5914   20767294.6474
   5209984.81044   4059733.81944  22509716.7524   22509716.5344
 -13835498.460 4 -10780903.424 4  21976413.623    21976414.578
  11533984.69244   8987520.94144  23210905.8234   23210907.1644
  -8591835.05244  -6694930.80644  22420576.7594   22420577.3384
  -2977993.43244  -2320509.40344  24089305.2374   24089304.6204
 -24945907.89444 -19438351.43344  20433955.3624   20433955.0164
 96  5  7  5 48 30.0000000  0  7G21G23G28G17G31G 9G 1
 -21168469.55044 -16494890.46444  20767934.7044   20767934.4674
   5263509.88044   4101441.67344  22519902.1454   22519901.7944
 -13760601.941 4 -10722542.501 4  21990665.829    21990666.707
  11625390.76044   9058746.41544  23228300.5924   23228301.7744
  -8604805.77244  -6705037.86844  22418108.5114   22418108.5574
  -2940386.97444  -2291205.67644  24096461.9454   24096459.7544
 -24978497.77444 -19463746.13044  20427753.6144   20427753.2124
 96  5  7  5 49  0.0000000  0  7G21G23G28G17G31G 9G 1
 -21164906.29744 -16492113.90344  20768612.8944   20768612.6824
   5317137.89044   4143229.72644  22530107.0054   22530107.3324
 -13685328.719 4 -10663888.052 4  22004989.824    22004990.267
  11717046.17544   9130166.18044  23245741.8454   23245741.1754
  -8617222.70144  -6714713.38744  22415745.4474   22415745.3024
  -2902267.66944  -2261502.35644  24103715.0694   24103713.9824
 -25010578.56144 -19488744.12944  20421648.8204   20421648.4204
 96  5  7  5 49 30.0000000  0  7G21G23G28G17G31G 9G 1
 -21161155.69944 -16489191.36344  20769326.6464   20769326.1704
   5370835.38744   4185071.92844  22540325.0924   22540325.0164
 -13609691.300 4 -10604949.821 4  22019383.268    22019383.533
  11808945.95344   9201776.37844  23263230.4584   23263229.7254
  -8629091.44144  -6723961.75744  22413487.4144   22413487.0424
  -2863643.89444  -2231405.92544  24111065.8724   24111066.1984
 -25042155.27944 -19513349.34844  20415640.0394   20415639.7454
 96  5  7  5 50  0.0000000  0  7G21G23G28G17G31G 9G 1
 -21157208.68444 -16486115.76644  20770077.6974   20770077.4824
   5424587.12744   4226956.39844  22550553.3854   22550554.0284
 -13533682.280 4 -10545722.031 4  22033847.886    22033847.907
  11901104.87344   9273588.49944  23280767.7614   23280767.8544
  -8640389.45544  -6732765.40744  22411337.8404   22411336.9874
  -2824501.98244  -2200905.69144  24118513.8364   24118514.7774
 -25073214.34844 -19537551.20544  20409729.6934   20409729.3124
 96  5  7  5 50 30.0000000  0  7G21G23G28G17G31G 9G 1
 -21153056.85444 -16482880.56844  20770867.2624   20770867.3004
   5478392.85444   4268882.93144  22560792.6814   22560792.1184
 -13457304.007 4 -10486206.504 4  22048381.985    22048382.129
  11993530.64544   9345608.55744  23298354.8894   23298356.2854
  -8651110.79344  -6741119.69344  22409297.1674   22409296.8294
  -2784842.68544  -2170002.33244  24126061.5834   24126059.4414
 -25103759.17344 -19561352.34944  20403916.9004   20403916.6584
 96  5  7  5 51  0.0000000  0  7G21G23G28G17G31G 9G 1
 -21148699.59744 -16479485.30544  20771696.7034   20771696.3714
   5532247.32244   4310847.44944  22571041.1764   22571040.7164
 -13380564.328 4 -10426409.370 4  22062984.498    22062985.452
  12086215.59344   9417830.58544  23315992.4854   23315993.1084
  -8661264.50744  -6749031.66544  22407364.5664   22407363.9744
  -2744683.91544  -2138709.73944  24133702.2634   24133702.2464
 -25133795.71844 -19584757.43344  20398201.1794   20398200.7544
 96  5  7  5 51 30.0000000  0  7G21G23G28G17G31G 9G 1
 -21144128.85844 -16475923.69244  20772566.4614   20772566.0854
   5586169.57544   4352864.78044  22581302.3864   22581301.9394
 -13303446.794 4 -10366317.790 4  22077659.560    22077660.157
  12179178.89344   9490269.47644  23333683.2774   23333684.0494
  -8670830.83144  -6756485.94444  22405543.9304   22405543.6154
  -2704018.27644  -2107022.22644  24141440.2274   24141442.4834
 -25163311.57344 -19607756.78144  20392584.5694   20392584.2884
 96  5  7  5 52  0.0000000  0  7G21G23G28G17G31G 9G 1
 -21139358.00244 -16472206.13844  20773474.5014   20773474.1704
   5640168.09544   4394941.55344  22591577.2474   22591577.6524
 -13225959.844 4 -10305938.352 4  22092404.605    22092405.572
  12272407.23744   9562914.94244  23351424.1084   23351425.4684
  -8679799.51544  -6763474.52344  22403837.4724   22403837.1784
  -2662856.00944  -2074947.71644  24149273.4734   24149273.2544
 -25192314.13944 -19630356.16444  20387065.4264   20387065.1784
 96  5  7  5 52 30.0000000  0  7G21G23G28G17G31G 9G 1
 -21134388.95844 -16468334.15744  20774420.2464   20774419.7994
   5694253.92144   4437086.35644  22601869.6894   22601870.0394
 -13148108.769 4 -10245275.182 4  22107219.461    22107220.322
  12365896.59044   9635763.76044  23369214.1174   23369214.5304
  -8688171.92344  -6769998.48544  22402244.1484   22402243.6954
  -2621191.87744  -2042482.13144  24157202.0474   24157201.7714
 -25220801.98344 -19652554.46844  20381644.2974   20381643.9084
 96  5  7  5 53  0.0000000  0  7G21G23G28G17G31G 9G 1
 -21129250.01244 -16464329.78544  20775398.2134   20775397.7154
   5748424.90344   4479297.51244  22612178.1154   22612178.6734
 -13069906.016 4 -10184337.967 4  22122101.447    22122101.829
  12459634.09744   9708805.95944  23387052.2204   23387053.8754
  -8695947.01644  -6776057.00144  22400764.7814   22400764.7704
  -2579020.55344  -2009621.40444  24165226.8464   24165225.9154
 -25248778.15844 -19674354.07244  20376320.7894   20376320.4424
 96  5  7  5 53 30.0000000  0  7G21G23G28G17G31G 9G 1
 -21123940.93744 -16460192.84844  20776408.4404   20776408.0644
   5802700.33244   4521590.05044  22622506.4594   22622506.7104
 -12991348.706 4 -10123124.478 4  22137050.557    22137050.629
  12553625.54444   9782046.03044  23404937.8044   23404938.0844
  -8703103.12844  -6781633.21144  22399402.8224   22399402.7074
  -2536321.29044  -1976349.25644  24173351.9174   24173352.0274
 -25276252.18444 -19695762.39244  20371092.3484   20371092.1864
 96  5  7  5 54  0.0000000  0  7G21G23G28G17G31G 9G 1
 -21118462.24544 -16455923.73744  20777450.9254   20777450.4894
   5857076.16044   4563960.82944  22632853.3654   22632853.9874
 -12912445.432 4 -10061641.407 4  22152065.308    22152065.487
  12647869.87144   9855483.16044  23422871.7124   23422871.2994
  -8709641.59844  -6786728.10044  22398158.6854   22398158.5114
  -2493094.03244  -1942665.62744  24181579.1584   24181579.5784
 -25303228.35544 -19716782.77344  20365959.2184   20365958.8834
 96  5  7  5 54 30.0000000  0  7G21G23G28G17G31G 9G 1
 -21112815.14944 -16451523.40544  20778525.3114   20778524.9904
   5911549.48244   4606407.57244  22643219.3674   22643219.6114
 -12833202.466 4  -9999893.648 4  22167144.437    22167144.934
  12742362.42744   9929113.69644  23440853.5654   23440855.0314
  -8715590.82344  -6791363.87544  22397026.3004   22397026.7234
  -2449345.68344  -1908576.01144  24189903.4154   24189901.9164
 -25329704.26144 -19737413.33744  20360920.9154   20360920.7094
 96  5  7  5 55  0.0000000  0  7G21G23G28G17G31G 9G 1
 -21107016.16544 -16447004.71744  20779628.9514   20779628.4674
   5966109.12444   4648921.58144  22653602.1664   22653602.5604
 -12753639.074 4  -9937896.201 4  22182284.727    22182285.331
  12837081.95144  10002921.08344  23458878.2674   23458878.9044
  -8720977.71844  -6795561.44844  22396001.6714   22396001.0284
  -2405121.31144  -1874115.46244  24198319.4244   24198319.3294
 -25355701.58144 -19757670.97844  20355973.8384   20355973.5334
 96  5  7  5 55 30.0000000  0  7G21G23G28G17G31G 9G 1
 -21101066.29144 -16442368.44844  20780761.1704   20780760.7144
   6020735.59344   4691487.67244  22663997.0044   22663997.2114
 -12673767.463 4  -9875658.582 4  22197483.724    22197484.316
  12932020.76044  10076899.35544  23476943.8024   23476941.0164
  -8725827.54444  -6799340.52844  22395078.6894   22395079.2434
  -2360444.27644  -1839302.13644  24206820.8914   24206819.6564
 -25381237.91044 -19777569.40544  20351114.4724   20351114.1124
 96  5  7  5 56  0.0000000  0  7G21G23G28G17G31G 9G 1
 -21094948.29444 -16437601.17944  20781925.2664   20781924.9894
   6075424.90444   4734102.72344  22674403.7814   22674403.2924
 -12593576.585 4  -9813172.194 4  22212743.457    22212743.759
  13027193.02944  10151059.55544  23495054.4954   23495053.1364
  -8730149.28544  -6802708.12844  22394256.3514   22394255.9494
  -2315309.19744  -1804131.94744  24215410.0804   24215408.2454
 -25406284.09944 -19797085.90944  20346348.4094   20346348.1064
 96  5  7  5 56 30.0000000  0  7G21G23G28G17G31G 9G 1
 -21088663.41944 -16432703.87544  20783121.2174   20783121.1624
   6130164.56744   4776756.97444  22684821.2684   22684820.3664
 -12513074.666 4  -9750443.430 4  22228062.539    22228062.725
  13122580.78744  10225387.67444  23513206.2764   23513207.2214
  -8733953.27844  -6805672.28144  22393532.5584   22393532.7024
  -2269725.97444  -1768612.57744  24224084.3874   24224083.1994
 -25430849.66844 -19816227.90244  20341673.5744   20341673.1814
 96  5  7  5 57  0.0000000  0  7G21G23G28G17G31G 9G 1
 -21082194.58644 -16427663.22944  20784352.2064   20784351.9724
   6184960.24444   4819454.91344  22695247.7634   22695247.6044
 -12432247.650 4  -9687461.357 4  22243443.281    22243444.318
  13218196.82844  10299893.65644  23531402.2894   23531403.9934
  -8737219.62744  -6808217.48344  22392910.6814   22392911.1064
  -2223670.83744  -1732725.49344  24232846.9744   24232848.7384
 -25454925.47244 -19834988.25944  20337092.3214   20337091.8244
 96  5  7  5 57 30.0000000  0  7G21G23G28G17G31G 9G 1
 -21075535.56544 -16422474.38644  20785619.3994   20785619.1694
   6239810.50644   4862195.38744  22705685.6644   22705684.5174
 -12351092.324 4  -9624223.448 4  22258886.299    22258887.891
  13314051.49944  10374585.59544  23549641.9874   23549642.0004
  -8739940.45844  -6810337.61844  22392393.2594   22392393.2904
  -2177105.83744  -1696441.09844  24241710.5234   24241711.5964
 -25478498.53544 -19853356.87244  20332606.4434   20332605.9914
 96  5  7  5 58  0.0000000  0  7G21G23G28G17G31G 9G 1
 -21068690.71844 -16417140.74144  20786922.0614   20786921.9004
   6294722.87444   4904984.25644  22716134.8874   22716134.8414
 -12269613.020 4  -9560733.087 4  22274391.899    22274392.791
  13410137.84744  10449458.07644  23567927.2214
  -8742112.74144  -6812030.31244  22391979.6414   22391979.4144
  -2130032.03644  -1659760.19844  24250666.9054   24250667.0244
 -25501564.52344 -19871330.36044  20328217.0884   20328216.5814
 96  5  7  5 58 30.0000000  0  7G21G23G28G17G31G 9G 1
 -21061653.93744 -16411657.53644  20788261.2144   20788260.8334
   6349712.78044   4947833.53044  22726600.0304   22726599.9214
 -12187811.861 4  -9496991.948 4  22289958.671    22289958.935
  13506447.05744  10524504.20944  23586254.8754   23586259.0024
  -8743730.03844  -6813290.54844  22391671.4244   22391672.1184
  -2082454.37744  -1622686.65044  24259720.7464   24259717.4364
 -25524124.80544 -19888909.79344  20323924.1684   20323923.7524
 96  5  7  5 59  0.0000000  0  7G21G23G28G17G31G 9G 1
 -21054423.19844 -16406023.20044  20789636.9864   20789636.6834
   6404791.56344   4990752.06944  22737080.7114   22737080.3284
 -12105696.787 4  -9433006.194 4  22305584.876    22305584.724
  13602985.76144  10599729.17444  23604624.9764   23604622.8274
  -8744799.92444  -6814124.21844  22391468.3594   22391467.8674
  -2034369.28144  -1585217.67944  24268870.8294   24268870.2614
 -25546177.67644 -19906093.84044  20319727.6094   20319727.2294
 96  5  7  5 59 30.0000000  0  7G21G23G28G17G31G 9G 1
 -21046992.53844 -16400233.07544  20791050.8064   20791050.3924
   6459958.39144   5033739.19944  22747578.2924   22747578.2844
 -12023270.189 4  -9368777.696 4  22321269.875    22321269.706
  13699761.72444  10675138.97944  23623040.4884
  -8745306.40944  -6814518.87944  22391372.3474   22391371.5914
  -1985781.27744  -1547356.91144  24278117.2144   24278112.9944
 -25567722.23144 -19922881.79544  20315627.5914   20315627.2164
 96  5  7  6  0  0.0000000  0  7G21G23G28G17G31G 9G 1
 -21039347.18344 -16394275.65744  20792506.1394   20792505.5064
   6515215.86444   5076796.95844  22758093.5024   22758093.0334
 -11940525.826 4  -9304301.593 4  22337015.474    22337015.406
  13796779.39344  10750737.14244  23641501.9454
  -8745229.69144  -6814459.11244  22391386.3784   22391386.0874
  -1936701.02944  -1509112.58644  24287456.9754   24287456.3844
 -25588755.02944 -19939270.98144  20311625.2094   20311624.8374
 96  5  7  6  0 30.0000000  0  7G21G23G28G17G31G 9G 1
 -21031495.71644 -16388157.63544  20794000.1924   20793999.8074
   6570554.33744   5119917.84344  22768624.0434   22768624.2034
 -11857478.736 4  -9239589.595 4  22352818.440    22352818.699
  13894024.42344  10826512.52144  23660007.1234
  -8744570.44644  -6813945.41344  22391512.0924   22391511.9854
  -1887136.05544  -1470490.55644  24296887.5194   24296889.1724
 -25609290.14544 -19955272.35644  20307717.4544   20307717.0314
 96  5  7  6  1  0.0000000  0  7G21G23G28G17G31G 9G 1
 -21023448.06844 -16381886.73644  20795531.6424   20795531.2944
   6625967.78244   5163097.14044  22779169.5724   22779168.8654
 -11774131.678 4  -9174643.851 4  22368678.891    22368679.358
  13991505.87044                  23678556.9774
  -8743315.43944  -6812967.48844  22391750.4714   22391750.0904
  -1837082.10844  -1431487.50144  24306413.1374   24306412.3324
 -25629331.73744 -19970889.17044  20303903.7764   20303903.2734
 96  5  7  6  1 30.0000000  0  7G21G23G28G17G31G 9G 1
 -21015221.55444 -16375476.45944  20797096.8824   20797096.4894
   6681448.53444   5206328.88344  22789726.7674   22789726.2304
 -11690488.221 4  -9109467.146 4  22384595.670    22384596.650
  14089221.92844                  23697151.8784
  -8741453.56444  -6811516.69044  22392104.9304   22392104.3264
  -1786554.91344  -1392115.66144  24316028.3184   24316029.9644
 -25648879.72244 -19986121.35244  20300183.8884   20300183.4104
 96  5  7  6  2  0.0000000  0  7G21G23G28G17G31G 9G 1
 -21006809.90244 -16368921.92144  20798697.6084   20798697.1714
   6737025.05744   5249635.25444  22800302.9104   22800302.2764
 -11606541.770 4  -9044054.339 4  22400570.038    22400571.257
  14187170.11344  11054937.64244  23715791.1584
  -8738995.99844  -6809601.70544  22392572.6854   22392572.2664
  -1735554.25944  -1352374.89444  24325733.5954   24325733.1014
 -25667916.34444 -20000955.07644  20296561.3084   20296560.8724
 96  5  7  6  2 30.0000000  0  7G21G23G28G17G31G 9G 1
 -20998228.85644 -16362235.39144  20800330.5364   20800330.2274
   6792688.65344   5293009.47844  22810895.5274   22810895.1074
 -11522305.959 4  -8978416.052 4  22416599.497    22416600.410
  14285345.28744                  23734474.0434
  -8735973.96544  -6807246.88644  22393148.2454   22393147.1474
  -1684090.83544  -1312273.48444  24335526.2304   24335524.8164
 -25686449.53744 -20015396.51644  20293034.3724   20293034.1054
 96  5  7  6  3  0.0000000  0  7G21G23G28G17G31G 9G 1
 -20989488.31844 -16355424.58544  20801993.6604   20801993.3514
   6848423.43944   5336439.18344  22821501.0284   22821500.6564
 -11437790.174 4  -8912559.605 4  22432682.396    22432682.884
  14383746.74344                  23753198.4264
  -8732401.02844  -6804462.78144  22393827.9764   22393827.3624
  -1632168.00844  -1271814.14844  24345406.3864
 -25704473.60944 -20029441.24344  20289604.6194   20289604.1724
 96  5  7  6  3 30.0000000  0  7G21G23G28G17G31G 9G 1
 -20980578.91144 -16348482.18744  20803689.1174   20803688.7274
   6904235.67044   5379929.21644  22832121.6534   22832121.3014
 -11352994.921 4  -8846485.389 4  22448818.680    22448819.129
  14482366.53244                  23771965.9764
  -8728288.34444  -6801258.11144  22394610.5364   22394610.4774
  -1579777.70344  -1230990.55744  24355376.6824   24355376.0104
 -25721982.11844 -20043084.22744  20286272.8324   20286272.5784
 96  5  7  6  4  0.0000000  0  7G21G23G28G17G31G 9G 1
 -20971494.02744 -16341403.05944  20805417.8594   20805417.9134
   6960104.21744   5423463.13344  22842753.6424   22842753.2584
 -11267931.856 4  -8780202.492 4  22465005.966    22465006.236
  14581181.53544                  23790769.2024
  -8723651.77444  -6797645.20844  22395492.8584   22395492.4374
  -1526932.47644  -1189812.46244  24365433.3834   24365432.3624
 -25738991.14044 -20056338.00044  20283036.1824   20283035.6594
 96  5  7  6  4 30.0000000  0  7G21G23G28G17G31G 9G 1
 -20962209.71544 -16334168.53244  20807185.0564   20807184.7174
   7016047.01544   5467054.92444  22853398.8814   22853398.3384
 -11182572.018 4  -8713688.346 4  22481249.506    22481249.669
  14680223.99644                  23809617.7114
  -8718441.52944  -6793585.28644  22396484.4034   22396484.2964
  -1473591.69544  -1148248.19944  24375583.4264   24375582.8394
 -25755467.61844 -20069176.80044  20279900.8374   20279900.3354
 96  5  7  6  5  0.0000000  0  7G21G23G28G17G31G 9G 1
 -20952739.62244 -16326789.24044  20808986.8594   20808986.6764
   7072053.91944   5510696.65344  22864056.6224   22864056.2214
 -11096931.746 4  -8646955.685 4  22497546.592    22497545.947
  14779469.01244                  23828501.1724
  -8712657.73644  -6789078.44744  22397585.0384   22397584.8524
  -1419766.04244  -1106306.10544  24385825.6034   24385821.9094
 -25771434.67844 -20081618.65544  20276862.4604   20276861.9924
 96  5  7  6  5 30.0000000  0  6G21G23G28G31G 9G 1
 -20943070.70644 -16319255.02344  20810826.6884   20810826.4964
   7128132.89844   5554394.54544  22874728.3304   22874727.7534
 -11011007.011 4  -8580001.372 4  22513896.993    22513896.182
  -8706303.60144  -6784127.18344  22398794.0074   22398794.3114
  -1365466.21644  -1063994.55444  24396158.9954   24396160.2804
 -25786905.69844 -20093673.98344  20273918.3104   20273917.8644
 96  5  7  6  6  0.0000000  0  6G21G23G28G31G 9G 1
 -20933211.16144 -16311572.26444  20812703.0964   20812702.8284
   7184265.86844   5598134.50244  22885410.2994   22885409.9134
 -10924812.178 4  -8512836.586 4  22530299.062    22530299.339
  -8699382.66444  -6778734.24644  22400111.0314   22400111.6744
  -1310708.49844  -1021326.20744  24406579.1604   24406579.5314
 -25801891.69844 -20105351.37844  20271066.5034   20271066.0204
 96  5  7  6  6 30.0000000  0  6G21G23G28G31G 9G 1
 -20923143.57344 -16303727.39144  20814618.5434   20814618.4024
   7240495.41844   5641949.70744  22896110.4404   22896110.8734
 -10838328.573 4  -8445446.765 4  22546755.965    22546757.436
  -8691874.04244  -6772883.37944  22401540.1464   22401539.7004
  -1255455.35644   -978271.79144  24417093.8434   24417091.1504
 -25816372.69844 -20116635.26744  20268310.9404   20268310.5804
 96  5  7  6  7  0.0000000  0  7G21G23G28G15G31G 9G 1
 -20912867.38044 -16295719.96944  20816574.1624   20816573.9274
   7296810.21044   5685831.35044  22906825.9974   22906825.5304
 -10751577.368 4  -8377848.424 4  22563264.554    22563266.048
        -0.40954                  25091920.4044
  -8683804.86844  -6766595.72444  22403075.5604   22403075.3644
  -1199723.89544   -934844.75644  24427698.5384   24427699.1514
 -25830376.17244 -20127547.05844  20265646.1354   20265645.5744
 96  5  7  6  7 30.0000000  0  7G21G23G28G15G31G 9G 1
 -20902393.05644 -16287558.15844  20818567.5464   20818567.2554
   7353206.89744   5729776.81144  22917558.3344   22917558.9014
 -10664573.137 4  -8310052.925 4  22579820.896    22579822.179
   -106866.72144                  25071584.6134
  -8675184.96744  -6759878.91344  22404715.1824   22404715.4334
  -1143525.74644   -891054.11144  24438393.2274   24438394.7884
 -25843895.10644 -20138081.28344  20263073.6504   20263073.3004
 96  5  7  6  8  0.0000000  0  7G21G23G28G15G31G 9G 1
 -20891718.11444 -16279240.02544  20820598.7784   20820598.6524
   7409696.16744   5773794.41344  22928307.8524   22928306.6344
 -10577317.803 4  -8242061.769 4  22596425.203    22596425.419
   -213763.53344                  25051244.4864
  -8666011.12744  -6752730.48944  22406460.7744   22406460.1524
  -1086845.64644   -846887.61144  24449179.0584   24449179.2894
 -25856906.10544 -20148219.71944  20260597.7294   20260597.1514
 96  5  7  6  8 30.0000000  0  7G21G23G28G15G31G 9G 1
 -20880851.44744 -16270772.49344  20822666.9204   20822666.5194
   7466289.55344   5817893.14844  22939077.2044   22939077.6074
 -10489816.982 4  -8173879.339 4  22613075.852    22613075.853
   -320691.37444                  25030893.5914
  -8656293.79544  -6745158.56544  22408310.3494   22408309.7974
  -1029682.40044   -802344.84044  24460055.8964   24460055.9924
 -25869405.82244 -20157959.74944  20258219.1254   20258218.7484
 96  5  7  6  9  0.0000000  0  7G21G23G28G15G31G 9G 1
 -20869809.48144 -16262168.36644  20824767.8604   20824767.4454
   7522973.12044   5862062.16344  22949863.6684   22949863.2484
 -10402080.753 4  -8105513.464 4  22629771.448    22629771.927
   -427655.32944                  25010537.7434
  -8646049.93044  -6737176.34344  22410259.7114   22410258.5354
   -972053.69444   -757439.34344  24471022.4384   24471022.9304
 -25881390.14744 -20167298.17744  20255938.5974   20255937.9654
 96  5  7  6  9 30.0000000  0  7G21G23G28G15G31G 9G 1
 -20858589.37244 -16253425.42344  20826902.9024   20826902.7954
   7579755.56444   5906308.20344  22960669.2304   22960669.0404
 -10314098.966 4  -8036956.235 4  22646514.019    22646514.493
   -534639.77444                  24990178.2754
  -8635266.65444  -6728773.82444  22412312.1494   22412311.2014
   -913957.16844   -712169.34944  24482077.1894   24482075.7894
 -25892844.58544 -20176223.70744  20253758.9234   20253758.7114
 96  5  7  6 10  0.0000000  0  7G21G23G28G15G31G 9G 1
 -20847196.97944 -16244548.24044  20829070.9194   20829070.6584
   7636621.81844   5950619.56444  22971491.1054   22971490.6184
 -10225881.165 4  -7968215.102 4  22663301.677    22663302.206
   -641649.26944                  24969816.1924
  -8623953.54244  -6719958.51144  22414465.4164   22414465.7964
   -855408.71244   -666547.12644  24493219.7234   24493219.0614
 -25903792.55744 -20184754.58744  20251675.3454   20251674.8784
 96  5  7  6 10 30.0000000  0  8G21G23G28G15G25G31G 9G 1
 -20835623.57444 -16235529.99644  20831273.1364   20831272.8214
   7693577.35244   5995000.48244  22982328.9554   22982327.4454
 -10137412.395 4  -7899278.412 4  22680136.978    22680137.384
   -748663.89244                  24949454.5554
        -0.11154                  24366825.8164
  -8612087.11444  -6710711.82544  22416722.9454   22416722.5844
   -796408.13944   -620572.64744  24504447.9474   24504448.2974
 -25914239.63144 -20192895.15644  20249687.3974   20249687.0424
 96  5  7  6 11  0.0000000  0  7G21G23G28G15G31G 9G 1
 -20823878.31644 -16226377.85144  20833508.2184   20833508.3024
   7750585.29544   6039422.24744  22993176.8584   22993176.5364
 -10048713.194 4  -7830162.176 4  22697016.065    22697016.263
   -855699.11244   -666776.69744  24929087.0854
  -8599685.90944  -6701048.56344  22419083.1594   22419083.5884
   -736987.60644   -574270.94444  24515754.0144   24515753.3724
 -25924220.21544 -20200672.22544  20247788.1714   20247787.6654
 96  5  7  6 11 30.0000000  0  7G21G23G28G15G31G 9G 1
 -20811939.05044 -16217074.52844  20835780.2124   20835780.2344
   7807640.87244   6083881.13644  23004034.3034   23004033.7344
  -9959786.618 4  -7760868.764 4  22713937.582    22713938.100
   -962752.88244   -750195.13044  24908714.2294
  -8586735.76244  -6690957.55644  22421546.3884   22421546.9594
   -677153.90144   -527647.24244  24527140.6564   24527141.8304
 -25933748.82044 -20208097.10044  20245974.8784   20245974.4454
 96  5  7  6 12  0.0000000  0  7G21G23G28G15G31G 9G 1
 -20799787.23844 -16207605.58444  20838092.7784   20838092.3764
   7864774.55444   6128400.87744  23014907.4434   23014906.4994
  -9870617.196 4  -7691386.110 4  22730905.642    22730906.070
  -1069804.77444                  24888339.4884
  -8573222.83644  -6680428.00544  22424118.0264   22424118.0064
   -616890.60544   -480688.83044  24538607.7944   24538609.3064
 -25942809.66244 -20215157.48844  20244250.7414   20244250.1684
 96  5  7  6 12 30.0000000  0  7G21G23G28G15G31G 9G 1
 -20787426.83544 -16197974.10344  20840444.5494   20840444.6124
   7921984.25644   6172979.87244  23025793.5044   23025793.2834
  -9781211.352 4  -7621719.250 4  22747919.578    22747918.885
  -1176856.23744                  24867976.4954
  -8559154.40944  -6669465.60344  22426795.5974   22426795.1894
   -556194.47044   -433393.10844  24550157.8894   24550159.3834
 -25951410.98344 -20221859.80644  20242614.1504   20242613.6844
 96  5  7  6 13  0.0000000  0  7G21G23G28G15G31G 9G 1
 -20774852.66144 -16188176.04844  20842837.5154   20842837.3934
   7979280.98344   6217626.68044  23036695.8764   23036695.8174
  -9691574.762 4  -7551872.591 4  22764976.916    22764976.866
  -1283907.51244  -1000445.32044  24847608.1284   24847606.6434
  -8544533.97644  -6658073.06344  22429577.9304   22429577.8904
   -495055.36944   -385752.27244  24561792.3854
 -25959544.97544 -20228197.97344  20241066.0354   20241065.5074
 96  5  7  6 13 30.0000000  0  8G21G23G28G15G25G31G 9G 1
 -20762067.24244 -16178213.38744  20845270.3724   20845270.0814
   8036701.86744   6262370.23844  23047623.2004   23047622.6394
  -9601694.233 4  -7481835.834 4  22782080.440    22782081.110
  -1390940.36944  -1083847.46644  24827231.5454   24827235.3464
        -0.23254                  24253739.0124
  -8529346.70344  -6646238.84144  22432468.3914   22432467.7944
   -433445.86344   -337744.88444  24573516.5864   24573516.5054
 -25967185.86444 -20234151.90344  20239612.1504   20239611.6924
 96  5  7  6 14  0.0000000  0  7G21G23G28G25G31G 9G 1
 -20749196.64944 -16168184.35544  20847719.5234   20847719.3754
   8094142.78744   6307129.40644  23058553.2824   23058552.8714
  -9511674.204 4  -7411690.363 4  22799210.744    22799211.477
    -99108.44144                  24234877.8854
  -8513701.56044  -6634047.82444  22435445.5944   22435444.3074
   -371450.00444   -289436.45144  24585313.8054   24585311.8954
 -25974425.19544 -20239792.93644  20238234.5284   20238234.1614
 96  5  7  6 14 30.0000000  0  7G21G23G28G25G31G 9G 1
 -20736172.42744 -16158035.61344  20850198.0304   20850197.8344
   8151645.50744   6351936.71844  23069495.8914   23069496.0994
  -9421458.368 4  -7341392.325 4  22816378.186    22816379.060
   -198226.73344   -154462.77844  24216017.2084
  -8497529.29344  -6621446.05144  22438522.5554   22438522.0494
   -308990.03544   -240766.37844  24597199.4274   24597197.8664
 -25981189.96044 -20245064.17344  20236947.0524   20236946.7634
 96  5  7  6 15  0.0000000  0  7G21G23G28G25G31G 9G 1
 -20722923.50544 -16147711.77844  20852719.2764   20852719.3734
   8209291.71744   6396855.82444  23080466.3834   23080465.5584
  -9330977.094 4  -7270887.447 4  22833596.086    22833597.032
   -297302.88544   -231664.92044  24197162.8074   24197166.2674
  -8480756.36244  -6608376.24944  22441714.8114   22441714.0964
   -245994.63444   -191679.05744  24609187.3404   24609187.6544
 -25987391.69044 -20249896.68144  20235767.0454   20235766.5124
 96  5  7  6 15 30.0000000  0  7G21G23G28G25G31G 9G 1
 -20709492.67044 -16137246.19144  20855275.0814   20855274.6734
   8267024.75044   6441842.62544  23091452.0594   23091452.1504
  -9240284.544 4  -7200217.940 4  22850854.072    22850854.855
   -396400.87444   -308884.12044  24178305.7514   24178309.1104
  -8463437.72044  -6594881.20544  22445009.8524   22445009.2824
   -182523.46544   -142220.96544  24621265.2924   24621264.9924
 -25993085.59344 -20254333.47944  20234683.4994   20234683.0924
 96  5  7  6 16  0.0000000  0  7G21G23G28G25G31G 9G 1
 -20695866.48844 -16126628.38744  20857868.2554   20857867.9494
   8324809.58944   6486869.77344  23102448.5914   23102448.9264
  -9149398.554 4  -7129397.713 4  22868149.461    22868149.371
   -495532.15944   -386129.20544  24159441.6954   24159440.3074
  -8445578.33544  -6580964.80844  22448408.5314   22448408.3454
   -118601.81544    -92411.89744  24633428.1794   24633430.2634
 -25998285.51344 -20258385.36044  20233694.0044   20233693.6084
 96  5  7  6 16 30.0000000  0  7G21G23G28G25G31G 9G 1
 -20682026.70444 -16115844.13244  20860501.7464   20860501.4774
   8382656.87544   6531945.57344  23113456.1234   23113456.1754
  -9058320.464 4  -7058427.800 4  22885481.291    22885481.238
   -594695.34844   -463399.21244  24140570.7794   24140570.2474
  -8427181.13444  -6566629.33644  22451909.1284   22451908.6844
    -54252.54744    -42269.59544  24645674.9354   24645671.6684
 -26002992.42044 -20262053.07144  20232798.3544   20232797.8824
 96  5  7  6 17  0.0000000  0  7G21G23G28G25G31G 9G 1
 -20667991.92144 -16104907.93244  20863172.7074   20863172.2414
   8440571.53144   6577073.87744  23124476.5964   23124476.3314
  -8967059.461 4  -6987315.354 4  22902847.502    22902848.145
   -693896.69644   -540698.91544  24121692.5004   24121691.2854
  -8408274.23344  -6551896.70144  22455507.1184   22455506.7414
     10497.13444      8184.75144  24657996.8584   24657992.3474
 -26007228.30244 -20265353.74844  20231992.0694   20231991.7154
 96  5  7  6 17 30.0000000  0  7G21G23G28G25G31G 9G 1
 -20653765.65644 -16093822.52844  20865879.3504   20865879.4354
   8498534.49244   6622239.81944  23135506.5624   23135507.1714
  -8875626.531 4  -6916068.934 4  22920246.732    22920247.432
   -793138.33644   -618030.01444  24102808.5714   24102807.7464
  -8388864.78744  -6536772.47044  22459201.0474   22459200.3264
     75625.75344     58934.36044  24670388.3064   24670388.4374
 -26011000.94444 -20268293.46244  20231274.3514   20231273.9084
 96  5  7  6 18  0.0000000  0  7G21G23G28G25G31G 9G 1
 -20639338.95244 -16082580.93544  20868625.0984   20868624.7874
   8556574.94044   6667466.13444  23146551.0684   23146550.0604
  -8784001.732 4  -6844673.005 4  22937681.904    22937682.985
   -892401.07344   -695377.55244  24083919.4274   24083919.1184
  -8368925.27844  -6521235.20044  22462995.6464   22462994.5534
    141157.58944    109998.12644  24682860.8384   24682858.7324
 -26014282.05544 -20270850.16344  20230649.8414   20230649.4084
 96  5  7  6 18 30.0000000  0  7G21G23G28G25G31G 9G 1
 -20624724.07844 -16071192.71544  20871406.1054   20871405.9334
   8614717.26044   6712771.82744  23157615.7604   23157615.4334
  -8692173.741 4  -6773118.728 4  22955156.062    22955157.288
   -991670.74244   -772730.50444  24065028.4824   24065027.9604
  -8348454.73844  -6505284.15144  22466890.9444   22466890.4294
    207109.57344    161389.25544  24695410.8524   24695409.0164
 -26017064.03244 -20273017.92944  20230120.4304   20230119.8644
 96  5  7  6 19  0.0000000  0  7G21G23G28G25G31G 9G 1
 -20609945.20344 -16059676.70644  20874218.4894   20874218.3274
   8672946.36644   6758145.16944  23168696.3544   23168696.4234
  -8600162.702 4  -6701421.825 4  22972665.919    22972666.313
  -1090957.16844   -850096.51444  24046134.4194   24046132.6664
  -8327466.80344  -6488929.92744  22470884.7434   22470884.4364
    273462.78644    213093.04744  24708037.6034   24708035.9104
 -26019368.86944 -20274813.89644  20229681.9934   20229681.4864
 96  5  7  6 19 30.0000000  0  8G21G23G28G15G25G31G 9G 1
 -20594977.09544 -16048013.24344  20877066.4404   20877066.1654
   8731278.81144   6803599.02244  23179796.8394   23179796.1734
  -8507958.375 4  -6629574.318 4  22990212.022    22990211.885
        -0.00754                  24582725.4424
  -1190225.97144   -927448.80144  24027245.3144   24027244.5254
  -8305932.98444  -6472150.34244  22474982.5224   22474982.1894
    340233.84944    265122.37844  24720742.5494   24720742.3464
 -26021182.42944 -20276227.05244  20229336.9844   20229336.3984
 96  5  7  6 20  0.0000000  0  8G21G23G28G15G25G31G 9G 1
 -20579811.25944 -16036195.71044  20879952.8994   20879952.4274
   8789713.47144   6849132.51744  23190916.8334   23190916.5104
  -8415557.658 4  -6557573.783 4  23007795.424    23007794.794
   -106971.26144                  24562372.2784
  -1289461.32844  -1004775.00944  24008360.7684   24008360.7394
  -8283856.23044  -6454947.67844  22479183.4624   22479183.4494
    407440.72144    317491.32844  24733532.2394
 -26022505.43044 -20277257.95644  20229085.1224   20229084.7114
 96  5  7  6 20 30.0000000  0  8G21G23G28G15G25G31G 9G 1
 -20564450.82144 -16024226.53844  20882875.6614   20882875.4634
   8848233.49044   6894732.51644  23202052.9024   23202052.4444
  -8322972.670 4  -6485429.661 4  23025413.620    23025413.159
   -213910.25644                  24542020.3794
  -1388669.33644  -1082079.91644  23989482.4614   23989481.8564
  -8261254.86244  -6437336.24144  22483484.2604   22483483.8024
    475069.47944                  24746401.2874
 -26023347.92744 -20277914.43944  20228924.7764   20228924.1394
 96  5  7  6 21  0.0000000  0  8G21G23G28G15G25G31G 9G 1
 -20548861.42144 -16012078.95144  20885842.0184   20885841.8474
   8906848.00644   6940406.14844  23213206.3434   23213206.8564
  -8230204.269 4  -6413142.625 4  23043066.929    23043066.989
   -320812.96944                  24521676.2054
  -1487853.63244  -1159366.34044  23970607.1054   23970606.7464
  -8238111.02744  -6419302.09844  22487888.0674   22487888.2254
    543118.24744    423214.04844  24759351.7054
 -26023708.17344 -20278195.14744  20228856.2884   20228855.7784
 96  5  7  6 21 30.0000000  0  8G21G23G28G15G25G31G 9G 1
 -20533046.92944 -15999755.96344  20888851.3274   20888851.3424
   8965531.97044   6986133.91744  23224373.1294   23224373.0834
  -8137266.007 4  -6340723.215 4  23060751.902    23060753.145
   -427687.52044   -333262.17144  24501338.3444
  -1587033.59844  -1236649.37444  23951734.1434   23951733.2794
  -8214431.40544  -6400850.46244  22492394.2324   22492394.2534
    611593.43144    476571.47244  24772381.5654   24772379.5654
 -26023589.34344 -20278102.54744  20228878.7784   20228878.1604
 96  5  7  6 22  0.0000000  0  8G21G23G28G15G25G31G 9G 1
 -20517034.98644 -15987279.12244  20891898.2444   20891898.1314
   9024274.73944   7031907.49944  23235552.5594   23235552.3784
  -8044174.389 4  -6268184.305 4  23078466.478    23078467.661
   -534545.27944                  24481002.0584
  -1686230.58344  -1313945.68144  23932857.5564   23932857.4404
  -8190231.74944  -6381993.61544  22496998.9074   22496999.4314
    680482.40544    530251.18844  24785489.1614
 -26023005.95544 -20277647.95244  20228989.8474   20228989.2804
 96  5  7  6 22 30.0000000  0  8G21G23G28G15G25G31G 9G 1
 -20500818.11144 -15974642.59344  20894984.2074   20894984.0374
   9083117.33044   7077758.87444  23246748.9764   23246749.4544
  -7950919.037 4  -6195517.812 4  23096212.285    23096213.710
   -641370.13544                  24460669.0534
  -1785430.50744  -1391244.29344  23913981.5804   23913981.0734
  -8165496.05944  -6362719.07344  22501706.2954   22501706.6304
    749785.80544                  24798678.0304
 -26021960.21544 -20276833.08444  20229188.8294   20229188.3114
 96  5  7  6 23  0.0000000  0  7G21G23G28G25G31G 9G 1
 -20484397.55444 -15961847.34244  20898108.9564   20898108.8234
   9142062.04844   7123689.82844  23257966.5394   23257967.0504
  -7857506.608 4  -6122728.918 4  23113988.397    23113989.508
  -1884616.99944  -1468532.39944  23895105.8424   23895104.2024
  -8140232.07944  -6343032.86844  22506514.2354   22506513.8264
    819505.11044    638580.45144  24811945.1084   24811945.6924
 -26020458.97344 -20275663.28144  20229474.4334   20229474.0884
 96  5  7  6 23 30.0000000  0  7G21G23G28G25G31G 9G 1
 -20467813.04944 -15948924.34544  20901265.0364   20901264.9614
   9201087.13844   7169683.39544  23269198.5674   23269197.3924
  -7763953.235 4  -6049830.196 4  23131791.260    23131791.547
  -1983774.98644  -1545798.29744  23876237.3324   23876238.0334
  -8114478.24644  -6322964.96344  22511414.7874   22511414.7804
    889630.68444    693223.76844  24825291.4064   24825286.0754
 -26018509.94344 -20274144.55544  20229845.3144   20229844.8104
 96  5  7  6 24  0.0000000  0  7G21G23G28G25G31G 9G 1
 -20451059.52944 -15935869.64544  20904453.2214   20904453.0194
   9260207.85244   7215751.45444  23280448.8074   23280449.0294
  -7670252.246 4  -5976816.464 4  23149622.300    23149622.115
  -2082898.19244  -1623037.10944  23857374.2304   23857376.1474
  -8088238.73544  -6302518.61244  22516408.3204   22516407.7744
    960156.83344                  24838709.7094
 -26016112.75644 -20272276.60844  20230301.4534   20230300.9674
 96  5  7  6 24 30.0000000  0  7G21G23G28G25G31G 9G 1
 -20434120.20244 -15922670.16744  20907676.6774   20907676.2694
   9319397.14544   7261872.97544  23291711.1814   23291711.6844
  -7576412.550 4  -5903694.652 4  23167479.362    23167479.501
  -2181988.86544  -1700250.57744  23838517.9154   23838516.3434
  -8061519.99944  -6281698.83644  22521493.0784   22521493.2864
   1031076.01744                  24852206.2084
 -26013261.88744 -20270055.14744  20230843.9554   20230843.4884
 96  5  7  6 25  0.0000000  0  6G21G23G28G25G31G 1
 -20416985.89144 -15909318.75244  20910937.0824   20910937.1924
   9378634.44544   7308031.88344  23302984.5154   23302982.9814
  -7482434.384 4  -5830464.931 4  23185362.908    23185363.330
  -2281043.13144  -1777435.65744  23819668.6924   23819667.5194
  -8034313.63344  -6260499.08344  22526669.6054   22526670.2004
 -26009930.53844 -20267459.28444  20231477.9484   20231477.4164
 96  5  7  6 25 30.0000000  0  7G21G23G28G15G25G31G 1
 -20399646.26544 -15895807.34944  20914236.7874   20914236.4744
   9437918.13444   7354226.95544  23314265.2044   23314265.8624
  -7388317.625 4  -5757127.199 4  23203272.469    23203272.311
        -0.01154         0.36954  24338811.5604
  -2380078.18744  -1854605.79144  23800822.3394   23800822.6984
  -8006604.00544  -6238907.20244  22531942.7324   22531942.6354
 -26006118.13044 -20264488.56944  20232203.4684   20232202.9274
 96  5  7  6 26  0.0000000  0  7G21G23G28G15G25G31G 1
 -20382082.22644 -15882121.08344  20917579.3144   20917579.0054
   9497268.28244   7400473.82244  23325559.9994   23325559.5254
  -7294053.416 4  -5683674.604 4  23221209.948    23221210.074
   -106584.63044    -83052.51144  24318530.5704   24318535.8194
  -2479098.41944  -1931764.38844  23781980.5704   23781980.8904
  -7978363.82844  -6216901.87344  22537316.7914   22537316.8384
 -26001821.48344 -20261140.53044  20233020.9844   20233020.4844
 96  5  7  6 26 30.0000000  0  8G21G23G28G15G25G31G 9G 1
 -20364272.72044 -15868243.53744  20920968.3744   20920967.9584
   9556715.20944   7446796.10644  23336872.3194   23336871.7594
  -7199626.217 4  -5610094.990 4  23239178.611    23239179.688
   -213094.46444   -166047.04644  24298262.1734
  -2578055.50444  -2008873.77144  23763149.4014   23763148.4144
  -7949568.69744  -6194464.11744  22542796.6874   22542796.1954
        -0.30854        -0.20954  24906950.3754   24906950.3944
 -25997015.68344 -20257395.74544  20233935.6084   20233935.1184
 96  5  7  6 27  0.0000000  0  8G21G23G28G15G25G31G 9G 1
 -20346275.68744 -15854219.86344  20924392.8804   20924392.3894
   9616247.87544   7493185.16644  23348200.6774   23348200.2914
  -7105074.075 4  -5536418.000 4  23257171.595    23257172.717
   -319562.10544   -249008.87444  24278002.8524
  -2676974.37444  -2085953.37444  23744325.2904   23744326.0904
  -7920262.48244  -6171628.11944  22548373.6854   22548373.5164
     72915.91044     56817.68244  24920827.8864
 -25991752.98044 -20253294.94144  20234937.0424   20234936.6274
 96  5  7  6 27 30.0000000  0  7G21G23G28G15G25G31G 1
 -20328087.16744 -15840046.97744  20927853.8814   20927853.5074
   9675892.35144   7539661.38444  23359550.4434   23359551.3844
  -7010387.299 4  -5462636.117 4  23275190.200    23275190.542
   -425972.43544   -331925.91544  24257752.6754   24257751.3714
  -2775828.77244  -2162982.73444  23725513.6044   23725512.9754
  -7890449.90044  -6148397.54144  22554046.6304   22554046.3054
 -25986039.62044 -20248842.97244  20236024.1464   20236023.7664
 96  5  7  6 28  0.0000000  0  7G21G23G28G15G25G31G 1
 -20309720.01744 -15825734.90144  20931349.4234   20931348.8934
   9735659.52744   7586233.18144  23370923.7434   23370923.9094
  -6915571.304 4  -5388753.535 4  23293233.479    23293233.514
   -532325.51944   -414798.37444  24237514.6964   24237515.7424
  -2874604.13644  -2239950.47844  23706717.6144   23706716.8854
  -7860150.62244  -6124787.73644  22559812.2714   22559812.5944
 -25979878.08344 -20244041.77344  20237197.0104   20237196.3064
 96  5  7  6 28 30.0000000  0  7G21G23G28G15G25G31G 1
 -20291166.62044 -15811277.70144  20934879.8464   20934879.4274
   9795555.45644   7632905.30344  23382321.7724   23382323.5524
  -6820628.292 4  -5314771.998 4  23311300.557    23311300.434
   -638618.09544   -497623.68044  24217289.0754   24217292.5264
  -2973287.66844  -2316846.68644  23687939.5604   23687938.9024
  -7829369.59644  -6100802.53544  22565669.2764   22565669.7214
 -25973266.21544 -20238889.66444  20238454.8374   20238454.4714
 96  5  7  6 29  0.0000000  0  8G21G23G28G15G25G31G 9G 1
 -20272411.02044 -15796662.94544  20938448.9934   20938448.5284
   9855583.76644   7679680.59544  23393744.8134   23393744.9544
  -6725550.460 4  -5240685.406 4  23329392.992    23329392.698
   -744837.07244   -580391.69144  24197074.6744   24197075.2254
  -3071887.49544  -2393677.66744  23669176.1514   23669174.9904
  -7798094.32344  -6076432.20444  22571620.8574   22571621.0454
        -0.67654         0.11354  24977055.4654
 -25966202.80744 -20233385.71144  20239799.1114   20239798.6624
 96  5  7  6 29 30.0000000  0  8G21G23G28G15G25G31G 9G 1
 -20253465.98744 -15781900.58644  20942053.9644   20942053.7974
   9915712.24344   7726533.92744  23405187.0444   23405186.7054
  -6630364.223 4  -5166514.329 4  23347506.382    23347506.336
   -851003.35744   -663118.59544  24176873.2344   24176872.8744
  -3170439.53544  -2470471.44144  23650422.4094   23650421.3014
  -7766339.64544  -6051688.31944  22577663.3864   22577664.3364
     74801.89344     58287.79844  24991290.3124   24991292.3494
 -25958698.97644 -20227538.57044  20241227.0044   20241226.4404
 96  5  7  6 30  0.0000000  0  8G21G23G28G15G25G31G 9G 1
 -20234352.30444 -15767006.80944  20945691.2484   20945690.9134
   9975904.83844   7773437.23644  23416641.9264   23416641.9584
  -6535095.517 4  -5092278.994 4  23365635.444    23365635.772
   -957137.29044   -745820.33544  24156675.1524
  -3268982.26844  -2547257.94244  23631670.7484   23631669.6674
  -7734115.06044  -6026578.26844  22583795.7854   22583796.1774
    149950.06944    116844.81744  25005591.5034   25005590.7234
 -25950762.96944 -20221354.66544  20242737.1534   20242736.7244
 96  5  7  6 30 30.0000000  0  8G21G23G28G15G25G31G 9G 1
 -20215056.64344 -15751971.22844  20949362.9364   20949362.5894
  10036159.73944   7820389.08244  23428107.8604   23428107.3904
  -6439732.022 4  -5017969.782 4  23383782.342    23383782.951
  -1063221.08344   -828482.95844  24136486.3794   24136487.2304
  -3367510.76744  -2624033.39344  23612920.7384   23612919.6094
  -7701399.27044  -6001085.47044  22590021.3274   22590021.6474
    225476.61344                  25019960.9094
 -25942377.98944 -20214820.91444  20244332.7734   20244332.2364
 96  5  7  6 31  0.0000000  0  8G21G23G28G15G25G31G 9G 1
 -20195566.66144 -15736784.23144  20953072.0784   20953071.5564
  10096486.43744   7867396.87644  23439586.7334   23439587.1824
  -6344253.888 4  -4943571.226 4  23401951.320    23401951.385
  -1169229.71744   -911087.06944  24116314.3724   24116315.1474
  -3466006.38644  -2700783.20444  23594177.2654   23594175.9234
  -7668175.96644  -5975197.18844  22596344.1724   22596343.0394
    301403.07344                  25034409.9204
 -25933519.28744 -20207918.02844  20246018.5684   20246018.0564
 96  5  7  6 31 30.0000000  0  8G21G23G28G15G25G31G 9G 1
 -20175903.48944 -15721462.28444  20956813.4964   20956813.3944
  10156877.46144   7914454.77644  23451079.3834   23451079.6284
  -6248677.808 4  -4869096.372 4  23420139.071    23420138.640
  -1275174.17844   -993641.11744  24096153.1904   24096153.2264
  -3564470.43744  -2777508.42144  23575440.6004   23575440.1174
  -7634474.00344  -5948935.93544  22602757.0054   22602756.3794
    377714.86744    294323.91544  25048931.4724
 -25924196.22944 -20200653.30344  20247792.8014   20247792.1904
 96  5  7  6 32  0.0000000  0  8G21G23G28G15G25G31G 9G 1
 -20156066.57044 -15706004.95444  20960588.5944   20960588.0894
  10217326.76244   7961558.10744  23462582.7824   23462582.3254
  -6153013.366 4  -4794552.673 4  23438343.314    23438343.532
  -1381058.95444  -1076148.67344  24076003.9004   24076000.8934
  -3662892.07444  -2854200.58544  23556711.2424   23556712.5374
  -7600310.75144  -5922315.23344  22609258.3494   22609257.5124
    454400.48844    354078.96544  25063525.8354   25063526.5484
 -25914426.71244 -20193040.68844  20249651.7374   20249651.2714
 96  5  7  6 32 30.0000000  0  8G21G23G28G15G25G31G 9G 1
 -20136020.27844 -15690384.47244  20964403.4744   20964403.0074
  10277872.37544   8008736.47544  23474104.0814   23474102.7104
  -6057237.800 4  -4719922.367 4  23456568.483    23456568.996
  -1486855.56844  -1158587.52044  24055871.6924   24055870.9044
  -3761222.45044  -2930821.60744  23537999.9634   23537999.2884
  -7565669.55444  -5895322.10844  22615850.6544   22615850.5684
    531471.89644                  25078192.3864
 -25904198.31744 -20185070.50944  20251598.0474   20251597.6214
 96  5  7  6 33  0.0000000  0  7G21G23G28G15G25G31G 1
 -20115752.58444 -15674591.47844  20968259.8994   20968260.0774
  10338519.57244   8055994.00144  23485644.4704   23485644.3294
  -5961356.217 4  -4645209.428 4  23474814.475    23474815.135
  -1592563.54844                  24035756.6324
  -3859438.92444  -3007353.88844  23519309.9134   23519309.3894
  -7530555.04344  -5867960.17044  22622531.8874   22622532.6534
 -25893517.67944 -20176747.93044  20253630.7174   20253630.2434
 96  5  7  6 33 30.0000000  0  7G21G23G28G15G25G31G 1
 -20095281.17244 -15658639.75044  20972155.5914   20972155.4734
  10399241.46144   8103309.74144  23497199.7694   23497200.0394
  -5865405.531 4  -4570442.676 4  23493073.430    23493073.868
  -1698214.17844  -1323282.45244  24015652.9684   24015651.7934
  -3957568.28744  -3083818.29444  23500636.2224   23500636.3304
  -7494999.46244  -5840254.54244  22629297.9094   22629297.5254
 -25882418.13044 -20168098.93044  20255742.8464   20255742.1824
 96  5  7  6 34  0.0000000  0  7G21G23G28G15G25G31G 1
 -20074586.43944 -15642513.99444  20976093.8644   20976093.8344
  10460050.53044   8150693.38444  23508770.8444   23508772.0964
  -5769375.826 4  -4495614.353 4  23511347.028    23511346.946
  -1803792.31544  -1405551.10944  23995561.9654   23995558.7884
  -4055597.83644  -3160204.93644  23481981.8234   23481981.1664
  -7458977.64144  -5812185.60544  22636152.1074   22636152.4474
 -25870879.81144 -20159108.02744  20257938.4554   20257937.8574
 96  5  7  6 34 30.0000000  0  7G21G23G28G15G25G31G 1
 -20053631.36044 -15626185.37544  20980081.1754   20980080.9914
  10521006.27544   8198191.31544  23520370.7004   23520369.1404
  -5673216.817 4  -4420685.258 4  23529645.137    23529645.324
  -1909242.22644  -1487719.87344  23975494.1204
  -4153471.56144  -3236470.15344  23463357.1144   23463356.1584
  -7422432.61744  -5783708.97644  22643106.9354   22643107.3364
 -25858840.87544 -20149727.03644  20260229.4064   20260228.9914
 96  5  7  6 35  0.0000000  0  7G21G23G28G15G25G31G 1
 -20032473.08844 -15609698.41744  20984107.9804   20984107.4784
  10582054.62244   8245761.42444  23531988.4714   23531988.0004
  -5576983.212 4  -4345698.036 4  23547957.603    23547958.273
  -2014613.16344  -1569826.98344  23955441.5974
  -4251243.37444  -3312655.95544  23444751.6084   23444751.6514
  -7385414.90944  -5754864.03244  22650151.4624   22650150.5384
 -25846353.96644 -20139996.97244  20262605.3384   20262604.9474
 96  5  7  6 35 30.0000000  0  7G21G23G28G15G25G31G 1
 -20011143.88644 -15593078.26844  20988166.5034   20988166.2694
  10643174.77544   8293387.49344  23543618.7544   23543619.7004
  -5480698.729 4  -4270671.184 4  23566280.593    23566281.089
  -2119923.21844  -1651886.82344  23935402.5184
  -4348951.42144  -3388792.05644  23426158.3054   23426157.6144
  -7347943.33044  -5725665.40844  22657282.9424   22657282.1194
 -25833440.14444 -20129934.25044  20265063.0314   20265062.4604
 96  5  7  6 36  0.0000000  0  7G21G23G28G15G25G31G 1
 -19989634.60144 -15576317.79044  20992259.6694   20992259.3194
  10704380.07644   8341079.88944  23555265.4124   23555265.8794
  -5384345.200 4  -4195590.516 4  23584615.914    23584616.711
  -2225148.64344  -1733880.60544  23915379.7044   23915383.5744
  -4446573.33944  -3464861.05144  23407581.5154   23407581.0694
  -7309999.67344  -5696098.94444  22664502.7634   22664502.5494
 -25820089.46644 -20119531.12444  20267603.5504   20267603.0734
 96  5  7  6 36 30.0000000  0  7G21G23G28G15G25G31G 1
 -19967916.73744 -15559394.79144  20996392.5224   20996392.3824
  10765674.37344   8388841.65444  23566929.5624   23566929.9854
  -5287900.880 4  -4120439.084 4  23602968.267    23602969.151
  -2330262.17444  -1815787.18844  23895377.6184   23895379.3024
  -4544083.94644  -3540843.31444  23389026.5374   23389026.4624
  -7271571.51144  -5666154.92444  22671815.5364   22671815.0954
 -25806293.34544 -20108780.90044  20270228.8664   20270228.3464
 96  5  7  6 37  0.0000000  0  7G21G23G28G15G25G31G 1
 -19945955.11744 -15542281.84444  21000571.7104   21000571.3594
  10827060.75944   8436675.17344  23578612.1784   23578612.0484
  -5191357.201 4  -4045210.244 4  23621339.929    23621340.483
  -2435249.75844  -1897595.65144  23875399.3054
  -4641480.77944  -3616736.93244  23370492.2734   23370492.2174
  -7232655.23744  -5635830.57644  22679220.8614   22679221.0784
 -25792043.88244 -20097677.42644  20272940.2814   20272939.8434
 96  5  7  6 37 30.0000000  0  7G21G23G28G15G25G31G 1
 -19923776.57844 -15524999.87344  21004792.0554   21004791.5904
  10888503.51744   8484552.61744  23590303.7834   23590305.3724
  -5094749.982 4  -3969931.896 4  23639724.602    23639724.143
  -2540141.90944  -1979329.73144  23855439.6814   23855442.8894
  -4738796.22844  -3692567.12944  23351973.5744   23351972.8894
  -7193287.79244  -5605154.66144  22686712.1934   22686712.4884
 -25777359.31144 -20086234.90244  20275734.7964   20275734.2194
 96  5  7  6 38  0.0000000  0  7G21G23G28G15G25G31G 1
 -19901368.50444 -15507539.03744  21009056.0074   21009055.6834
  10950003.05844   8532474.28544  23602005.9904   23602005.4814
  -4998080.614 4  -3894605.142 4  23658120.812    23658119.645
  -2644934.24144  -2060986.08244  23835495.2304   23835495.2424
  -4836018.50744  -3768324.72244  23333472.4944   23333472.0664
  -7153483.60144  -5574138.42744  22694286.0954   22694286.6724
 -25762241.78944 -20074455.01544  20278611.4704   20278610.8964
 96  5  7  6 38 30.0000000  0  7G21G23G28G15G25G31G 1
 -19878713.24144 -15489885.58444  21013367.3404   21013367.0704
  11011585.51744   8580460.59544  23613725.0654   23613724.2654
  -4901338.129 4  -3819221.414 4  23676529.791    23676529.305
  -2749610.21344  -2142551.74544  23815577.2314   23815575.0764
  -4933135.08444  -3843999.94944  23314992.2544   23314991.9664
  -7113226.43844  -5542769.22444  22701947.2344   22701947.5584
 -25746667.89544 -20062319.51244  20281574.9454   20281574.4314
 96  5  7  6 39  0.0000000  0  7G21G23G28G15G25G31G 1
 -19855842.70144 -15472064.39044  21017719.2094   21017719.3184
  11073250.85544   8628511.48544  23625460.4104   23625460.4594
  -4804550.518 4  -3743802.490 4  23694947.028    23694947.604
  -2854192.33144  -2224044.26944  23795676.8324   23795674.6664
  -5030170.42544  -3919611.87544  23296526.4114   23296525.5004
  -7072537.76044  -5511063.78244  22709690.1954   22709690.5874
 -25730659.65844 -20049845.55944  20284621.4234   20284620.8794
 96  5  7  6 39 30.0000000  0  7G21G23G28G15G25G31G 1
 -19832749.17444 -15454069.42944  21022114.1194   21022113.8014
  11135020.35444   8676643.54744  23637214.7924   23637216.0224
  -4707700.123 4  -3668334.645 4  23713376.711    23713377.639
  -2958657.83444  -2305445.85144  23775797.2554   23775795.1064
  -5127102.69744  -3995143.50144  23278080.4434   23278079.5444
  -7031393.71944  -5479003.49544  22717519.7164   22717519.0684
 -25714207.56444 -20037025.73344  20287752.1464   20287751.5624
 96  5  7  6 40  0.0000000  0  7G21G23G28G15G25G31G 1
 -19809452.24644 -15435915.97444  21026547.3664   21026546.9904
  11196891.86844   8724855.09844  23648987.9064   23648988.7024
  -4610796.000 4  -3592824.952 4  23731817.017    23731817.481
  -3063009.97044  -2386759.16044  23755938.5744   23755937.6804
  -5223946.62144  -4070606.27544  23259652.2924   23259651.3284
  -6989797.76044  -5446591.06744  22725435.2874   22725434.9504
 -25697342.95544 -20023884.47344  20290961.5004   20290960.8764
 96  5  7  6 40 30.0000000  0  7G21G23G28G15G25G31G 1
 -19785951.54044 -15417603.73244  21031019.3664   21031019.1724
  11258883.57444   8773160.29044  23660784.7244   23660783.9824
  -4513832.394 4  -3517268.923 4  23750268.998    23750269.340
  -3167237.49044  -2467975.40144  23736102.2274   23736103.6104
  -5320687.62144  -4145988.83344  23241243.1904   23241243.0144
  -6947720.13244  -5413803.30744  22733442.4194   22733443.5154
 -25680058.50844 -20010416.06544  20294250.5324   20294249.7974
 96  5  7  6 41  0.0000000  0  7G21G23G28G15G25G31G 1
 -19762248.13044 -15399133.53644  21035529.9694   21035529.7434
  11320987.89644   8821553.22944  23672603.1384   23672601.8854
  -4416815.977 4  -3441671.726 4  23768731.055    23768731.419
  -3271341.37144  -2549095.24944  23716293.3334   23716293.7694
  -5417310.77444  -4221279.58344  23222856.3914   23222855.6644
  -6905167.91744  -5380645.75144  22741539.9794   22741539.7224
 -25662365.34544 -19996629.18044  20297617.5034   20297617.0344
 96  5  7  6 41 30.0000000  0  7G21G23G28G15G25G31G 1
 -19738353.43044 -15380514.28844  21040076.7524   21040076.8444
  11383177.16844   8870012.36644  23684436.5894   23684437.9464
  -4319762.252 4  -3366045.460 4  23787199.959    23787199.853
  -3375331.67744  -2630126.61844  23696506.2414   23696506.4434
  -5513817.74244  -4296479.79444  23204490.9814   23204490.3474
  -6862150.29144  -5347125.53744  22749725.7604   22749725.2724
 -25644281.45944 -19982537.83544  20301058.4914   20301057.9404
 96  5  7  6 42  0.0000000  0  7G21G23G28G15G25G31G 1
 -19714268.02144 -15361746.43244  21044660.1654   21044659.8434
  11445455.97044   8918541.30444  23696288.1004   23696286.8254
  -4222679.736 4  -3290396.767 4  23805674.466    23805674.231
  -3479211.40744  -2711071.83044  23676740.1184   23676742.7254
  -5610193.59744  -4371577.85044  23186151.4304   23186151.1534
  -6818674.24444  -5313248.10544  22757999.3724   22757999.0934
 -25625808.83044 -19968143.56944  20304573.7914   20304573.1504
 96  5  7  6 42 30.0000000  0  7G21G23G28G15G25G31G 1
 -19689974.36544 -15342816.30444  21049283.3164   21049282.4504
  11507824.42544   8967140.06344  23708156.6184   23708156.3704
  -4125575.365 4  -3214731.035 4  23824152.552    23824152.076
  -3582981.95744  -2791931.96544  23656992.8044   23656994.2734
  -5706419.32444  -4446558.91644  23167840.1034   23167839.9074
  -6774752.97244  -5279023.76144  22766356.7214   22766356.4994
 -25606937.25944 -19953438.43944  20308164.8864   20308164.4514
 96  5  7  6 43  0.0000000  0  7G21G23G28G15G25G31G 1
 -19665459.64244 -15323713.92144  21053948.2664   21053947.7684
  11570288.12144   9015813.06544  23720042.7444   23720040.9884
  -4028439.966 4  -3139041.138 4  23842636.356    23842636.178
  -3686628.35944  -2872695.35644  23637269.2174   23637270.4794
  -5802485.40144  -4521415.57044  23149559.5514   23149558.9424
  -6730397.28044  -5244460.89944  22774796.8124   22774797.3714
 -25587648.55944 -19938408.27144  20311835.5214   20311834.8504
 96  5  7  6 43 30.0000000  0  7G21G23G28G15G25G31G 1
 -19640710.55544 -15304428.91644  21058657.8234   21058657.2214
  11632869.50444   9064577.75744  23731952.2704   23731953.0144
  -3931262.798 4  -3063318.650 4  23861128.428    23861128.889
  -3790134.51044  -2953349.48744  23617571.5904   23617572.2924
  -5898385.21544  -4596142.68044  23131310.9674   23131310.4354
  -6685604.42844  -5209557.39344  22783321.2064   22783321.0874
 -25567931.53144 -19923044.33944  20315587.4004   20315587.0214
 96  5  7  6 44  0.0000000  0  7G21G23G28G15G25G31G 1
 -19615742.62044 -15284973.37944  21063408.6684   21063408.4754
  11695574.51744   9113438.79344  23743884.7924   23743884.7404
  -3834057.976 4  -2987574.657 4  23879626.551    23879626.248
  -3893509.15644  -3033901.14344  23597899.4064   23597900.6854
  -5994139.56844  -4670756.45944  23113089.3034   23113088.4334
  -6640404.97944  -5174337.06744  22791921.2424   22791921.1314
 -25547789.96144 -19907349.60144  20319420.4794   20319419.8454
 96  5  7  6 44 30.0000000  0  7G21G23G28G15G25G31G 1
 -19590576.53744 -15265363.43744  21068198.1244   21068197.7414
  11758383.57744   9162380.90144  23755836.3164   23755835.2274
  -3736843.209 4  -2911822.933 4  23898125.970    23898125.419
  -3996764.60744  -3114359.87644  23578251.1174   23578251.7144
  -6089765.63744  -4745270.26044  23094892.1874   23094891.5114
  -6594818.27644  -5138814.96944  22800596.8074   22800597.2684
 -25527235.47144 -19891333.10444  20323331.5624   20323331.2014
 96  5  7  6 45  0.0000000  0  7G21G23G28G15G25G31G 1
 -19565214.64544 -15245600.92144  21073023.8164   21073023.4984
  11821296.62744   9211404.04144  23767808.3004   23767808.2444
  -3639611.625 4  -2836058.076 4  23916628.211    23916627.642
  -4099887.60444  -3194715.45644  23558627.4834   23558626.6164
  -6185260.26644  -4819681.62644  23076720.2854   23076720.0074
  -6548824.33044  -5102975.55344  22809349.0204   22809348.8284
 -25506266.20144 -19874993.41344  20327321.9064   20327321.4854
 96  5  7  6 45 30.0000000  0  7G21G23G28G15G25G31G 1
 -19539668.97644 -15225695.19744  21077885.6474   21077885.1714
  11884303.57344   9260500.34744  23779798.0404   23779799.4674
  -3542376.655 4  -2760290.586 4  23935131.051    23935130.450
  -4202886.54344  -3274974.35144  23539027.8364   23539028.5204
  -6280630.27844  -4893995.89444  23058571.8634   23058571.7534
  -6502429.07444  -5066823.41444  22818178.8684   22818178.5674
 -25484899.78744 -19858344.25544  20331387.9104   20331387.2654
 96  5  7  6 46  0.0000000  0  7G21G23G28G15G25G31G 1
 -19513937.21244 -15205644.46544  21082781.6634   21082781.3154
  11947401.07044   9309667.24344  23791804.3444   23791805.0434
  -3445135.118 4  -2684517.957 4  23953635.558    23953635.970
  -4305752.35844  -3355129.50344  23519453.7724   23519453.6684
  -6375864.15144  -4968204.08444  23040449.0974   23040448.5354
  -6455618.30144  -5030347.49644  22827086.3954   22827086.1004
 -25463120.22944 -19841373.17544  20335532.4814   20335531.8924
 96  5  7  6 46 30.0000000  0  7G21G23G28G15G25G31G 1
 -19488022.21244 -15185450.95344  21087713.3994   21087713.0194
  12010574.82644   9358893.55944  23803825.8644   23803827.7034
  -3347890.971 4  -2608743.309 4  23972140.862    23972141.609
  -4408483.61944  -3435179.83044  23499903.1454   23499903.5654
  -6470952.25344  -5042298.68844  23022354.5204   23022353.5014
  -6408381.35244  -4993539.50444  22836075.4354   22836076.1644
 -25440929.89544 -19824082.01044  20339755.0094   20339754.4444
 96  5  7  6 47  0.0000000  0  7G21G23G28G15G25G31G 1
 -19461919.07244 -15165110.84944  21092680.6244   21092680.2804
  12073829.48244   9408182.86744  23815863.6874   23815864.6934
  -3250641.159 4  -2532964.271 4  23990646.506    23990646.913
  -4511071.45144  -3515118.38544  23480381.0244   23480383.3214
  -6565893.36244  -5116278.75744  23004287.7504   23004286.7244
  -6360729.80344  -4956408.43944  22845143.2794   22845143.0414
 -25418325.58944 -19806468.27144  20344056.6724   20344056.1304
 96  5  7  6 47 30.0000000  0  7G21G23G28G15G25G31G 1
 -19435620.53244 -15144618.48944  21097684.9384   21097684.6614
  12137174.56544   9457542.64744  23827918.3114   23827917.6634
  -3153391.127 4  -2457185.070 4  24009152.056    24009152.333
  -4613515.96744  -3594945.26544  23460887.2084   23460888.1514
  -6660691.38944  -5190147.32044  22986248.5474   22986248.0914
  -6312683.41644  -4918969.70844  22854286.4734   22854286.7004
 -25395303.29344 -19788528.82244  20348437.4984   20348436.9824
 96  5  7  6 48  0.0000000  0  7G21G23G28G15G25G31G 1
 -19409101.31044 -15123954.17044  21102731.5194   21102731.1424
  12200614.76644   9506976.58544  23839990.4334   23839990.4474
  -3056138.487 4  -2381403.785 4  24027658.450    24027659.462
  -4715809.26844  -3674654.31944  23441420.8454   23441421.4924
  -6755335.35144  -5263895.83944  22968237.9114   22968237.3654
  -6264235.36044  -4881218.00044  22863504.6914   22863505.2194
 -25371852.25444 -19770255.28544  20352900.1964   20352899.7264
 96  5  7  6 48 30.0000000  0  7G21G23G28G15G25G31G 1
 -19382353.51644 -15103111.74244  21107821.2584   21107820.8394
  12264148.53144   9556483.39944  23852079.9614   23852078.5964
  -2958883.771 4  -2305620.917 4  24046166.468    24046166.317
  -4817946.50744  -3754241.78444  23421986.4504   23421986.9524
  -6849826.73644  -5337525.47044  22950257.0244   22950256.4794
  -6215379.56844  -4843148.56344  22872801.4864   22872801.3104
 -25347980.39544 -19751653.84344  20357442.8274   20357442.3964
